Date StartTime U_cm/s V_cm/s W_cm/s Ustd_cm/s Vstd_cm/s Wstd_cm/s Uvar_(cm/s)^2 Vvar_(cm/s)^2 Wvar_(cm/s)^2 KE_(m/s)^2 TurbulentKE_(m/s)^2 HorizWindSpeed_cm/s FrictionSpeec_cm/s DragCoef SpeedOfSound_m/s SonicTemperature_C Pressure_mb 
07/22/2013  00:00:00     -102.062       93.489      -19.760       46.966       45.180       32.012     2205.785     2041.203     1024.741        1.241        0.264      138.408       26.629        0.037      349.123       29.321      859.803
07/22/2013  00:01:00      -75.412      145.688      -25.194       25.203       42.113       18.485      635.171     1773.526      341.689        1.515        0.138      164.048        8.747        0.003      349.266       29.569      859.790
07/22/2013  00:02:00     -119.892       57.038      -19.433       33.673       31.611       19.544     1133.850      999.241      381.987        1.026        0.126      132.768       18.895        0.020      349.192       29.440      859.813
07/22/2013  00:03:00      -98.631       51.692       -5.061       59.939       40.535       23.962     3592.715     1643.064      574.195        0.912        0.290      111.355       28.397        0.065      349.231       29.506      859.819
07/22/2013  00:04:00      -56.189      167.893      -21.844       34.106       38.362       22.913     1163.230     1471.635      525.018        1.749        0.158      177.046       23.268        0.017      349.268       29.571      859.802
07/22/2013  00:05:00      -91.110      103.320      -29.686       38.605       68.488       23.076     1490.318     4690.671      532.524        1.328        0.336      137.754       17.601        0.016      349.117       29.308      859.819
07/22/2013  00:06:00     -115.727       93.680      -24.181       44.898       47.053       31.162     2015.852     2214.008      971.048        1.398        0.260      148.891       32.168        0.047      349.226       29.498      859.856
07/22/2013  00:07:00      -38.375       54.878      -10.196       33.474       29.622       20.909     1120.534      877.480      437.187        0.351        0.122       66.965       20.074        0.090      349.126       29.325      859.829
07/22/2013  00:08:00     -110.898       13.111      -15.831       36.790       31.074       14.257     1353.469      965.618      203.260        0.762        0.126      111.670       11.523        0.011      348.806       28.772      859.839
07/22/2013  00:09:00      -37.447      -15.288      -10.243       36.751       26.746       16.503     1350.654      715.328      272.364        0.204        0.117       40.448       15.750        0.152      348.904       28.941      859.846
07/22/2013  00:10:00      -84.396       32.817      -10.967       29.613       31.582       17.023      876.942      997.400      289.772        0.524        0.108       90.551       12.363        0.019      348.958       29.034      859.858
07/22/2013  00:11:00     -124.454       35.868       -7.553       29.785       24.243       16.443      887.146      587.725      270.370        0.929        0.087      129.519       13.743        0.011      348.964       29.045      859.858
07/22/2013  00:12:00     -105.575       75.909      -18.794       35.691       46.824       26.903     1273.859     2192.447      723.772        1.072        0.210      130.031       23.737        0.033      348.988       29.085      859.866
07/22/2013  00:13:00      -64.620      169.453      -14.509       45.343       46.005       32.051     2055.962     2116.486     1027.282        1.915        0.260      181.356       31.194        0.030      349.110       29.296      859.873
07/22/2013  00:14:00      -91.939      140.733      -29.251       44.770       36.804       27.457     2004.314     1354.552      753.865        1.661        0.206      168.103       28.969        0.030      348.973       29.060      859.890
07/22/2013  00:15:00      -90.471      131.618      -24.442       50.509       43.651       22.720     2551.135     1905.378      516.220        1.554        0.249      159.713       25.471        0.025      348.927       28.979      859.898
07/22/2013  00:16:00     -116.589      196.364      -32.204       76.711       78.625       31.600     5884.597     6181.917      998.567        3.312        0.653      228.368       28.789        0.016      349.091       29.260      859.901
07/22/2013  00:17:00      -96.243      194.497      -28.741       56.110       73.464       38.306     3148.356     5396.996     1467.333        2.896        0.501      217.007       39.476        0.033      348.911       28.950      859.885
07/22/2013  00:18:00      -96.370      166.061      -28.497       70.533       50.362       30.974     4974.963     2536.336      959.417        2.307        0.424      191.998       39.577        0.042      348.957       29.029      859.891
07/22/2013  00:19:00      -39.775      189.693      -21.727       58.360       56.213       27.942     3405.875     3159.877      780.764        2.269        0.367      193.818       20.425        0.011      349.037       29.169      859.854
07/22/2013  00:20:00      -89.987       61.207      -13.728       26.502       56.578       27.032      702.363     3201.075      730.743        0.833        0.232      108.830       22.788        0.044      348.799       28.757      859.871
07/22/2013  00:21:00      -85.771       53.303      -16.247       39.014       51.042       20.489     1522.120     2605.294      419.794        0.750        0.227      100.985       23.792        0.056      348.853       28.852      859.887
07/22/2013  00:22:00     -124.211       82.875      -16.207       39.361       54.640       26.009     1549.323     2985.565      676.448        1.388        0.261      149.321       27.264        0.033      348.984       29.079      859.884
07/22/2013  00:23:00     -105.889      120.232      -12.691       41.425       46.695       30.481     1716.034     2180.430      929.099        1.533        0.241      160.213       27.609        0.030      348.889       28.914      859.899
07/22/2013  00:24:00      -79.361       30.773      -14.555       51.439       43.179       22.046     2645.929     1864.465      486.012        0.623        0.250       85.118       20.814        0.060      348.822       28.799      859.893
07/22/2013  00:25:00      -91.863      113.228      -17.730       45.717       81.861       31.944     2090.030     6701.170     1020.401        1.569        0.491      145.806       31.203        0.046      349.015       29.130      859.867
07/22/2013  00:26:00     -205.396       83.286      -23.592       38.525       54.297       25.971     1484.154     2948.204      674.505        2.739        0.255      221.639       21.320        0.009      349.037       29.167      859.872
07/22/2013  00:27:00     -109.012        9.507       -6.264       49.773       29.415       20.996     2477.318      865.268      440.814        0.790        0.189      109.426       17.478        0.026      348.826       28.804      859.887
07/22/2013  00:28:00     -112.371      -21.205      -11.596       30.421       36.897       21.775      925.424     1361.424      474.131        0.799        0.138      114.355       13.378        0.014      348.838       28.824      859.874
07/22/2013  00:29:00     -100.159       35.632      -16.913       40.764       55.274       22.547     1661.672     3055.219      508.356        0.841        0.261      106.308       22.703        0.046      348.824       28.801      859.854
07/22/2013  00:30:00     -105.151       98.078      -17.459       59.867       38.413       28.384     3584.003     1475.552      805.626        1.342        0.293      143.792       28.733        0.040      348.814       28.784      859.841
07/22/2013  00:31:00     -127.338       91.102      -23.358       40.130       75.678       30.955     1610.383     5727.169      958.193        1.668        0.415      156.571       34.870        0.050      348.775       28.718      859.856
07/22/2013  00:32:00     -137.555      174.304      -34.460       63.514       72.233       39.204     4033.982     5217.634     1536.967        3.064        0.539      222.043       39.877        0.032      348.761       28.691      859.854
07/22/2013  00:33:00     -156.476      126.246      -16.518       69.084       87.229       35.209     4772.662     7608.834     1239.675        2.716        0.681      201.055       37.000        0.034      348.670       28.533      859.834
07/22/2013  00:34:00     -210.268      115.416      -45.018       85.705      102.506       38.575     7345.426    10507.442     1488.065        3.945        0.967      239.861        9.312        0.002      348.803       28.761      859.839
07/22/2013  00:35:00     -105.711       41.794      -20.810       47.386       40.303       40.304     2245.394     1624.301     1624.447        0.942        0.275      113.673       30.186        0.071      348.676       28.545      859.849
07/22/2013  00:36:00     -171.888       18.178      -27.971       63.585       60.326       27.215     4043.071     3639.258      740.674        1.954        0.421      172.846       23.522        0.019      348.659       28.514      859.876
07/22/2013  00:37:00      -92.245       -6.581       -8.370       50.723       60.825       34.311     2572.834     3699.722     1177.233        0.803        0.372       92.480       30.374        0.108      348.584       28.387      859.875
07/22/2013  00:38:00     -123.786      -23.899      -12.515       49.436       63.090       31.378     2443.932     3980.340      984.572        1.173        0.370      126.072       17.332        0.019      348.564       28.350      859.874
07/22/2013  00:39:00     -150.216      -31.073      -22.703       69.048       49.008       36.976     4767.695     2401.784     1367.200        1.629        0.427      153.396       19.384        0.016      348.626       28.459      859.869
07/22/2013  00:40:00     -210.364      -54.307      -13.197       71.598       61.803       43.981     5126.338     3819.651     1934.369        2.913        0.544      217.261       37.272        0.029      348.623       28.452      859.856
07/22/2013  00:41:00     -161.084      -42.457      -10.019       71.458       68.620       45.850     5106.312     4708.659     2102.196        1.988        0.596      166.586       39.498        0.056      348.709       28.600      859.838
07/22/2013  00:42:00     -211.993      -62.030      -19.508       70.893       65.068       36.333     5025.824     4233.789     1320.098        2.987        0.529      220.882       40.072        0.033      348.724       28.627      859.819
07/22/2013  00:43:00     -230.459      -95.968       -8.686       59.666       72.238       40.914     3560.004     5218.302     1673.991        3.642        0.523      249.642       29.908        0.014      348.649       28.493      859.817
07/22/2013  00:44:00     -219.391      -67.853      -10.819       90.827       78.649       41.587     8249.580     6185.601     1729.465        3.451        0.808      229.644       36.923        0.026      348.684       28.556      859.815
07/22/2013  00:45:00     -262.959       52.378      -12.110      133.621       77.312       41.053    17854.609     5977.077     1685.316        4.877        1.276      268.125       41.906        0.024      348.788       28.736      859.810
07/22/2013  00:46:00     -259.501      -56.715      -16.162       75.233       56.452       41.466     5660.024     3186.868     1719.433        4.069        0.528      265.626       36.763        0.019      348.647       28.491      859.812
07/22/2013  00:47:00     -213.878      -30.881      -34.049       72.865       56.981       34.656     5309.369     3246.889     1201.016        2.881        0.488      216.096       29.081        0.018      348.697       28.578      859.820
07/22/2013  00:48:00     -220.559      -41.964      -20.942      105.688       86.207       44.897    11169.986     7431.671     2015.738        3.573        1.031      224.516       53.580        0.057      348.722       28.623      859.818
07/22/2013  00:49:00     -211.400      -92.142      -14.263       61.939       58.589       41.104     3836.396     3432.708     1689.507        3.117        0.448      230.608       27.547        0.014      348.651       28.500      859.816
07/22/2013  00:50:00     -236.218        3.316      -17.796       81.287       67.343       44.097     6607.499     4535.013     1944.576        3.460        0.654      236.241       40.746        0.030      348.685       28.558      859.834
07/22/2013  00:51:00     -254.116      -18.409      -18.551       88.817       56.032       36.841     7888.514     3139.541     1357.286        3.882        0.619      254.782       44.159        0.030      348.714       28.608      859.844
07/22/2013  00:52:00     -183.025      -52.869       -6.777       72.551       62.111       34.853     5263.626     3857.817     1214.758        2.334        0.517      190.508       26.437        0.019      348.677       28.545      859.848
07/22/2013  00:53:00     -230.309      -23.587      -15.499       71.446       71.627       38.532     5104.539     5130.395     1484.753        3.278        0.586      231.513       36.464        0.025      348.672       28.536      859.858
07/22/2013  00:54:00     -129.717       55.690       -2.643      105.680       62.390       40.199    11168.246     3892.454     1615.994        1.830        0.834      141.166       40.272        0.081      348.699       28.584      859.849
07/22/2013  00:55:00     -136.323      -26.080      -17.624       81.064       64.198       42.895     6571.325     4121.428     1840.019        1.605        0.627      138.795       47.772        0.118      348.677       28.547      859.843
07/22/2013  00:56:00     -229.499      -46.369      -14.000       96.368       84.765       45.334     9286.722     7185.045     2055.188        3.677        0.926      234.136       46.213        0.039      348.660       28.517      859.864
07/22/2013  00:57:00     -257.267       13.419      -21.128       63.836       81.344       37.919     4074.992     6616.874     1437.830        3.947        0.606      257.617       30.034        0.014      348.782       28.725      859.879
07/22/2013  00:58:00     -177.745      -58.125       -8.994       83.931       58.968       45.945     7044.431     3477.199     2110.976        2.384        0.632      187.007       40.535        0.047      348.741       28.656      859.889
07/22/2013  00:59:00     -158.592      -45.535      -12.353       82.222       59.525       40.703     6760.384     3543.281     1656.715        1.967        0.598      165.000       43.875        0.071      348.696       28.580      859.888
07/22/2013  01:00:00     -163.067      -26.487      -26.395       55.136       48.831       29.043     3040.011     2384.482      843.472        1.713        0.313      165.204       20.156        0.015      348.617       28.443      859.900
07/22/2013  01:01:00     -138.905       -1.819      -17.886       48.625       60.900       31.236     2364.421     3708.865      975.695        1.333        0.352      138.917       24.799        0.032      348.492       28.228      859.914
07/22/2013  01:02:00     -136.257      -28.615      -18.235       65.659       46.684       31.250     4311.131     2179.402      976.574        1.359        0.373      139.229       30.352        0.048      348.522       28.277      859.906
07/22/2013  01:03:00     -142.923      -18.928      -17.211       75.069       45.113       40.795     5635.317     2035.158     1664.215        1.521        0.467      144.170       44.008        0.093      348.634       28.474      859.922
07/22/2013  01:04:00     -221.088      -61.398      -16.230      108.998      102.603       40.446    11880.500    10527.398     1635.886        3.847        1.202      229.455       48.649        0.045      348.641       28.481      859.908
07/22/2013  01:05:00     -156.209       -0.013      -17.224       65.082       49.017       28.225     4235.696     2402.629      796.657        1.606        0.372      156.209       23.488        0.023      348.611       28.431      859.896
07/22/2013  01:06:00     -140.275       17.060      -15.110       77.630       45.920       34.230     6026.470     2108.639     1171.697        1.475        0.465      141.309       33.379        0.056      348.454       28.162      859.902
07/22/2013  01:07:00      -93.576      -28.815      -10.374       55.907       47.308       30.291     3125.565     2238.048      917.551        0.799        0.314       97.912       20.344        0.043      348.494       28.230      859.905
07/22/2013  01:08:00     -160.736      -48.181      -13.841       88.705       50.426       36.322     7868.571     2542.781     1319.274        2.004        0.587      167.802       43.156        0.066      348.487       28.216      859.901
07/22/2013  01:09:00     -224.845       19.074      -17.071       68.433       59.934       34.053     4683.085     3592.115     1159.629        3.032        0.472      225.653       33.727        0.022      348.587       28.390      859.911
07/22/2013  01:10:00     -151.122       30.923       -8.807       67.390       70.655       36.708     4541.477     4992.183     1347.473        1.737        0.544      154.253       33.512        0.047      348.608       28.425      859.903
07/22/2013  01:11:00     -172.346       27.194      -19.834       49.838       60.701       31.249     2483.797     3684.580      976.484        1.899        0.357      174.478       31.235        0.032      348.691       28.570      859.895
07/22/2013  01:12:00     -156.624      -32.877      -15.082       77.254       56.226       31.085     5968.229     3161.331      966.259        1.797        0.505      160.038       34.732        0.047      348.597       28.408      859.912
07/22/2013  01:13:00      -68.589       33.980        1.029       35.238       54.894       28.694     1241.724     3013.298      823.323        0.547        0.254       76.545       29.836        0.152      348.501       28.243      859.899
07/22/2013  01:14:00      -78.826        9.135       -6.008       49.007       44.287       23.305     2401.697     1961.325      543.140        0.562        0.245       79.353       18.843        0.056      348.443       28.144      859.889
07/22/2013  01:15:00     -124.980      -39.167        5.277       57.964       52.011       27.120     3359.822     2705.188      735.487        1.199        0.340      130.973       24.603        0.035      348.436       28.131      859.892
07/22/2013  01:16:00     -116.980       15.718      -13.698       55.826       38.835       23.442     3116.523     1508.130      549.540        0.965        0.259      118.031       17.329        0.022      348.469       28.187      859.894
07/22/2013  01:17:00     -104.667      125.498      -15.585       55.549       81.706       39.622     3085.713     6675.874     1569.878        1.914        0.567      163.417       44.524        0.074      348.493       28.228      859.890
07/22/2013  01:18:00      -71.733       16.050       -3.860       54.488       63.294       19.055     2968.989     4006.167      363.077        0.638        0.367       73.507       15.424        0.044      348.357       27.995      859.888
07/22/2013  01:19:00      -44.198      -22.944        1.147       72.031       45.863       29.003     5188.522     2103.435      841.173        0.531        0.407       49.798       23.136        0.216      348.331       27.949      859.887
07/22/2013  01:20:00     -128.430       -8.492      -18.731       42.788       38.089       31.037     1830.803     1450.740      963.275        1.058        0.212      128.711       21.823        0.029      348.378       28.030      859.894
07/22/2013  01:21:00     -103.117      -52.571       -8.067       87.064       43.172       37.442     7580.183     1863.842     1401.922        1.215        0.542      115.745       46.370        0.160      348.369       28.014      859.908
07/22/2013  01:22:00     -145.813      -44.138       -3.024       87.933       45.920       36.275     7732.145     2108.607     1315.910        1.719        0.558      152.347       44.311        0.085      348.446       28.147      859.904
07/22/2013  01:23:00      -87.928       10.190       -6.202       50.804       37.853       28.553     2581.062     1432.872      815.270        0.635        0.241       88.517       20.912        0.056      348.416       28.097      859.895
07/22/2013  01:24:00      -58.835       95.239       -3.436       48.631       60.903       31.359     2365.020     3709.229      983.368        0.980        0.353      111.947       29.603        0.070      348.295       27.887      859.895
07/22/2013  01:25:00     -100.005      103.194      -19.424       57.192       68.720       32.989     3270.981     4722.402     1088.302        1.505        0.454      143.701       35.864        0.062      348.376       28.025      859.911
07/22/2013  01:26:00     -105.571       64.175      -11.299       59.165       59.744       27.687     3500.472     3569.379      766.592        1.161        0.392      123.546       18.175        0.022      348.384       28.039      859.911
07/22/2013  01:27:00      -89.332       63.452        1.701       86.787      126.097       49.243     7532.055    15900.502     2424.855        1.893        1.293      109.574       54.705        0.249      348.356       27.993      859.903
07/22/2013  01:28:00      -86.870       26.756       -1.884       50.694       35.296       38.557     2569.895     1245.774     1486.637        0.678        0.265       90.897       30.433        0.112      348.347       27.977      859.905
07/22/2013  01:29:00     -147.160      119.224      -26.474       86.174       66.104       49.119     7425.945     4369.734     2412.661        2.539        0.710      189.394       42.871        0.051      348.409       28.082      859.911
07/22/2013  01:30:00      -94.068       22.009        0.235       64.138       52.657       35.518     4113.691     2772.731     1261.552        0.874        0.407       96.608       35.290        0.133      348.320       27.930      859.908
07/22/2013  01:31:00      -87.872       49.610      -16.479       52.076       62.841       27.588     2711.947     3948.962      761.085        0.894        0.371      100.909       22.330        0.049      348.356       27.992      859.893
07/22/2013  01:32:00     -120.079        6.683       -7.803       50.462       75.372       34.222     2546.410     5680.916     1171.159        1.196        0.470      120.265       25.184        0.044      348.348       27.980      859.887
07/22/2013  01:33:00     -113.631      166.059      -18.871       76.413       83.474       41.839     5838.885     6967.859     1750.508        2.770        0.728      201.215       41.306        0.042      348.356       27.988      859.877
07/22/2013  01:34:00     -116.252      165.391      -18.851       57.367       77.240       40.183     3290.983     5966.074     1614.685        2.605        0.544      202.160       44.024        0.047      348.373       28.021      859.879
07/22/2013  01:35:00     -116.803       88.819      -21.482       46.428       54.496       31.744     2155.585     2969.854     1007.694        1.406        0.307      146.737       29.794        0.041      348.428       28.115      859.891
07/22/2013  01:36:00     -102.767       67.075      -16.048       53.689       54.032       33.456     2882.559     2919.461     1119.285        1.112        0.346      122.720       30.986        0.064      348.468       28.186      859.880
07/22/2013  01:37:00      -78.021       91.622      -19.264       45.409       37.435       22.372     2061.985     1401.357      500.490        0.941        0.198      120.340       20.716        0.030      348.434       28.126      859.873
07/22/2013  01:38:00      -98.825      114.531      -14.437       49.012       54.368       33.087     2402.140     2955.849     1094.752        1.477        0.323      151.274       28.146        0.035      348.465       28.179      859.875
07/22/2013  01:39:00     -154.054      177.798      -31.631       45.653       91.906       33.123     2084.152     8446.667     1097.102        3.398        0.581      235.255       25.937        0.012      348.419       28.098      859.882
07/22/2013  01:40:00     -148.040      140.044      -34.232       56.253       94.668       40.463     3164.408     8962.101     1637.267        2.823        0.688      203.784       30.374        0.022      348.318       27.922      859.901
07/22/2013  01:41:00     -196.166       47.997       -5.351      131.536       81.469       73.398    17301.798     6637.208     5387.307        3.506        1.466      201.953       62.533        0.096      348.419       28.099      859.915
07/22/2013  01:42:00     -122.810      200.243      -16.858       88.122       95.831       65.468     7765.477     9183.485     4286.103        3.835        1.062      234.903       66.591        0.080      348.570       28.359      859.906
07/22/2013  01:43:00     -127.000      239.345       -5.742      106.551      127.883       76.121    11353.024    16354.073     5794.429        5.347        1.675      270.952       61.540        0.052      348.702       28.588      859.895
07/22/2013  01:44:00     -107.892      128.729      -14.172       62.547      133.144       47.528     3912.108    17727.308     2258.914        2.615        1.195      167.964       29.578        0.031      348.674       28.541      859.893
07/22/2013  01:45:00     -100.205      223.247      -11.781      101.270      119.340       56.281    10255.678    14242.119     3167.549        4.384        1.383      244.705       58.970        0.058      348.808       28.771      859.894
07/22/2013  01:46:00     -130.164       47.340       -9.177       75.137       91.073       47.901     5645.532     8294.206     2294.459        1.775        0.812      138.505       21.858        0.025      348.692       28.573      859.904
07/22/2013  01:47:00      -99.678       67.069       -1.196       56.502       72.631       38.768     3192.497     5275.231     1502.983        1.220        0.499      120.142       27.138        0.051      348.586       28.389      859.920
07/22/2013  01:48:00     -203.321      127.664      -27.037      155.665      125.774       62.730    24231.703    15819.083     3935.042        5.117        2.199      240.078       80.932        0.114      348.726       28.630      859.925
07/22/2013  01:49:00     -244.654      100.696      -34.214      132.316       82.437       51.969    17507.437     6795.804     2700.748        4.908        1.350      264.566       35.907        0.018      348.984       29.076      859.935
07/22/2013  01:50:00     -180.693       47.477      -23.904      110.307      111.234       45.147    12167.608    12373.066     2038.265        3.102        1.329      186.827       34.623        0.034      348.963       29.040      859.932
07/22/2013  01:51:00     -126.762      154.891      -17.536       75.312       85.968       39.450     5671.927     7390.457     1556.316        2.749        0.731      200.149       42.546        0.045      348.939       28.999      859.922
07/22/2013  01:52:00     -217.667      -33.916      -22.689      138.572      103.801       54.972    19202.142    10774.576     3021.915        4.101        1.650      220.294       55.654        0.064      349.063       29.215      859.923
07/22/2013  01:53:00     -286.977      -99.862      -40.131      132.922       83.610       54.034    17668.179     6990.666     2919.643        6.075        1.379      303.856       41.114        0.018      349.185       29.424      859.919
07/22/2013  01:54:00     -152.883      151.961      -20.890       92.536       83.658       43.960     8562.875     6998.715     1932.451        3.219        0.875      215.558       48.228        0.050      348.941       29.004      859.918
07/22/2013  01:55:00     -136.291       72.239      -13.738       60.220       98.391       36.656     3626.434     9680.691     1343.644        1.931        0.733      154.253       43.036        0.078      348.783       28.730      859.913
07/22/2013  01:56:00     -271.096      -20.940      -19.399      129.328      129.606       53.707    16725.709    16797.734     2884.427        5.535        1.820      271.903       45.360        0.028      348.991       29.088      859.900
07/22/2013  01:57:00     -243.333      -71.290      -29.070       78.000       98.464       44.265     6084.060     9695.212     1959.365        4.143        0.887      253.561       37.241        0.022      349.068       29.218      859.927
07/22/2013  01:58:00     -277.916      -54.819      -22.185       95.976       67.161       50.708     9211.400     4510.588     2571.279        4.851        0.815      283.271       36.264        0.016      349.008       29.115      859.944
07/22/2013  01:59:00     -192.830      -38.478       -1.998      104.875       77.952       52.996    10998.840     6076.471     2808.530        2.927        0.994      196.631       47.090        0.057      348.900       28.932      859.937
07/22/2013  02:00:00     -249.082        9.027      -26.268       58.637       79.521       31.312     3438.245     6323.541      980.450        3.678        0.537      249.246       21.862        0.008      348.860       28.858      859.939
07/22/2013  02:01:00     -181.799       -6.138       -6.734       71.442       47.587       33.253     5103.982     2264.476     1105.791        2.080        0.424      181.903       27.858        0.023      348.803       28.765      859.939
07/22/2013  02:02:00     -122.927       27.157      -17.527       81.181       53.254       28.918     6590.302     2836.038      836.224        1.321        0.513      125.891       23.518        0.035      348.779       28.723      859.942
07/22/2013  02:03:00      -40.809      -15.398        4.073       59.250       41.938       28.740     3510.520     1758.779      825.994        0.401        0.305       43.617       29.923        0.471      348.667       28.530      859.947
07/22/2013  02:04:00     -217.421      -57.969      -17.360      160.516       65.515       33.236    25765.290     4292.190     1104.664        4.104        1.558      225.016       50.838        0.051      348.806       28.769      859.959
07/22/2013  02:05:00     -170.521       -0.848      -23.023       79.135       70.917       36.168     6262.294     5029.206     1308.151        2.110        0.630      170.524       31.453        0.034      348.899       28.931      859.970
07/22/2013  02:06:00     -112.654       15.614      -11.256       51.832       59.140       29.121     2686.606     3497.526      848.050        1.005        0.352      113.731       24.729        0.047      348.763       28.697      859.976
07/22/2013  02:07:00     -192.876      -25.163      -19.855      107.845       77.173       35.291    11630.593     5955.742     1245.486        2.853        0.942      194.511       43.108        0.049      348.705       28.592      859.991
07/22/2013  02:08:00     -104.505       27.610       -0.805       56.949       54.097       36.400     3243.228     2926.456     1324.984        0.959        0.375      108.091       32.327        0.089      348.707       28.600      859.983
07/22/2013  02:09:00     -121.665       31.976       -6.932       59.671       45.720       28.214     3560.609     2090.350      796.024        1.116        0.322      125.797       28.068        0.050      348.712       28.608      860.001
07/22/2013  02:10:00     -115.397      100.198      -17.625       79.788       77.671       43.982     6366.191     6032.850     1934.454        1.900        0.717      152.827       44.030        0.083      348.651       28.499      859.999
07/22/2013  02:11:00     -157.891       53.392      -26.497       93.535       58.780       42.714     8748.809     3455.051     1824.524        2.125        0.701      166.674       48.261        0.084      348.746       28.664      860.000
07/22/2013  02:12:00     -126.662       96.508      -11.464       70.377       90.376       41.785     4952.924     8167.739     1745.985        2.017        0.743      159.239       28.414        0.032      348.688       28.563      860.010
07/22/2013  02:13:00     -116.267      -11.882       -2.600       41.045       75.664       31.839     1684.709     5725.040     1013.747        1.104        0.421      116.872       23.288        0.040      348.533       28.300      860.016
07/22/2013  02:14:00     -181.624      -60.787      -18.640       51.851       79.610       43.212     2688.535     6337.735     1867.271        2.396        0.545      191.526       29.810        0.024      348.529       28.289      860.021
07/22/2013  02:15:00     -181.395      -28.422      -23.274       59.391       59.418       40.805     3527.249     3530.446     1665.050        2.149        0.436      183.608       36.415        0.039      348.619       28.445      860.023
07/22/2013  02:16:00      -98.487        0.140        1.578       57.145       58.763       34.635     3265.585     3453.044     1199.587        0.881        0.396       98.487       29.226        0.088      348.505       28.250      860.029
07/22/2013  02:17:00      -81.149       60.347       -5.356       63.549       58.103       29.442     4038.478     3375.930      866.820        0.927        0.414      101.128       27.517        0.074      348.524       28.282      860.028
07/22/2013  02:18:00     -165.851       96.767      -20.801       79.798       98.278       38.822     6367.650     9658.661     1507.145        2.741        0.877      192.017       30.506        0.025      348.713       28.607      860.034
07/22/2013  02:19:00      -50.168       55.080      -10.120       76.277       80.067       35.515     5818.197     6410.706     1261.297        0.957        0.675       74.503       20.822        0.078      348.688       28.567      860.047
07/22/2013  02:20:00        9.187       -4.553       16.312       33.485       13.522       19.159     1121.254      182.845      367.081        0.102        0.084       10.254       12.517        1.490      348.593       28.403      860.046
07/22/2013  02:21:00     -144.664       78.284      -36.326       84.620       56.258       42.126     7160.476     3164.981     1774.630        2.024        0.605      164.487       51.330        0.097      348.792       28.742      860.055
07/22/2013  02:22:00      -82.823       94.020      -11.292       61.124       58.103       33.744     3736.158     3375.945     1138.626        1.204        0.413      125.297       38.520        0.095      348.709       28.602      860.031
07/22/2013  02:23:00     -110.682       94.503      -19.511       35.896       56.311       29.359     1288.502     3170.876      861.938        1.344        0.266      145.538       24.055        0.027      348.642       28.488      860.046
07/22/2013  02:24:00     -144.927      -66.484       -4.674       81.701       60.450       33.460     6675.084     3654.174     1119.588        1.844        0.572      159.449       37.621        0.056      348.485       28.214      860.049
07/22/2013  02:25:00      -26.899       19.312        4.026       24.608       29.133       17.708      605.533      848.712      313.584        0.144        0.088       33.114        9.434        0.081      348.442       28.141      860.042
07/22/2013  02:26:00      -47.382       20.132      -10.664       35.993       27.537       16.759     1295.485      758.311      280.866        0.255        0.117       51.482       11.656        0.051      348.545       28.320      860.055
07/22/2013  02:27:00     -109.423      -24.133      -17.275       51.514       57.421       25.728     2653.729     3297.184      661.944        0.973        0.331      112.052       27.455        0.060      348.524       28.284      860.086
07/22/2013  02:28:00     -104.863      -56.089       -6.561       74.936       44.695       29.571     5615.415     1997.685      874.468        1.133        0.424      118.921       26.078        0.048      348.406       28.079      860.106
07/22/2013  02:29:00     -103.832      -19.839       -2.238       51.183       23.841       28.082     2619.669      568.375      788.604        0.758        0.199      105.710       30.314        0.082      348.291       27.881      860.118
07/22/2013  02:30:00      -97.372      -16.384       -7.501       32.841       33.518       21.832     1078.500     1123.475      476.643        0.624        0.134       98.741       14.677        0.022      348.448       28.152      860.103
07/22/2013  02:31:00      -88.833      -32.393       -9.955       56.636       40.962       22.906     3207.627     1677.902      524.708        0.722        0.271       94.555       21.547        0.052      348.471       28.191      860.097
07/22/2013  02:32:00     -151.552      -49.400      -11.897       61.748       59.065       31.710     3812.842     3488.698     1005.503        1.693        0.415      159.400       29.207        0.034      348.519       28.272      860.151
07/22/2013  02:33:00     -138.905      -23.248       -4.645       46.960       65.883       24.697     2205.274     4340.521      609.918        1.350        0.358      140.837       25.224        0.032      348.423       28.107      860.170
07/22/2013  02:34:00      -66.583      -11.429        7.369       49.502       36.144       23.273     2450.474     1306.396      541.635        0.446        0.215       67.556       23.643        0.122      348.250       27.810      860.201
07/22/2013  02:35:00      -42.123        2.550       -4.330       29.142       38.640       22.680      849.234     1493.013      514.399        0.233        0.143       42.200       20.049        0.226      348.241       27.792      860.199
07/22/2013  02:36:00      -41.517        2.366        0.561       20.434       18.405       14.613      417.552      338.760      213.545        0.135        0.048       41.584       13.122        0.100      348.248       27.804      860.169
07/22/2013  02:37:00      -69.734       -3.621       -3.642       30.385       42.921        9.937      923.266     1842.207       98.753        0.388        0.143       69.828        8.325        0.014      348.235       27.782      860.175
07/22/2013  02:38:00      -90.085      -71.390        9.166       74.595       37.164       28.687     5564.410     1381.198      822.959        1.053        0.388      114.943       39.010        0.115      348.233       27.778      860.185
07/22/2013  02:39:00     -143.827      -64.204       -6.855       74.446       51.096       29.176     5542.258     2610.807      851.222        1.693        0.450      157.507       26.344        0.028      348.194       27.713      860.185
07/22/2013  02:40:00     -239.918      -73.173       -9.821       86.645       61.955       37.143     7507.432     3838.377     1379.586        3.787        0.636      250.829       35.643        0.020      348.378       28.027      860.193
07/22/2013  02:41:00     -170.471      -53.312      -13.443       54.535       31.779       22.002     2974.095     1009.913      484.096        1.827        0.223      178.613       14.372        0.006      348.205       27.728      860.199
07/22/2013  02:42:00     -251.907       -4.996      -27.518       69.095       36.335       35.670     4774.151     1320.204     1272.322        3.580        0.368      251.956       37.765        0.022      348.293       27.879      860.213
07/22/2013  02:43:00     -175.480      -70.333       -3.723       63.147       55.512       29.418     3987.600     3081.612      865.430        2.184        0.397      189.050       26.113        0.019      348.109       27.563      860.225
07/22/2013  02:44:00      -83.098      -58.565        8.959       55.614       50.636       27.113     3092.970     2563.969      735.133        0.840        0.320      101.662       21.596        0.045      348.031       27.432      860.240
07/22/2013  02:45:00     -123.278      -58.804        0.378       47.585       46.255       29.483     2264.318     2139.549      869.256        1.196        0.264      136.585       25.825        0.036      347.969       27.322      860.249
07/22/2013  02:46:00      -96.003      -70.203        2.999       61.495       43.304       27.896     3781.665     1875.222      778.163        1.029        0.322      118.933       25.094        0.045      347.939       27.271      860.253
07/22/2013  02:47:00      -94.846      -45.430        3.053       57.902       44.132       34.624     3352.621     1947.658     1198.787        0.878        0.325      105.165       36.756        0.122      347.919       27.236      860.251
07/22/2013  02:48:00     -139.049      -43.494       -1.846       31.911       23.305       14.397     1018.327      543.132      207.269        1.150        0.088      145.693       13.946        0.009      347.924       27.246      860.237
07/22/2013  02:49:00     -131.523       -8.637      -10.213       28.798       23.097       16.855      829.307      533.465      284.078        0.956        0.082      131.807       14.822        0.013      347.881       27.171      860.218
07/22/2013  02:50:00     -204.457        3.797      -20.679       46.826       30.005       20.923     2192.642      900.326      437.753        2.289        0.177      204.492       23.577        0.013      347.823       27.069      860.220
07/22/2013  02:51:00     -172.256      -16.813      -17.842       82.305       44.329       31.696     6774.135     1965.031     1004.654        2.001        0.487      173.074       42.243        0.060      347.730       26.908      860.224
07/22/2013  02:52:00     -178.509      -23.808       -9.303       61.368       66.868       28.994     3766.011     4471.338      840.674        2.080        0.454      180.089       28.585        0.025      347.690       26.840      860.213
07/22/2013  02:53:00     -205.447       -3.538      -13.388       55.953       52.652       32.395     3130.738     2772.237     1049.418        2.467        0.348      205.478       30.178        0.022      347.737       26.919      860.185
07/22/2013  02:54:00     -207.771        5.581      -25.217       40.153       27.183       21.924     1612.241      738.915      480.682        2.333        0.142      207.846       16.257        0.006      347.818       27.060      860.142
07/22/2013  02:55:00     -184.069      -16.265      -15.278       49.707       65.897       24.237     2470.789     4342.357      587.432        2.089        0.370      184.786       25.012        0.018      347.833       27.087      860.124
07/22/2013  02:56:00     -178.469      -50.832      -18.506       38.573       43.668       25.075     1487.901     1906.877      628.746        1.940        0.201      185.567       16.630        0.008      347.708       26.870      860.119
07/22/2013  02:57:00     -152.388      -37.586       -2.708       72.306       79.181       40.080     5228.169     6269.649     1606.390        1.887        0.655      156.955       37.091        0.056      347.657       26.784      860.116
07/22/2013  02:58:00     -270.053     -113.845      -21.023       80.829       80.388       48.720     6533.319     6462.203     2373.648        5.085        0.768      293.069       49.754        0.029      347.671       26.805      860.104
07/22/2013  02:59:00     -295.331      -66.179      -16.732       90.715       70.418       52.036     8229.292     4958.733     2707.756        5.388        0.795      302.655       48.104        0.025      347.693       26.842      860.109
07/22/2013  03:00:00     -223.353      -69.090       -9.355      106.750      115.225       49.251    11395.579    13276.855     2425.630        4.092        1.355      233.795       41.597        0.032      347.682       26.824      860.113
07/22/2013  03:01:00     -333.616        6.376      -35.273      157.098      103.668       62.528    24679.686    10747.153     3909.754        7.595        1.967      333.677       75.813        0.052      347.753       26.947      860.108
07/22/2013  03:02:00     -341.052      -99.994      -26.290      113.688      136.033       56.673    12924.876    18504.956     3211.825        8.082        1.732      355.408       49.377        0.019      347.799       27.027      860.104
07/22/2013  03:03:00     -321.618      -85.181      -19.637      100.076      135.798       53.885    10015.111    18440.990     2903.624        7.121        1.568      332.707       39.424        0.014      347.956       27.296      860.109
07/22/2013  03:04:00     -293.091      -90.784      -16.840      143.199       82.633       45.378    20506.059     6828.228     2059.198        6.190        1.470      306.829       50.038        0.027      347.908       27.214      860.121
07/22/2013  03:05:00     -324.748      -76.953       -9.585      134.845       93.935       54.821    18183.277     8823.753     3005.295        7.074        1.501      333.741       56.945        0.029      347.950       27.286      860.138
07/22/2013  03:06:00     -362.131      -87.527      -22.220      141.927      150.833       73.298    20143.140    22750.468     5372.666        9.377        2.413      372.558       67.719        0.033      347.947       27.283      860.143
07/22/2013  03:07:00     -343.054     -162.132      -16.269      120.432       97.982       60.727    14503.844     9600.452     3687.735        8.601        1.390      379.437       46.065        0.015      347.958       27.301      860.156
07/22/2013  03:08:00     -270.247        3.234      -21.431       89.557       88.759       54.960     8020.415     7878.177     3020.593        4.621        0.946      270.266       49.504        0.034      347.937       27.264      860.148
07/22/2013  03:09:00     -333.220      -77.948      -23.576      110.217      116.598       57.790    12147.745    13595.163     3339.683        7.337        1.454      342.216       56.287        0.027      347.872       27.153      860.169
07/22/2013  03:10:00     -368.884      -41.004      -32.997      128.270       89.623       67.260    16453.176     8032.278     4523.897        8.392        1.450      371.156       72.546        0.038      347.897       27.195      860.188
07/22/2013  03:11:00     -283.565      -89.958      -19.119      170.085      116.018       61.852    28928.912    13460.231     3825.714        6.753        2.311      297.492       60.832        0.042      347.885       27.175      860.169
07/22/2013  03:12:00     -307.425      -57.777      -22.329      142.041      104.290       61.188    20175.627    10876.301     3743.975        6.656        1.740      312.807       61.580        0.039      347.957       27.298      860.160
07/22/2013  03:13:00     -241.426      -80.904      -11.246      155.314      118.901       62.984    24122.493    14137.374     3966.989        5.358        2.111      254.621       59.212        0.054      347.913       27.224      860.158
07/22/2013  03:14:00     -293.949     -135.888      -11.959      175.361      122.521       80.541    30751.648    15011.310     6486.914        7.862        2.612      323.839       89.820        0.077      347.890       27.185      860.146
07/22/2013  03:15:00     -294.362       -4.913      -21.353      102.085      123.881       63.444    10421.351    15346.550     4025.142        5.846        1.490      294.403       48.900        0.028      347.935       27.260      860.145
07/22/2013  03:16:00     -321.854      -96.108      -12.456      141.826      100.334       55.704    20114.741    10066.845     3102.961        7.313        1.664      335.897       66.248        0.039      347.930       27.252      860.152
07/22/2013  03:17:00     -265.229      -44.403      -30.589       80.635      103.281       51.823     6502.071    10666.921     2685.600        4.655        0.993      268.920       47.152        0.031      347.967       27.318      860.127
07/22/2013  03:18:00     -288.137      -63.812      -17.165      103.659       82.788       45.709    10745.251     6853.803     2089.316        5.354        0.984      295.118       43.486        0.022      347.954       27.293      860.149
07/22/2013  03:19:00     -168.584      -34.803       -7.663       94.834       84.154       51.643     8993.405     7081.857     2667.019        2.421        0.937      172.139       49.202        0.082      347.886       27.180      860.162
07/22/2013  03:20:00     -341.129      -51.665      -20.744      129.490      108.443       65.660    16767.765    11759.826     4311.207        7.615        1.642      345.019       62.429        0.033      347.968       27.318      860.139
07/22/2013  03:21:00     -274.003      -52.321      -22.344      124.343      112.405       52.581    15461.231    12634.807     2764.766        5.458        1.543      278.954       43.629        0.024      347.972       27.324      860.135
07/22/2013  03:22:00     -132.813      -18.670      -13.678      161.028       75.333       46.867    25929.860     5675.040     2196.548        2.598        1.690      134.119       72.479        0.292      347.922       27.241      860.150
07/22/2013  03:23:00     -146.170       44.405      -16.561      103.474      141.321       62.557    10706.955    19971.738     3913.424        2.909        1.730      152.766       75.029        0.241      347.792       27.015      860.166
07/22/2013  03:24:00     -212.423      233.584      -30.476      121.100      166.711       67.008    14665.280    27792.551     4490.054        7.377        2.347      315.730       51.678        0.027      347.839       27.097      860.167
07/22/2013  03:25:00     -152.771       62.318      -29.892       52.211       68.590       34.476     2725.953     4704.561     1188.603        1.837        0.431      164.993       27.030        0.027      347.753       26.949      860.181
07/22/2013  03:26:00      -97.694       93.796      -28.805      116.236       99.807       57.626    13510.809     9961.361     3320.705        2.298        1.340      135.432       54.901        0.164      347.881       27.170      860.133
07/22/2013  03:27:00     -293.962      -32.213      -14.776      221.571      138.514       61.374    49093.829    19185.998     3766.720        7.984        3.602      295.722       62.827        0.045      347.758       26.957      860.153
07/22/2013  03:28:00     -326.185      -57.297       -0.675      180.202      145.360       57.554    32472.812    21129.660     3312.426        8.329        2.846      331.179       71.705        0.047      347.785       27.000      860.182
07/22/2013  03:29:00     -177.752      -72.680      -20.379       68.079       95.218       40.099     4634.797     9066.530     1607.934        2.630        0.765      192.037       31.089        0.026      347.741       26.927      860.208
07/22/2013  03:30:00     -176.143      -64.959      -20.154       55.828       48.869       27.540     3116.812     2388.188      758.466        2.096        0.313      187.739       27.415        0.021      347.748       26.941      860.185
07/22/2013  03:31:00     -363.347      -51.803      -25.006      220.774      131.446       81.367    48741.261    17277.980     6620.515       10.397        3.632      367.022      103.205        0.079      347.855       27.124      860.218
07/22/2013  03:32:00     -301.592      -13.011      -29.592      108.861      108.177       45.707    11850.760    11702.266     2089.143        5.882        1.282      301.872       44.750        0.022      347.911       27.218      860.207
07/22/2013  03:33:00     -215.393      -22.171        1.314      102.115       84.892       49.668    10427.388     7206.622     2466.914        3.349        1.005      216.531       32.403        0.022      347.718       26.888      860.228
07/22/2013  03:34:00     -283.096      -52.234        4.152      164.285      136.303       73.347    26989.622    18578.436     5379.782        6.691        2.547      287.875       76.397        0.070      347.751       26.946      860.249
07/22/2013  03:35:00     -116.103       19.971       -2.693      102.992       88.779       43.576    10607.268     7881.680     1898.835        1.713        1.019      117.808       40.476        0.118      347.807       27.043      860.238
07/22/2013  03:36:00      -81.812      -68.758       -9.305      139.289       99.435       44.082    19401.533     9887.277     1943.181        2.136        1.562      106.868       58.773        0.302      347.838       27.094      860.226
07/22/2013  03:37:00     -180.525      -67.938       -1.810      115.195       77.466       45.001    13270.001     6001.049     2025.086        2.925        1.065      192.885       55.706        0.083      347.822       27.067      860.231
07/22/2013  03:38:00      -95.430      -40.322        0.223       81.723       60.655       30.701     6678.662     3678.995      942.543        1.101        0.565      103.599       32.519        0.099      347.785       27.005      860.231
07/22/2013  03:39:00     -159.542       24.612      -23.282       61.344       72.244       43.239     3763.077     5219.178     1869.648        1.872        0.543      161.429       39.631        0.060      347.757       26.955      860.234
07/22/2013  03:40:00      -53.424        1.204        4.866       46.996       67.737       31.885     2208.670     4588.254     1016.634        0.534        0.391       53.437       28.769        0.290      347.677       26.820      860.241
07/22/2013  03:41:00     -148.274      -46.702      -15.899       47.269       60.029       30.303     2234.388     3603.468      918.290        1.559        0.338      155.455       29.327        0.036      347.670       26.806      860.288
07/22/2013  03:42:00     -182.302      -13.691      -12.948       82.088       67.202       30.950     6738.404     4516.144      957.918        2.290        0.611      182.815       34.229        0.035      347.643       26.759      860.328
07/22/2013  03:43:00     -131.717       72.555      -19.555       47.666       52.282       29.673     2272.014     2733.406      880.462        1.444        0.294      150.378       17.686        0.014      347.716       26.886      860.304
07/22/2013  03:44:00     -239.148       36.604      -29.517      109.913       97.257       49.187    12080.926     9458.957     2419.373        4.168        1.198      241.933       36.977        0.023      347.727       26.902      860.302
07/22/2013  03:45:00     -176.079       75.009      -25.486       49.944       61.000       37.199     2494.425     3721.020     1383.777        2.244        0.380      191.390       24.317        0.016      347.583       26.655      860.346
07/22/2013  03:46:00      -58.771       24.193        0.858       66.457       64.273       39.122     4416.575     4131.032     1530.549        0.706        0.504       63.556       24.694        0.151      347.505       26.524      860.368
07/22/2013  03:47:00      -75.442       96.121      -16.428       56.095       65.363       34.561     3146.651     4272.289     1194.485        1.191        0.431      122.192       37.283        0.093      347.461       26.447      860.339
07/22/2013  03:48:00     -212.815       41.093      -22.869       96.670       62.192       42.692     9345.083     3867.784     1822.564        3.127        0.752      216.746       40.653        0.035      347.489       26.492      860.347
07/22/2013  03:49:00     -155.514       35.026      -19.414      101.026       78.232       56.130    10206.243     6120.242     3150.605        2.263        0.974      159.409       50.607        0.101      347.445       26.417      860.363
07/22/2013  03:50:00      -66.426       -2.322        4.852       72.410       53.173       40.521     5243.233     2827.320     1641.965        0.707        0.486       66.467       42.124        0.402      347.423       26.380      860.323
07/22/2013  03:51:00     -178.235      129.825      -37.216       89.208      132.411       44.019     7958.156    17532.598     1937.672        3.871        1.371      220.505       51.203        0.054      347.580       26.649      860.294
07/22/2013  03:52:00     -256.949      -75.023      -20.162      121.413       93.359       54.105    14741.215     8715.877     2927.377        4.922        1.319      267.677       42.990        0.026      347.510       26.527      860.333
07/22/2013  03:53:00     -228.215      -47.079       -1.944      120.165       95.520       56.119    14439.624     9124.091     3149.384        4.050        1.336      233.021       45.106        0.037      347.496       26.504      860.349
07/22/2013  03:54:00     -134.804       29.911      -16.245       68.918       72.999       46.966     4749.677     5328.784     2205.841        1.581        0.614      138.083       38.139        0.076      347.479       26.477      860.375
07/22/2013  03:55:00     -121.816      160.224      -14.541       78.203       85.719       57.751     6115.641     7347.727     3335.123        2.876        0.840      201.273       47.244        0.055      347.440       26.408      860.343
07/22/2013  03:56:00     -163.974      111.433      -22.433       71.401      108.307       47.556     5098.168    11730.497     2261.584        2.945        0.955      198.254       42.138        0.045      347.592       26.670      860.303
07/22/2013  03:57:00     -234.168      -65.816      -18.031       98.791      133.530       60.160     9759.728    17830.330     3619.213        4.534        1.560      243.241       44.685        0.034      347.467       26.452      860.327
07/22/2013  03:58:00     -166.093      -19.568       -6.605      107.619       89.350       44.751    11581.812     7983.369     2002.689        2.479        1.078      167.242       45.911        0.075      347.538       26.579      860.346
07/22/2013  03:59:00     -110.315       10.404      -29.251       65.168       58.531       31.268     4246.883     3425.904      977.668        1.089        0.433      110.804       31.687        0.082      347.517       26.542      860.356
07/22/2013  04:00:00     -207.265      -59.144      -11.148       58.350       61.969       35.446     3404.711     3840.198     1256.411        2.754        0.425      215.539       28.701        0.018      347.455       26.434      860.392
07/22/2013  04:01:00     -187.068      -81.494      -13.713       81.352       57.363       45.953     6618.164     3290.523     2111.681        2.692        0.601      204.048       48.065        0.055      347.422       26.376      860.415
07/22/2013  04:02:00     -175.552      -24.521      -14.125       55.849       50.768       34.875     3119.080     2577.343     1216.254        1.926        0.346      177.257       28.424        0.026      347.425       26.384      860.430
07/22/2013  04:03:00     -165.585       92.959      -24.454       49.357       64.780       49.104     2436.115     4196.421     2411.168        2.285        0.452      189.894       36.781        0.038      347.382       26.308      860.466
07/22/2013  04:04:00     -163.532       98.557      -23.879       55.978       47.115       34.903     3133.574     2219.823     1218.234        2.180        0.329      190.935       23.608        0.015      347.341       26.238      860.448
07/22/2013  04:05:00     -180.448       95.342      -17.679       93.122       83.435       37.589     8671.690     6961.347     1412.970        2.950        0.852      204.087       34.470        0.029      347.430       26.392      860.454
07/22/2013  04:06:00      -66.930       38.063        5.687       61.918       81.065       40.422     3833.834     6571.482     1633.956        0.900        0.602       76.996       40.757        0.280      347.347       26.249      860.464
07/22/2013  04:07:00     -118.256      177.067      -21.232       90.433       91.966       50.788     8178.149     8457.742     2579.437        3.250        0.961      212.925       60.545        0.081      347.546       26.590      860.422
07/22/2013  04:08:00     -160.165       86.931      -19.879      100.853       75.136       42.991    10171.370     5645.445     1848.239        2.563        0.883      182.236       42.192        0.054      347.542       26.585      860.424
07/22/2013  04:09:00     -101.873        7.529       -6.023       57.557       64.103       30.388     3312.841     4109.147      923.417        0.941        0.417      102.151       21.339        0.044      347.402       26.345      860.471
07/22/2013  04:10:00     -188.838      -48.696      -11.820       41.566       67.292       32.177     1727.717     4528.190     1035.375        2.273        0.365      195.015       15.982        0.007      347.444       26.417      860.497
07/22/2013  04:11:00     -205.552        3.451      -16.447      105.760       92.211       39.101    11185.099     8502.823     1528.908        3.187        1.061      205.581       40.704        0.039      347.455       26.434      860.491
07/22/2013  04:12:00      -90.150       88.991      -14.710       58.313       42.756       30.798     3400.365     1828.116      948.515        1.122        0.309      126.674       26.478        0.044      347.452       26.430      860.479
07/22/2013  04:13:00      -75.414       34.151      -13.389       26.227       23.857       14.703      687.881      569.164      216.181        0.425        0.074       82.786        7.787        0.009      347.335       26.231      860.504
07/22/2013  04:14:00     -148.797      -18.443      -14.926       42.101       33.531       21.760     1772.453     1124.336      473.481        1.304        0.169      149.935       15.896        0.011      347.293       26.157      860.542
07/22/2013  04:15:00     -112.900       14.147      -16.124       64.674       44.376       24.844     4182.739     1969.194      617.235        0.999        0.338      113.783       22.440        0.039      347.384       26.314      860.527
07/22/2013  04:16:00     -127.236       75.754      -19.914       57.872       76.401       34.335     3349.154     5837.062     1178.897        1.634        0.518      148.080       35.767        0.058      347.523       26.552      860.469
07/22/2013  04:17:00     -153.497       74.198      -19.303      103.579       69.105       40.237    10728.523     4775.547     1619.021        2.328        0.856      170.490       45.133        0.070      347.421       26.376      860.484
07/22/2013  04:18:00     -110.015       14.107       -5.452       74.719       48.781       32.566     5582.859     2379.558     1060.564        1.068        0.451      110.916       36.508        0.108      347.440       26.411      860.505
07/22/2013  04:19:00     -108.869      -21.216        5.064       95.630       55.073       34.240     9145.097     3033.088     1172.379        1.284        0.668      110.917       46.171        0.173      347.316       26.195      860.460
07/22/2013  04:20:00     -185.687      -41.737       -0.534       68.778       64.329       36.440     4730.448     4138.223     1327.871        2.321        0.510      190.319       34.255        0.032      347.402       26.343      860.489
07/22/2013  04:21:00     -177.730       13.766       -2.313      109.644       88.230       54.464    12021.842     7784.454     2966.381        2.727        1.139      178.263       57.954        0.106      347.304       26.174      860.521
07/22/2013  04:22:00     -129.814      -36.564       -7.322      129.310       83.945       50.957    16721.113     7046.750     2596.610        2.230        1.318      134.865       62.590        0.215      347.446       26.420      860.521
07/22/2013  04:23:00      -24.709       90.718       12.543       42.335       69.359       37.880     1792.227     4810.636     1434.905        0.852        0.402       94.023       33.132        0.124      347.398       26.338      860.452
07/22/2013  04:24:00     -255.908       44.058      -32.269      157.262       90.635       58.672    24731.390     8214.715     3442.350        5.242        1.819      259.673       78.150        0.091      347.479       26.476      860.469
07/22/2013  04:25:00     -233.665      -12.539      -18.034      131.773      111.821       50.736    17364.197    12503.929     2574.101        4.376        1.622      234.001       59.071        0.064      347.329       26.216      860.495
07/22/2013  04:26:00     -286.317       28.197      -31.476       93.309       49.954       31.579     8706.520     2495.417      997.228        4.798        0.610      287.702       35.317        0.015      347.446       26.416      860.497
07/22/2013  04:27:00     -120.609       12.912        4.710       50.610       81.517       40.599     2561.415     6644.964     1648.280        1.279        0.543      121.298       32.856        0.073      347.291       26.154      860.490
07/22/2013  04:28:00     -118.028       55.705       -1.793       78.131       95.865       51.627     6104.477     9190.033     2665.369        1.749        0.898      130.513       50.100        0.147      347.352       26.257      860.501
07/22/2013  04:29:00     -118.115       63.273      -16.753       55.454       56.808       39.043     3075.096     3227.117     1524.324        1.303        0.391      133.995       29.830        0.050      347.288       26.149      860.507
07/22/2013  04:30:00     -147.868      -42.894      -13.426       72.696       90.225       41.805     5284.711     8140.560     1747.635        1.953        0.759      153.963       40.997        0.071      347.258       26.095      860.523
07/22/2013  04:31:00     -184.347        0.833      -13.588       55.539      120.699       43.566     3084.616    14568.201     1898.023        2.686        0.978      184.349       17.523        0.009      347.141       25.893      860.538
07/22/2013  04:32:00     -162.131       33.986      -11.326       62.135       92.847       42.826     3860.759     8620.602     1834.042        2.094        0.716      165.654       37.250        0.051      347.021       25.687      860.560
07/22/2013  04:33:00     -156.903        8.233      -21.245       96.619       88.946       51.491     9335.256     7911.440     2651.310        2.251        0.995      157.119       47.165        0.090      346.975       25.608      860.591
07/22/2013  04:34:00     -193.598      -39.691      -30.406       94.058       74.438       37.111     8846.951     5540.944     1377.231        2.787        0.788      197.624       33.732        0.029      347.004       25.657      860.618
07/22/2013  04:35:00     -150.145       50.925      -10.477       86.095       86.052       51.887     7412.430     7404.966     2692.294        2.137        0.875      158.546       50.129        0.100      347.058       25.751      860.615
07/22/2013  04:36:00     -174.838        9.808      -19.666       65.871       52.747       37.971     4338.932     2782.224     1441.798        1.981        0.428      175.112       35.209        0.040      347.096       25.816      860.629
07/22/2013  04:37:00     -128.045      -21.794      -27.513       61.730       52.593       34.876     3810.560     2766.020     1216.318        1.271        0.390      129.887       29.577        0.052      347.077       25.784      860.664
07/22/2013  04:38:00     -104.329      138.665      -28.579       73.705       68.654       34.709     5432.424     4713.440     1204.686        2.114        0.568      173.530       31.431        0.033      347.111       25.843      860.673
07/22/2013  04:39:00     -135.132      164.007      -20.272       61.982      128.165       45.578     3841.733    16426.265     2077.374        3.395        1.117      212.506       31.688        0.022      347.202       25.998      860.636
07/22/2013  04:40:00     -184.770       57.436      -21.270       57.462       92.674       43.470     3301.924     8588.562     1889.631        2.583        0.689      193.491       35.800        0.034      347.279       26.131      860.638
07/22/2013  04:41:00     -276.353      -59.476      -27.984      127.100       98.622       61.617    16154.308     9726.282     3796.712        5.518        1.484      282.680       63.181        0.050      347.296       26.160      860.673
07/22/2013  04:42:00     -302.149       27.897      -30.925      145.506       79.295       50.397    21172.052     6287.732     2539.892        6.151        1.500      303.434       46.383        0.023      347.313       26.188      860.710
07/22/2013  04:43:00     -289.838      103.345      -37.990      125.958      130.043       59.162    15865.444    16911.096     3500.160        6.620        1.814      307.711       59.203        0.037      347.437       26.401      860.690
07/22/2013  04:44:00      -99.821      158.983      -14.673      100.552       98.094       58.478    10110.771     9622.404     3419.624        2.930        1.158      187.723       59.687        0.101      347.344       26.241      860.614
07/22/2013  04:45:00     -237.872      -79.666       -3.904      148.469      121.271       70.451    22043.086    14706.701     4963.340        5.232        2.086      250.858       64.107        0.065      347.331       26.220      860.657
07/22/2013  04:46:00     -397.579       23.794      -34.716      158.264      161.007       59.534    25047.648    25923.263     3544.327       10.717        2.726      398.290       64.286        0.026      347.384       26.311      860.705
07/22/2013  04:47:00     -290.505      -41.682      -34.830      131.520       99.695       59.036    17297.514     9939.147     3485.291        5.903        1.536      293.480       55.246        0.035      347.376       26.296      860.716
07/22/2013  04:48:00     -227.613      -77.585       -2.584      106.734      113.940       60.098    11392.157    12982.330     3611.783        4.290        1.399      240.473       64.298        0.071      347.334       26.225      860.734
07/22/2013  04:49:00     -215.897      -54.654       -8.533      126.574       95.793       59.157    16021.040     9176.345     3499.596        3.918        1.435      222.708       71.489        0.103      347.355       26.262      860.762
07/22/2013  04:50:00     -154.402      -86.493       -6.929      163.916       80.874       74.927    26868.385     6540.620     5614.080        3.519        1.951      176.978       87.362        0.244      347.384       26.312      860.770
07/22/2013  04:51:00     -144.212       14.595      -24.766      119.995      126.154       47.936    14398.722    15914.856     2297.840        2.711        1.631      144.949       40.866        0.079      347.311       26.189      860.809
07/22/2013  04:52:00     -116.327       90.722      -12.599       65.132      109.277       50.017     4242.238    11941.435     2501.723        2.030        0.934      147.521       38.548        0.068      347.251       26.083      860.835
07/22/2013  04:53:00     -157.571      128.078      -28.657      104.842      136.170       57.049    10991.854    18542.257     3254.541        3.741        1.639      203.058       48.100        0.056      347.291       26.153      860.840
07/22/2013  04:54:00     -150.819       73.418      -11.723      123.787      151.111       56.564    15323.295    22834.387     3199.542        3.481        2.068      167.739       47.524        0.080      347.261       26.102      860.848
07/22/2013  04:55:00     -380.967      -96.973      -29.625      129.686       94.352       67.157    16818.383     8902.265     4510.011        9.282        1.512      393.115       63.635        0.026      347.272       26.117      860.903
07/22/2013  04:56:00     -281.036       29.073      -38.820      130.772      113.320       62.711    17101.429    12841.440     3932.702        5.760        1.694      282.536       66.567        0.056      347.335       26.226      860.915
07/22/2013  04:57:00     -117.462       10.220      -12.097       98.977       70.007       36.062     9796.495     4900.963     1300.440        1.502        0.800      117.906       35.764        0.092      347.292       26.154      860.893
07/22/2013  04:58:00     -113.344       48.540      -11.438       91.627       49.067       48.099     8395.419     2407.547     2313.485        1.422        0.656      123.300       50.595        0.168      347.262       26.104      860.900
07/22/2013  04:59:00      -97.504      -28.522      -29.530       63.537       55.358       33.705     4037.009     3064.495     1136.007        0.971        0.412      101.590       21.397        0.044      347.297       26.163      860.914
07/22/2013  05:00:00     -199.734      -23.865        2.263      118.744      121.777       51.746    14100.106    14829.689     2677.616        3.603        1.580      201.155       56.393        0.079      347.185       25.968      860.936
07/22/2013  05:01:00     -249.124      -62.054      -16.671      102.805       83.725       59.867    10568.832     7009.828     3584.108        4.367        1.058      256.736       63.078        0.060      347.199       25.991      860.958
07/22/2013  05:02:00      -88.483      -28.686        6.581       85.353       77.446       50.744     7285.102     5997.950     2574.924        1.227        0.793       93.017       44.391        0.228      347.229       26.047      860.987
07/22/2013  05:03:00     -132.436       99.317       -9.692       86.521       89.186       42.307     7485.915     7954.080     1789.863        2.236        0.861      165.539       18.393        0.012      347.201       25.997      860.996
07/22/2013  05:04:00     -111.653      182.639      -27.045       56.223       76.561       43.052     3160.983     5861.569     1853.439        2.871        0.544      214.065       30.180        0.020      347.240       26.064      860.967
07/22/2013  05:05:00     -105.256       98.187      -13.171       50.077       77.594       31.715     2507.710     6020.787     1005.848        1.521        0.477      143.943       21.579        0.022      347.152       25.913      860.990
07/22/2013  05:06:00     -151.877       83.317      -15.113       79.818       62.905       37.060     6370.879     3957.093     1373.439        2.097        0.585      173.229       39.959        0.053      347.035       25.711      861.033
07/22/2013  05:07:00     -166.241      256.834      -38.137       99.603      101.566       56.526     9920.700    10315.638     3195.183        5.924        1.172      305.941       59.278        0.038      347.230       26.045      861.055
07/22/2013  05:08:00     -191.216      283.023      -44.141       72.595       84.044       46.764     5270.084     7063.453     2186.899        6.656        0.726      341.564       40.561        0.014      347.195       25.984      861.060
07/22/2013  05:09:00      -88.383      224.516      -21.555       68.555       65.024       44.623     4699.837     4228.082     1991.203        3.480        0.546      241.286       40.034        0.028      347.029       25.697      861.045
07/22/2013  05:10:00      -93.084      183.628      -26.645       67.430       76.124       44.603     4546.866     5794.935     1989.463        2.771        0.617      205.873       42.261        0.042      347.071       25.772      861.058
07/22/2013  05:11:00     -120.366      135.245      -13.723       58.989      114.311       50.327     3479.736    13067.044     2532.791        2.602        0.954      181.050       47.281        0.068      347.086       25.797      861.087
07/22/2013  05:12:00     -128.449       77.975      -17.029       46.240       62.544       36.132     2138.128     3911.739     1305.531        1.511        0.368      150.264       14.835        0.010      347.104       25.832      861.073
07/22/2013  05:13:00      -89.253       51.690      -15.449       44.721       71.160       29.416     1999.970     5063.757      865.277        0.940        0.396      103.140       31.754        0.095      347.152       25.914      861.081
07/22/2013  05:14:00     -191.868       35.583      -16.764      102.197      129.792       60.815    10444.146    16845.940     3698.475        3.467        1.549      195.140       55.165        0.080      347.228       26.041      861.071
07/22/2013  05:15:00     -312.562      -49.908      -27.035      109.427       95.953       53.531    11974.192     9206.969     2865.593        6.248        1.202      316.522       53.074        0.028      347.154       25.914      861.078
07/22/2013  05:16:00     -321.404     -101.337      -38.818       88.085       88.841       53.112     7759.023     7892.704     2820.921        6.677        0.924      337.001       39.647        0.014      347.124       25.860      861.086
07/22/2013  05:17:00     -224.682      -94.884      -23.551      159.165       87.457       61.722    25333.445     7648.814     3809.567        4.841        1.840      243.895       75.385        0.096      347.087       25.798      861.090
07/22/2013  05:18:00     -209.262      -88.084       -3.768      120.355       86.032       56.233    14485.310     7401.575     3162.101        3.830        1.252      227.045       59.674        0.069      347.122       25.859      861.086
07/22/2013  05:19:00      -92.720       19.168       -6.554       80.902       72.507       44.452     6545.076     5257.324     1975.969        1.139        0.689       94.680       41.780        0.195      347.086       25.800      861.120
07/22/2013  05:20:00     -129.160       88.207      -29.682       59.627      115.065       35.042     3555.376    13239.981     1227.949        2.168        0.901      156.406       30.071        0.037      347.098       25.819      861.125
07/22/2013  05:21:00     -147.019      196.754      -27.167       69.159       79.291       46.148     4782.924     6287.038     2129.677        3.713        0.660      245.615       43.352        0.031      346.977       25.610      861.111
07/22/2013  05:22:00     -116.154      172.047      -12.512       66.817       79.955       44.456     4464.497     6392.764     1976.364        2.804        0.642      207.586       39.704        0.037      346.934       25.535      861.121
07/22/2013  05:23:00      -96.462       66.771      -13.548       49.184       78.291       33.738     2419.019     6129.552     1138.259        1.181        0.484      117.317       27.521        0.055      346.934       25.539      861.131
07/22/2013  05:24:00     -173.886      152.333      -28.460      104.779       87.336       61.379    10978.739     7627.629     3767.336        3.831        1.119      231.174       60.729        0.069      347.012       25.670      861.145
07/22/2013  05:25:00     -171.028        5.108      -15.313       93.409      120.577       52.810     8725.244    14538.721     2788.875        2.778        1.303      171.104       45.852        0.072      347.005       25.658      861.154
07/22/2013  05:26:00     -171.464      -62.309      -10.318       87.337      101.077       61.591     7627.747    10216.496     3793.416        2.751        1.082      182.434       56.781        0.097      347.080       25.788      861.154
07/22/2013  05:27:00     -213.674      -34.001      -29.584       93.805       71.885       50.075     8799.418     5167.450     2507.482        3.208        0.824      216.362       28.273        0.017      347.192       25.981      861.163
07/22/2013  05:28:00      -94.355        7.082      -14.167       51.816       75.969       35.421     2684.928     5771.260     1254.615        0.943        0.486       94.621       35.080        0.137      347.148       25.907      861.139
07/22/2013  05:29:00     -236.851      -51.512       -9.823      125.251       97.410       51.494    15687.763     9488.791     2651.583        4.333        1.391      242.388       42.968        0.031      347.165       25.935      861.158
07/22/2013  05:30:00     -195.590      -88.201      -15.942       74.032       79.650       53.165     5480.695     6344.056     2826.514        3.047        0.733      214.558       47.007        0.048      347.229       26.044      861.180
07/22/2013  05:31:00     -270.447        8.928      -45.365      108.282       87.367       53.264    11724.966     7632.996     2837.041        4.873        1.110      270.594       51.019        0.036      347.362       26.273      861.200
07/22/2013  05:32:00     -144.887       -7.507       -7.554       79.985       62.177       43.553     6397.565     3866.003     1896.849        1.663        0.608      145.081       43.820        0.091      347.313       26.191      861.201
07/22/2013  05:33:00     -185.118        5.775      -28.337       63.550       66.667       33.668     4038.591     4444.467     1133.554        2.236        0.481      185.208       25.420        0.019      347.347       26.249      861.214
07/22/2013  05:34:00      -99.288       12.809        3.113       72.110       90.059       51.231     5199.786     8110.614     2624.624        1.298        0.797      100.111       37.927        0.144      347.269       26.114      861.229
07/22/2013  05:35:00     -141.666       84.884      -18.436       77.208       63.303       38.056     5961.072     4007.330     1448.245        1.951        0.571      165.150       26.718        0.026      347.256       26.092      861.252
07/22/2013  05:36:00     -104.163      162.218      -11.641       61.339      130.775       49.088     3762.486    17102.120     2409.593        3.028        1.164      192.782       36.719        0.036      347.233       26.052      861.267
07/22/2013  05:37:00     -131.645      191.311      -30.314       99.398       72.268       48.868     9879.876     5222.694     2388.035        3.617        0.875      232.229       45.702        0.039      347.049       25.734      861.286
07/22/2013  05:38:00     -160.082      189.236      -31.142       62.332       73.386       38.289     3885.223     5385.534     1466.015        3.657        0.537      247.864       33.962        0.019      346.849       25.389      861.292
07/22/2013  05:39:00     -110.983      112.843      -15.039       61.055       71.033       38.995     3727.698     5045.750     1520.636        1.778        0.515      158.274       34.586        0.048      346.793       25.295      861.307
07/22/2013  05:40:00     -175.453      102.210      -35.353       50.392       59.706       36.164     2539.305     3564.837     1307.854        2.494        0.371      203.053       26.958        0.018      346.798       25.302      861.326
07/22/2013  05:41:00     -270.584        7.547      -27.547       79.385      104.521       38.805     6301.936    10924.617     1505.849        4.638        0.937      270.689       28.824        0.011      346.862       25.411      861.321
07/22/2013  05:42:00     -202.288       99.415      -37.251       70.708       81.161       46.806     4999.637     6587.118     2190.765        3.298        0.689      225.397       47.686        0.045      346.899       25.476      861.339
07/22/2013  05:43:00     -119.798       76.273      -21.463       59.246       46.430       40.091     3510.087     2155.733     1607.253        1.395        0.364      142.018       32.438        0.052      346.804       25.313      861.323
07/22/2013  05:44:00     -130.732      274.521      -36.582       77.911       91.150       39.961     6070.105     8308.338     1596.888        5.488        0.799      304.060       37.060        0.015      346.757       25.231      861.330
07/22/2013  05:45:00      -70.298      160.977      -19.945       75.446      101.820       34.311     5692.062    10367.373     1177.275        2.424        0.862      175.657       36.785        0.044      346.769       25.254      861.312
07/22/2013  05:46:00     -158.730      184.052      -37.167       60.964       61.235       43.726     3716.579     3749.685     1911.941        3.491        0.469      243.044       36.431        0.022      346.742       25.204      861.325
07/22/2013  05:47:00     -138.605      179.197      -36.753       54.502       57.907       42.573     2970.461     3353.183     1812.482        3.040        0.407      226.546       36.999        0.027      346.696       25.125      861.331
07/22/2013  05:48:00      -95.264      174.544      -31.627       76.541       69.181       41.420     5858.541     4786.013     1715.619        2.645        0.618      198.849       34.621        0.030      346.634       25.019      861.330
07/22/2013  05:49:00     -152.435      175.378      -28.272       78.529       87.550       39.833     6166.787     7664.940     1586.646        3.510        0.771      232.365       39.296        0.029      346.622       24.998      861.348
07/22/2013  05:50:00     -146.816      188.408      -29.226       75.472       85.296       48.361     5696.040     7275.444     2338.742        3.661        0.766      238.856       38.232        0.026      346.648       25.043      861.366
07/22/2013  05:51:00      -81.184      174.718      -24.618       77.811       82.650       37.335     6054.587     6831.080     1393.869        2.600        0.714      192.658       35.434        0.034      346.672       25.086      861.354
07/22/2013  05:52:00      -53.210      237.468      -29.475       53.884       75.635       36.654     2903.487     5720.700     1343.483        3.503        0.498      243.356       33.980        0.019      346.674       25.088      861.345
07/22/2013  05:53:00      -99.889      120.246       -9.022       69.007      104.440       44.495     4761.940    10907.704     1979.825        2.108        0.882      156.323       49.622        0.101      346.513       24.814      861.362
07/22/2013  05:54:00     -123.442      207.097      -24.882       55.237       70.672       39.193     3051.179     4994.531     1536.079        3.416        0.479      241.096       33.734        0.020      346.536       24.850      861.385
07/22/2013  05:55:00      -76.237      235.566      -25.827       56.150       58.131       38.047     3152.769     3379.258     1447.575        3.497        0.399      247.595       29.261        0.014      346.647       25.039      861.394
07/22/2013  05:56:00      -85.935      206.371      -12.557       85.691      107.097       60.951     7343.003    11469.668     3715.069        3.633        1.126      223.548       71.589        0.103      346.627       25.007      861.389
07/22/2013  05:57:00      -69.976      219.649      -30.741       62.513       61.426       38.713     3907.933     3773.213     1498.670        3.163        0.459      230.526       21.464        0.009      346.660       25.064      861.381
07/22/2013  05:58:00      -78.314      223.998      -23.713       58.002       76.804       36.449     3364.270     5898.906     1328.552        3.373        0.530      237.293       36.499        0.024      346.726       25.179      861.394
07/22/2013  05:59:00      -96.497      158.721      -28.337       57.028       75.744       36.372     3252.151     5737.111     1322.901        2.281        0.516      185.752        9.715        0.003      346.742       25.207      861.401
07/22/2013  06:00:00     -187.381      148.755      -28.029       77.188       80.925       46.442     5958.051     6548.887     2156.884        3.634        0.733      239.248       39.489        0.027      346.687       25.110      861.446
07/22/2013  06:01:00     -214.401      229.933      -46.636       84.711      115.542       50.989     7175.930    13349.996     2599.850        6.206        1.156      314.384       61.488        0.038      346.672       25.084      861.466
07/22/2013  06:02:00      -84.750      154.797      -20.268       77.073       68.346       39.468     5940.301     4671.140     1557.758        2.186        0.608      176.479       41.761        0.056      346.699       25.133      861.460
07/22/2013  06:03:00      -98.101      125.370      -19.084       58.995       68.714       40.755     3480.402     4721.567     1660.937        1.778        0.493      159.189       27.581        0.030      346.701       25.136      861.463
07/22/2013  06:04:00     -118.828       68.977      -21.369       48.285       61.985       35.897     2331.429     3842.115     1288.630        1.340        0.373      137.397       30.911        0.051      346.735       25.195      861.483
07/22/2013  06:05:00     -152.294       42.552      -24.772       53.927       39.246       30.416     2908.156     1540.210      925.123        1.549        0.269      158.127       21.030        0.018      346.678       25.095      861.511
07/22/2013  06:06:00     -119.055      166.759      -27.179       68.676       61.191       41.273     4716.350     3744.318     1703.475        2.644        0.508      204.896       40.788        0.040      346.612       24.982      861.517
07/22/2013  06:07:00     -145.570      101.124      -24.008       51.927       65.836       31.173     2696.406     4334.367      971.775        2.000        0.400      177.248       31.431        0.031      346.664       25.071      861.529
07/22/2013  06:08:00     -160.600       57.373      -23.811       53.205       32.551       24.668     2830.725     1059.572      608.521        1.707        0.225      170.541       19.827        0.014      346.616       24.990      861.544
07/22/2013  06:09:00      -99.044      121.955      -18.042       67.222       90.989       43.108     4518.803     8278.950     1858.309        1.983        0.733      157.107       42.501        0.073      346.669       25.081      861.542
07/22/2013  06:10:00     -108.070      106.330      -15.689       73.440       61.831       41.135     5393.438     3823.122     1692.088        1.707        0.545      151.609       47.941        0.100      346.602       24.965      861.524
07/22/2013  06:11:00     -146.831       96.098      -26.768       66.288       56.271       33.281     4394.147     3166.407     1107.610        2.009        0.433      175.483       29.789        0.029      346.655       25.057      861.520
07/22/2013  06:12:00     -166.692      137.420      -31.016       67.656       75.025       34.879     4577.283     5628.783     1216.552        2.953        0.571      216.034       39.137        0.033      346.635       25.020      861.501
07/22/2013  06:13:00      -97.862       79.478      -11.869       49.157       49.108       27.544     2416.378     2411.611      758.691        1.081        0.279      126.071       28.076        0.050      346.605       24.972      861.474
07/22/2013  06:14:00     -134.228      -41.852      -17.109       50.057       49.971       30.310     2505.728     2497.129      918.674        1.299        0.296      140.601       27.466        0.038      346.606       24.975      861.472
07/22/2013  06:15:00     -154.412      -52.383       -7.357       53.184       62.515       28.887     2828.494     3908.090      834.435        1.710        0.379      163.055       25.273        0.024      346.551       24.879      861.502
07/22/2013  06:16:00      -73.957       20.449       10.824       89.400       51.238       36.662     7992.307     2625.302     1344.079        0.898        0.598       76.732       49.227        0.412      346.648       25.046      861.494
07/22/2013  06:17:00     -138.794      186.598      -31.948       81.613       83.737       43.588     6660.688     7011.942     1899.924        3.533        0.779      232.556       46.654        0.040      346.833       25.361      861.497
07/22/2013  06:18:00      -78.391      187.847      -21.768       63.510       64.028       37.456     4033.555     4099.563     1402.931        2.572        0.477      203.548       35.900        0.031      346.777       25.267      861.498
07/22/2013  06:19:00      -38.869      292.318      -27.104       50.233       88.216       37.643     2523.331     7782.093     1416.996        4.971        0.586      294.891       36.543        0.015      346.800       25.304      861.485
07/22/2013  06:20:00      -72.610      154.501      -19.221       48.478       64.748       37.481     2350.120     4192.322     1404.860        1.873        0.397      170.713       35.724        0.044      346.839       25.373      861.501
07/22/2013  06:21:00      -96.142       23.639       -8.625       57.778       42.465       29.159     3338.320     1803.245      850.273        0.793        0.300       99.005       21.231        0.046      346.765       25.249      861.537
07/22/2013  06:22:00      -75.720       30.190      -15.627       62.648       56.378       42.165     3924.718     3178.455     1777.908        0.788        0.444       81.516       41.228        0.256      346.808       25.324      861.552
07/22/2013  06:23:00      -58.637       43.222      -12.889       30.817       49.060       27.714      949.688     2406.853      768.090        0.480        0.206       72.846       21.728        0.089      346.761       25.243      861.556
07/22/2013  06:24:00      -57.916       95.555       -6.857       43.042       53.091       22.124     1852.585     2818.664      489.483        0.885        0.258      111.737       22.994        0.042      346.697       25.131      861.557
07/22/2013  06:25:00      -76.833      102.415      -21.715       37.676       55.817       29.674     1419.458     3115.560      880.529        1.114        0.271      128.031       27.518        0.046      346.837       25.372      861.566
07/22/2013  06:26:00      -77.411       95.278       -7.030       50.303       38.307       30.466     2530.354     1467.456      928.193        1.002        0.246      122.762       30.598        0.062      346.843       25.382      861.582
07/22/2013  06:27:00      -63.653      143.573       -8.044       49.415       68.556       28.639     2441.871     4699.909      820.177        1.634        0.398      157.051       29.322        0.035      346.892       25.465      861.589
07/22/2013  06:28:00      -40.508       58.196        7.676       33.461       30.547       24.637     1119.658      933.095      607.003        0.387        0.133       70.906       22.826        0.104      346.827       25.355      861.599
07/22/2013  06:29:00      -50.249       88.424       -6.322       41.691       78.647       24.562     1738.155     6185.419      603.291        0.945        0.426      101.705       37.355        0.135      346.899       25.479      861.598
07/22/2013  06:30:00      -95.491       43.543       -5.314       48.432       44.361       29.939     2345.693     1967.902      896.340        0.813        0.260      104.950       26.598        0.064      346.994       25.643      861.595
07/22/2013  06:31:00      -97.689       29.519       -3.965       50.934       38.392       27.484     2594.259     1473.914      755.362        0.763        0.241      102.052       15.202        0.022      346.859       25.410      861.603
07/22/2013  06:32:00      -52.729      -24.046        0.611       38.033       31.109       26.075     1446.526      967.769      679.903        0.323        0.155       57.953       19.285        0.111      346.842       25.381      861.610
07/22/2013  06:33:00       12.401        9.527       26.914       45.930       20.855       33.224     2109.523      434.922     1103.825        0.231        0.182       15.638       30.012        3.683      346.831       25.362      861.609
07/22/2013  06:34:00       -3.968      -21.190        1.032       13.036       19.201       11.455      169.934      368.661      131.222        0.057        0.033       21.558        5.195        0.058      346.596       24.957      861.619
07/22/2013  06:35:00        4.234       -1.566       21.243       23.705       26.361       16.441      561.904      694.882      270.304        0.100        0.076        4.514       15.515       11.811      346.831       25.362      861.636
07/22/2013  06:36:00      -22.707        0.065       -5.588       41.833       40.394       31.637     1750.007     1631.687     1000.897        0.246        0.219       22.707       12.947        0.325      346.931       25.534      861.658
07/22/2013  06:37:00       -1.707      -49.535        5.292       35.534       25.011       25.602     1262.679      625.564      655.443        0.251        0.127       49.564       20.779        0.176      346.946       25.560      861.681
07/22/2013  06:38:00      -14.769      -36.633       -5.595       27.402       17.778       20.119      750.894      316.040      404.791        0.153        0.074       39.498       14.934        0.143      346.941       25.551      861.691
07/22/2013  06:39:00        2.382       -9.037       26.888       22.331       14.242       16.276      498.683      202.828      264.899        0.089        0.048        9.346       15.522        2.758      347.104       25.831      861.717
07/22/2013  06:40:00       13.706       -9.668       25.772       25.519       45.326       29.938      651.226     2054.482      896.256        0.227        0.180       16.773       25.538        2.318      346.831       25.361      861.725
07/22/2013  06:41:00        9.443      -13.837       42.574       32.944       49.665       29.291     1085.276     2466.590      857.947        0.325        0.220       16.753       22.784        1.850      346.772       25.258      861.726
07/22/2013  06:42:00       14.072       -1.217       23.787       31.998       32.177       29.289     1023.889     1035.385      857.830        0.184        0.146       14.124       18.882        1.787      346.782       25.277      861.743
07/22/2013  06:43:00        9.812      -18.523       18.363       28.837       51.032       28.395      831.566     2604.292      806.286        0.251        0.212       20.962       29.858        2.029      346.899       25.479      861.751
07/22/2013  06:44:00       77.991     -135.629      -29.992       45.649       52.033       26.442     2083.875     2707.454      699.189        1.543        0.275      156.454       15.138        0.009      346.987       25.630      861.756
07/22/2013  06:45:00       61.578     -153.122      -41.127       47.634       61.209       30.191     2268.990     3746.583      911.513        1.793        0.346      165.040       22.348        0.018      346.951       25.567      861.770
07/22/2013  06:46:00      -16.537      -87.111        8.034       43.405       66.651       20.552     1883.997     4442.296      422.382        0.734        0.337       88.667       20.290        0.052      346.770       25.255      861.804
07/22/2013  06:47:00       14.819      -99.874       12.045       45.755       52.741       54.937     2093.521     2781.657     3018.031        0.911        0.395      100.967       36.880        0.133      346.572       24.916      861.787
07/22/2013  06:48:00       74.890     -129.778      -21.042       52.974       60.005       45.532     2806.261     3600.637     2073.169        1.569        0.424      149.837       31.681        0.045      346.456       24.715      861.775
07/22/2013  06:49:00      100.087     -107.672      -25.220       59.716       66.930       41.533     3565.945     4479.591     1724.971        1.601        0.489      147.005       36.584        0.062      346.365       24.559      861.758
07/22/2013  06:50:00      133.009     -144.753      -24.625       44.269       47.445       30.841     1959.710     2251.042      951.148        2.221        0.258      196.583       17.141        0.008      346.466       24.730      861.765
07/22/2013  06:51:00       84.591      -88.573      -29.235       54.612       59.387       40.129     2982.494     3526.853     1610.314        1.199        0.406      122.478       37.156        0.092      346.529       24.842      861.770
07/22/2013  06:52:00       42.040     -106.519        8.567       55.548       72.021       45.037     3085.553     5186.997     2028.306        1.174        0.515      114.514       44.524        0.151      346.531       24.845      861.786
07/22/2013  06:53:00       47.045      -61.171       21.945       55.789       72.814       49.925     3112.366     5301.845     2492.474        0.867        0.545       77.170       45.899        0.354      346.646       25.044      861.819
07/22/2013  06:54:00       49.444      -30.172       20.741       50.843       57.173       50.828     2584.986     3268.794     2583.503        0.611        0.422       57.923       42.371        0.535      346.569       24.911      861.813
07/22/2013  06:55:00       48.141      -11.454       35.326       51.693       45.411       40.329     2672.125     2062.197     1626.397        0.503        0.318       49.485       35.768        0.522      346.465       24.732      861.838
07/22/2013  06:56:00       19.236       12.805       66.079       36.473       68.578       29.491     1330.287     4702.886      869.737        0.590        0.345       23.108       22.282        0.930      346.538       24.858      861.837
07/22/2013  06:57:00       22.378      -15.211       36.895       34.385       48.595       40.984     1182.316     2361.520     1679.726        0.366        0.261       27.059       33.663        1.548      346.549       24.877      861.846
07/22/2013  06:58:00       21.456       -7.046       31.487       30.647       58.914       33.060      939.217     3470.813     1092.936        0.350        0.275       22.583       29.781        1.739      346.487       24.771      861.861
07/22/2013  06:59:00       26.851        7.484       20.801       32.197       53.697       33.159     1036.619     2883.420     1099.548        0.311        0.251       27.875       34.844        1.563      346.606       24.973      861.880
07/22/2013  07:00:00       56.053      -55.586        7.055       45.082       47.107       33.133     2032.418     2219.101     1097.819        0.581        0.267       78.941       20.644        0.068      346.443       24.694      861.880
07/22/2013  07:01:00       92.142      -74.505       -2.643       42.566       45.902       39.061     1811.852     2107.023     1525.760        0.975        0.272      118.495       24.540        0.043      346.511       24.811      861.873
07/22/2013  07:02:00       98.462      -85.956       -5.116       47.583       49.726       37.357     2264.099     2472.721     1395.528        1.162        0.307      130.702       31.685        0.059      346.622       25.002      861.874
07/22/2013  07:03:00      115.525      -96.127      -13.639       60.349       44.638       38.881     3642.053     1992.520     1511.713        1.496        0.357      150.288       32.596        0.047      346.478       24.755      861.879
07/22/2013  07:04:00       37.745      -37.020       17.406       46.282       51.987       44.937     2141.981     2702.689     2019.314        0.498        0.343       52.869       24.343        0.212      346.755       25.230      861.884
07/22/2013  07:05:00       36.192      -26.561       12.201       48.226       59.761       53.834     2325.721     3571.395     2898.098        0.548        0.440       44.893       33.769        0.566      346.786       25.284      861.883
07/22/2013  07:06:00       32.199      -59.549       29.846       54.157       71.187       56.270     2933.008     5067.605     3166.282        0.832        0.558       67.697       46.507        0.472      346.776       25.267      861.878
07/22/2013  07:07:00       74.827      -66.030       -0.653       76.251       79.967       52.322     5814.139     6394.642     2737.552        1.245        0.747       99.795       55.208        0.306      346.840       25.375      861.881
07/22/2013  07:08:00       37.694      -35.978        9.709       50.715       68.713       39.987     2572.011     4721.538     1598.956        0.585        0.445       52.108       35.284        0.458      346.847       25.389      861.886
07/22/2013  07:09:00       38.753      -33.342       35.281       48.074       60.460       42.423     2311.128     3655.367     1799.740        0.581        0.388       51.122       31.940        0.390      346.514       24.815      861.872
07/22/2013  07:10:00       40.682      -46.829       12.935       64.112       69.490       46.346     4110.333     4828.896     2147.960        0.755        0.554       62.032       41.586        0.449      346.535       24.851      861.863
07/22/2013  07:11:00       61.310      -34.108       27.660       63.882       74.141       47.867     4080.950     5496.902     2291.260        0.878        0.593       70.159       35.107        0.250      346.700       25.136      861.883
07/22/2013  07:12:00       86.729     -146.324      -18.185       42.626       37.158       32.367     1816.950     1380.730     1047.639        1.675        0.212      170.096       23.366        0.019      346.569       24.911      861.921
07/22/2013  07:13:00       91.913      -77.489       -9.190       51.127       65.936       42.505     2613.931     4347.567     1806.716        1.165        0.438      120.218       43.529        0.131      346.787       25.286      861.956
07/22/2013  07:14:00       43.873      -23.309       24.096       44.363       43.770       37.244     1968.036     1915.825     1387.080        0.416        0.264       49.681       29.823        0.360      346.639       25.031      861.963
07/22/2013  07:15:00       44.117      -41.407       17.914       39.688       41.266       41.794     1575.127     1702.886     1746.749        0.450        0.251       60.505       35.540        0.345      346.497       24.788      861.963
07/22/2013  07:16:00       37.018      -46.029       25.802       38.749       48.629       34.911     1501.476     2364.747     1218.779        0.462        0.254       59.068       33.858        0.329      346.462       24.726      861.963
07/22/2013  07:17:00       37.857      -40.640       17.100       45.606       39.292       35.517     2079.936     1543.889     1261.424        0.413        0.244       55.541       16.099        0.084      346.403       24.627      861.971
07/22/2013  07:18:00       38.291      -39.596       14.812       36.313       51.942       27.404     1318.614     2697.929      750.961        0.401        0.238       55.082       18.034        0.107      346.486       24.768      861.978
07/22/2013  07:19:00       16.053      -10.619       20.011       22.494       59.056       22.599      505.987     3487.556      510.713        0.264        0.225       19.248       21.369        1.233      346.806       25.319      861.990
07/22/2013  07:20:00       61.444      -70.620       -8.505       37.858       54.847       29.767     1433.246     3008.211      886.069        0.708        0.266       93.608       25.814        0.076      346.826       25.353      862.017
07/22/2013  07:21:00       31.391       -4.806       23.394       31.385       34.641       30.101      985.012     1199.992      906.069        0.232        0.155       31.757       29.822        0.882      346.954       25.575      862.027
07/22/2013  07:22:00       11.550        8.939       21.271       28.218       32.204       20.697      796.283     1037.110      428.373        0.146        0.113       14.605       16.467        1.271      346.734       25.194      862.038
07/22/2013  07:23:00       26.391       21.916       20.479       34.723       24.040       17.590     1205.654      577.924      309.399        0.184        0.105       34.304       14.606        0.181      347.115       25.852      862.043
07/22/2013  07:24:00       62.271       31.429        9.241       17.390       29.122       26.256      302.395      848.097      689.384        0.339        0.092       69.753       14.060        0.041      346.829       25.358      862.043
07/22/2013  07:25:00      153.141       98.498       35.931       55.756       33.992       31.195     3108.689     1155.427      973.159        1.984        0.262      182.083       14.829        0.007      346.843       25.380      862.008
07/22/2013  07:26:00       45.240       80.345       80.050       74.519       61.940       32.008     5553.126     3836.595     1024.544        1.266        0.521       92.206       23.802        0.067      346.892       25.465      861.993
07/22/2013  07:27:00      -12.554      -61.712       12.200       38.743       66.198       37.842     1501.047     4382.162     1432.044        0.571        0.366       62.976       41.684        0.438      346.584       24.936      862.034
07/22/2013  07:28:00       28.869      -45.781        7.583       24.061       26.151       19.547      578.930      683.871      382.091        0.232        0.082       54.123       15.343        0.080      346.772       25.260      862.051
07/22/2013  07:29:00        2.809       25.077       49.779       19.891       39.792       25.854      395.658     1583.435      668.409        0.288        0.132       25.234       21.031        0.695      347.216       26.024      862.041
07/22/2013  07:30:00        3.564       13.538       43.472       25.938       30.081       26.181      672.776      904.845      685.427        0.217        0.113       14.000       15.146        1.170      347.188       25.976      862.041
07/22/2013  07:31:00       14.448       35.413       36.707       33.537       27.231       24.363     1124.746      741.504      593.535        0.263        0.123       38.247       11.986        0.098      347.247       26.078      862.050
07/22/2013  07:32:00       71.257       31.116       41.147       58.019       43.013       36.542     3366.249     1850.157     1335.318        0.714        0.328       77.755       29.688        0.146      347.139       25.893      862.061
07/22/2013  07:33:00       33.148      -33.819       29.206       48.887       59.910       43.614     2389.970     3589.178     1902.151        0.549        0.394       47.356       48.847        1.064      346.989       25.633      862.084
07/22/2013  07:34:00       52.507     -110.755        3.120       42.021       42.126       32.391     1765.749     1774.600     1049.201        0.981        0.229      122.571       26.069        0.045      346.827       25.354      862.114
07/22/2013  07:35:00       52.642      -84.391       -4.641       49.533       37.371       25.181     2453.557     1396.594      634.059        0.720        0.224       99.464       15.281        0.024      346.875       25.439      862.133
07/22/2013  07:36:00       -9.580       -2.726       17.979       20.581       31.347       30.794      423.567      982.625      948.248        0.139        0.118        9.960       14.091        2.001      347.190       25.981      862.130
07/22/2013  07:37:00       63.399       46.220       47.406       41.886       27.522       40.006     1754.477      757.469     1600.485        0.626        0.206       78.459       10.499        0.018      346.945       25.559      862.137
07/22/2013  07:38:00       17.084       11.302       13.638       34.691       43.511       27.018     1203.468     1893.247      729.994        0.222        0.191       20.484       13.045        0.406      347.287       26.147      862.136
07/22/2013  07:39:00       29.552       -5.940       24.887       38.950       52.547       33.121     1517.139     2761.190     1097.017        0.345        0.269       30.143       41.467        1.892      347.202       26.001      862.133
07/22/2013  07:40:00       46.774      -50.506       -5.639       49.583       54.361       38.444     2458.435     2955.072     1477.957        0.583        0.345       68.838       43.518        0.400      346.761       25.242      862.130
07/22/2013  07:41:00       31.971      -84.388        0.509       36.709       29.819       23.482     1347.540      889.145      551.410        0.547        0.139       90.241       13.573        0.023      347.068       25.770      862.152
07/22/2013  07:42:00       24.830      -29.869       12.962       28.644       60.197       37.834      820.464     3623.694     1431.391        0.377        0.294       38.842       40.963        1.112      347.234       26.054      862.147
07/22/2013  07:43:00        5.370       14.576       34.758       35.423       45.769       31.017     1254.794     2094.830      962.085        0.288        0.216       15.534       28.803        3.438      347.297       26.165      862.141
07/22/2013  07:44:00        9.333       14.258       51.146       29.161       38.011       27.336      850.335     1444.857      747.241        0.297        0.152       17.041       23.682        1.931      347.554       26.608      862.116
07/22/2013  07:45:00       42.505      -63.100       14.873       37.033       75.342       38.945     1371.437     5676.351     1516.739        0.729        0.428       76.081       47.024        0.382      347.370       26.290      862.122
07/22/2013  07:46:00       58.912     -115.991        1.276       37.050       45.264       30.739     1372.686     2048.828      944.861        1.065        0.218      130.095       23.843        0.034      347.148       25.909      862.137
07/22/2013  07:47:00       97.755      -54.252        0.608       40.071       32.688       34.133     1605.703     1068.502     1165.076        0.817        0.192      111.800       31.072        0.077      346.934       25.541      862.152
07/22/2013  07:48:00       40.410      -55.458        2.039       31.126       39.735       29.561      968.804     1578.843      873.848        0.407        0.171       68.618       23.077        0.113      346.857       25.406      862.173
07/22/2013  07:49:00       27.787      -23.487       25.717       32.824       28.015       34.502     1077.390      784.846     1190.414        0.252        0.153       36.383       17.431        0.230      347.080       25.790      862.173
07/22/2013  07:50:00       38.004       30.783       34.062       24.687       27.435       19.679      609.460      752.694      387.253        0.265        0.087       48.907        9.918        0.041      347.277       26.129      862.168
07/22/2013  07:51:00       55.372       54.934       44.588       53.062       55.549       39.240     2815.613     3085.676     1539.748        0.775        0.372       77.999       20.562        0.069      347.320       26.204      862.135
07/22/2013  07:52:00       31.061       54.736       77.783       45.160       58.819       39.500     2039.455     3459.729     1560.260        0.853        0.353       62.935       36.275        0.332      347.386       26.318      862.117
07/22/2013  07:53:00       23.832      -33.476       24.083       32.980       88.657       36.473     1087.694     7860.112     1330.299        0.627        0.514       41.093       48.335        1.384      347.439       26.409      862.145
07/22/2013  07:54:00       19.214      -70.319       14.110       32.423       60.212       33.528     1051.262     3625.431     1124.159        0.566        0.290       72.897       38.144        0.274      347.680       26.826      862.173
07/22/2013  07:55:00       -0.571      -25.682       17.063       12.112       18.700       21.858      146.698      349.703      477.763        0.096        0.049       25.689       13.719        0.285      347.855       27.127      862.190
07/22/2013  07:56:00      -11.767      -20.015       10.492       18.786       27.448       22.872      352.911      753.404      523.128        0.114        0.081       23.218       20.626        0.789      347.890       27.189      862.204
07/22/2013  07:57:00       -7.391      -24.678       20.953       21.233       22.340       16.264      450.825      499.059      264.534        0.116        0.061       25.761        8.005        0.097      347.911       27.222      862.203
07/22/2013  07:58:00      -14.577      -35.679       17.230       22.450       42.805       29.473      504.000     1832.268      868.642        0.249        0.160       38.542       31.014        0.648      347.890       27.189      862.214
07/22/2013  07:59:00       -7.555      -41.115       19.813       26.207       23.387       22.838      686.799      546.960      521.590        0.195        0.088       41.803       13.538        0.105      347.777       26.992      862.223
07/22/2013  08:00:00        3.715        7.761       34.751       23.377       36.972       27.134      546.486     1366.953      736.242        0.197        0.132        8.604       27.438       10.169      347.961       27.310      862.224
07/22/2013  08:01:00       -5.157       26.529       58.299       17.050       32.136       15.776      290.696     1032.711      248.876        0.285        0.079       27.025       10.163        0.141      348.062       27.485      862.227
07/22/2013  08:02:00       -2.699        4.362       11.312       30.763       22.644       24.734      946.370      512.740      611.784        0.111        0.104        5.130       20.970       16.711      347.775       26.988      862.237
07/22/2013  08:03:00       -4.421      -13.316       21.867       17.193       14.867       14.110      295.584      221.028      199.094        0.070        0.036       14.031        9.564        0.465      348.350       27.983      862.244
07/22/2013  08:04:00        4.505       11.286       17.875       23.883       21.157       24.010      570.388      447.598      576.503        0.103        0.080       12.152       13.017        1.147      347.950       27.292      862.240
07/22/2013  08:05:00       21.933       -9.155        3.435       23.870       25.494       28.878      569.754      649.920      833.964        0.131        0.103       23.767       18.876        0.631      347.664       26.799      862.255
07/22/2013  08:06:00        5.622      -42.651       16.428       21.060       25.541       21.819      443.510      652.350      476.057        0.185        0.079       43.020       10.922        0.064      347.499       26.514      862.266
07/22/2013  08:07:00       14.294        6.317       32.030       20.012       26.679       20.668      400.496      711.749      427.151        0.140        0.077       15.628        8.351        0.286      347.986       27.355      862.267
07/22/2013  08:08:00       11.179       -3.613       36.106       17.136       27.447       22.775      293.634      753.323      518.682        0.150        0.078       11.748       13.067        1.237      348.169       27.670      862.278
07/22/2013  08:09:00       17.933      -67.589        9.124       24.817       39.229       25.448      615.889     1538.889      647.585        0.389        0.140       69.928       14.089        0.041      347.898       27.201      862.289
07/22/2013  08:10:00        9.799      -20.174       23.587       27.277       54.883       40.623      744.036     3012.164     1650.191        0.323        0.270       22.428       37.810        2.842      347.933       27.262      862.296
07/22/2013  08:11:00       24.125      -18.025       36.966       46.501       72.643       45.881     2162.388     5276.951     2105.064        0.591        0.477       30.115       53.046        3.103      347.770       26.980      862.296
07/22/2013  08:12:00       10.292      -21.848       38.464       27.133       41.955       31.454      736.188     1760.228      989.340        0.277        0.174       24.151       27.933        1.338      347.953       27.294      862.292
07/22/2013  08:13:00       32.880      -62.483       10.033       39.331       58.839       39.831     1546.946     3462.066     1586.536        0.584        0.330       70.606       32.004        0.205      347.814       27.057      862.279
07/22/2013  08:14:00       42.426      -87.538        3.810       41.910       53.158       40.865     1756.484     2825.819     1669.936        0.786        0.313       97.277       30.680        0.099      347.737       26.923      862.280
07/22/2013  08:15:00       11.878      -34.217       24.997       36.385       27.116       30.908     1323.834      735.287      955.305        0.247        0.151       36.220       19.807        0.299      347.933       27.262      862.279
07/22/2013  08:16:00       -1.236      -35.792       20.730       15.385       18.308       24.067      236.683      335.174      579.197        0.143        0.058       35.813       14.068        0.154      347.709       26.874      862.290
07/22/2013  08:17:00       -4.992       -8.045       25.563       28.642       25.466       17.307      820.360      648.533      299.525        0.126        0.088        9.468       15.512        2.684      348.255       27.819      862.296
07/22/2013  08:18:00      -19.518      -16.899       11.685       32.907       27.068       18.925     1082.877      732.681      358.166        0.149        0.109       25.817       20.470        0.629      348.155       27.646      862.306
07/22/2013  08:19:00      -74.943      -82.235       -4.451       22.770       27.874       18.224      518.478      776.978      332.108        0.701        0.081      111.261       12.236        0.012      347.516       26.542      862.316
07/22/2013  08:20:00      -54.699      -41.817       -6.874       13.348       23.274       13.597      178.177      541.685      184.880        0.285        0.045       68.852        9.223        0.018      347.578       26.650      862.319
07/22/2013  08:21:00      -44.401      -14.861       -4.541       11.752       11.986       10.488      138.109      143.656      109.998        0.130        0.020       46.822        9.838        0.044      347.635       26.748      862.316
07/22/2013  08:22:00      -15.824        8.134       -4.617       12.553       10.494       10.407      157.588      110.130      108.309        0.036        0.019       17.792        6.518        0.134      347.760       26.964      862.327
07/22/2013  08:23:00       -2.576      -16.628       20.387       17.282       25.555       18.873      298.684      653.046      356.200        0.100        0.065       16.826       20.805        1.529      348.057       27.475      862.317
07/22/2013  08:24:00       21.575       11.175       35.278       33.826       35.139       26.898     1144.173     1234.739      723.495        0.247        0.155       24.298       26.202        1.163      348.068       27.495      862.320
07/22/2013  08:25:00       13.169       33.952       48.033       21.584       33.388       18.690      465.856     1114.779      349.300        0.278        0.096       36.416       14.690        0.163      348.159       27.652      862.309
07/22/2013  08:26:00       24.793       13.323       20.781       26.444       28.706       21.246      699.287      824.012      451.372        0.160        0.099       28.146       15.843        0.317      348.020       27.412      862.321
07/22/2013  08:27:00       12.487       -9.343       16.959       17.836       37.993       32.389      318.111     1443.436     1049.059        0.167        0.141       15.595       30.750        3.888      348.212       27.744      862.324
07/22/2013  08:28:00       22.269      -51.903       -1.542       33.687       31.365       22.505     1134.836      983.740      506.471        0.291        0.131       56.478       17.292        0.094      347.320       26.203      862.321
07/22/2013  08:29:00       10.706       -3.316       17.898       17.439       19.899       24.307      304.111      395.987      590.833        0.087        0.065       11.208       16.445        2.153      348.570       28.363      862.331
07/22/2013  08:30:00       22.517      -17.493        8.792       28.696       40.649       28.670      823.486     1652.310      821.983        0.209        0.165       28.514       26.449        0.860      348.078       27.513      862.327
07/22/2013  08:31:00       16.809       -0.818       17.682       31.341       25.185       27.822      982.280      634.285      774.065        0.149        0.120       16.828       13.508        0.644      348.238       27.789      862.337
07/22/2013  08:32:00       12.645       29.034       44.538       25.868       24.615       19.210      669.131      605.896      369.036        0.231        0.082       31.668       12.374        0.153      348.299       27.894      862.341
07/22/2013  08:33:00       68.737       43.745       34.547       48.277       48.599       27.820     2330.637     2361.847      773.954        0.665        0.273       81.476       21.701        0.071      348.051       27.466      862.352
07/22/2013  08:34:00       43.702       43.613       21.012       28.177       26.800       19.757      793.966      718.244      390.328        0.308        0.095       61.741       12.546        0.041      348.125       27.593      862.353
07/22/2013  08:35:00       26.379       46.976       56.363       33.550       30.421       28.104     1125.570      925.434      789.858        0.446        0.142       53.876       23.853        0.196      348.255       27.818      862.340
07/22/2013  08:36:00       83.911       61.211       35.847       55.059       42.903       35.322     3031.529     1840.691     1247.640        0.910        0.306      103.865       14.807        0.020      348.172       27.674      862.331
07/22/2013  08:37:00        8.479        8.181       24.531       46.866       48.492       31.256     2196.428     2351.479      976.920        0.313        0.276       11.782        9.071        0.593      348.238       27.788      862.316
07/22/2013  08:38:00       29.094       22.794       24.373       49.314       57.112       39.629     2431.876     3261.822     1570.475        0.461        0.363       36.960       22.747        0.379      348.170       27.671      862.309
07/22/2013  08:39:00       64.786       68.510       66.536       43.708       30.735       30.373     1910.350      944.663      922.526        0.855        0.189       94.291        7.126        0.006      347.989       27.358      862.301
07/22/2013  08:40:00       44.387       50.671       56.629       43.422       50.170       36.315     1885.466     2517.022     1318.800        0.673        0.286       67.363       17.857        0.070      348.113       27.573      862.298
07/22/2013  08:41:00       48.044       65.021       74.341       53.078       60.968       34.948     2817.224     3717.040     1221.382        0.991        0.388       80.846       29.943        0.137      348.262       27.829      862.281
07/22/2013  08:42:00       27.664      -88.143       21.475       51.702       53.718       45.532     2673.115     2885.671     2073.133        0.831        0.382       92.383       38.967        0.178      347.750       26.946      862.269
07/22/2013  08:43:00       -1.657      -89.791       32.498       55.349       70.856       44.251     3063.556     5020.531     1958.153        0.958        0.502       89.806       36.607        0.166      347.899       27.202      862.272
07/22/2013  08:44:00      -14.590      -31.790        8.595       36.845       48.874       26.655     1357.578     2388.657      710.465        0.288        0.223       34.978       21.233        0.368      348.215       27.748      862.289
07/22/2013  08:45:00        9.029       19.140       19.715       32.556       27.308       29.602     1059.919      745.714      876.282        0.176        0.134       21.162       28.974        1.874      348.243       27.796      862.294
07/22/2013  08:46:00      -41.885       -4.396        1.129       17.437       17.011       16.322      304.037      289.387      266.407        0.132        0.043       42.115       13.483        0.102      348.139       27.616      862.287
07/22/2013  08:47:00      -33.715        6.769       21.314       24.017       17.087       19.657      576.807      291.982      386.391        0.145        0.063       34.388       16.711        0.236      348.715       28.615      862.293
07/22/2013  08:48:00       11.329      -10.030       31.016       29.262       36.181       23.769      856.283     1309.080      564.952        0.196        0.137       15.130       23.371        2.386      349.091       29.266      862.291
07/22/2013  08:49:00        0.929       11.591       27.746       17.216       21.217       17.560      296.399      450.160      308.362        0.098        0.053       11.628        4.677        0.162      349.072       29.232      862.286
07/22/2013  08:50:00       38.555       38.707       15.145       27.017       23.809       22.943      729.915      566.848      526.375        0.252        0.091       54.632       15.380        0.079      348.597       28.409      862.290
07/22/2013  08:51:00        5.555       -3.849       29.496       24.541       31.281       21.693      602.241      978.491      470.571        0.148        0.103        6.758       14.703        4.734      348.910       28.950      862.283
07/22/2013  08:52:00        8.665       13.234       46.036       37.090       66.395       30.396     1375.649     4408.362      923.928        0.454        0.335       15.818       24.468        2.393      348.828       28.809      862.275
07/22/2013  08:53:00       87.544       90.884        3.366       54.578       36.946       31.593     2978.776     1364.970      998.089        1.064        0.267      126.190       18.986        0.023      348.812       28.782      862.266
07/22/2013  08:54:00      110.203       87.878       58.925       49.757       45.465       34.704     2475.742     2067.098     1204.359        1.454        0.287      140.951       24.471        0.030      348.818       28.791      862.260
07/22/2013  08:55:00       55.484       81.887      -14.359       59.147       44.986       27.748     3498.382     2023.767      769.925        0.814        0.315       98.914       12.861        0.017      348.899       28.932      862.255
07/22/2013  08:56:00      114.964       64.722       19.962       63.764       36.684       40.193     4065.902     1345.690     1615.442        1.241        0.351      131.931       30.631        0.054      348.839       28.828      862.252
07/22/2013  08:57:00       65.213       97.183       10.931       51.780       54.241       44.352     2681.172     2942.099     1967.105        1.070        0.380      117.035       37.622        0.103      348.612       28.436      862.249
07/22/2013  08:58:00       65.616       44.310       19.106       52.339       45.736       45.078     2739.397     2091.737     2032.064        0.675        0.343       79.176       37.241        0.221      348.607       28.426      862.255
07/22/2013  08:59:00       47.101       60.638       18.497       39.030       29.453       23.647     1523.362      867.462      559.192        0.459        0.148       76.782       11.797        0.024      348.447       28.149      862.251
07/22/2013  09:00:00      -60.960       56.879      -11.204       44.483       26.817       22.682     1978.694      719.155      514.479        0.514        0.161       83.375       22.734        0.074      348.590       28.398      862.265
07/22/2013  09:01:00      -65.701      -24.374        1.319       56.189       33.697       33.458     3157.155     1135.509     1119.465        0.516        0.271       70.076       40.258        0.330      348.850       28.849      862.258
07/22/2013  09:02:00      -24.185       -0.029       15.241       16.909       29.968       22.777      285.926      898.086      518.803        0.126        0.085       24.185       18.880        0.609      348.889       28.914      862.261
07/22/2013  09:03:00       14.997       17.510       18.039       30.644       27.782       22.535      939.070      771.847      507.814        0.154        0.111       23.055       10.909        0.224      349.045       29.186      862.259
07/22/2013  09:04:00       58.223       37.665       29.792       56.096       40.083       31.396     3146.768     1606.673      985.737        0.572        0.287       69.344       29.790        0.185      348.985       29.082      862.261
07/22/2013  09:05:00       99.411       58.194        1.796       44.562       31.726       25.488     1985.774     1006.517      649.639        0.846        0.182      115.191       16.167        0.020      348.766       28.703      862.252
07/22/2013  09:06:00       -0.230       90.760        3.400       35.445       45.919       23.577     1256.374     2108.591      555.870        0.608        0.196       90.760       19.338        0.045      349.004       29.114      862.257
07/22/2013  09:07:00      -12.236       56.579       23.601       27.096       35.892       32.036      734.197     1288.226     1026.274        0.348        0.152       57.887       25.841        0.199      349.841       30.566      862.266
07/22/2013  09:08:00      102.096       56.580       26.302       29.205       27.362       27.033      852.918      748.666      730.770        0.832        0.117      116.726       19.106        0.027      348.960       29.040      862.260
07/22/2013  09:09:00       49.039       92.516        6.185       41.785       54.478       37.539     1745.982     2967.821     1409.150        0.856        0.306      104.709       37.439        0.128      349.335       29.689      862.253
07/22/2013  09:10:00       79.683       84.066       -1.834       46.418       48.846       30.799     2154.614     2385.924      948.565        0.945        0.274      115.830       24.130        0.043      349.048       29.190      862.255
07/22/2013  09:11:00      156.824       54.990       11.092       86.580       57.713       49.155     7496.071     3330.787     2416.240        2.049        0.662      166.186       40.695        0.060      349.043       29.180      862.250
07/22/2013  09:12:00       87.206       57.428        2.640       80.026       43.019       44.344     6404.082     1850.677     1966.413        1.056        0.511      104.416       40.678        0.152      349.048       29.190      862.252
07/22/2013  09:13:00       81.667       54.761       19.428       33.220       21.430       24.084     1103.555      459.243      580.058        0.609        0.107       98.327       12.413        0.016      348.961       29.039      862.249
07/22/2013  09:14:00        0.444       12.498       55.581       28.021       53.680       34.053      785.186     2881.542     1159.628        0.404        0.241       12.506       35.375        8.001      349.168       29.399      862.248
07/22/2013  09:15:00        1.847       -6.629        2.472       28.126       46.767       29.085      791.055     2187.162      845.931        0.194        0.191        6.881       25.745       13.997      348.658       28.515      862.245
07/22/2013  09:16:00       37.739       41.364       30.323       50.368       36.477       38.149     2536.955     1330.594     1455.369        0.469        0.266       55.993       36.750        0.431      349.083       29.251      862.253
07/22/2013  09:17:00       40.883      112.507        0.337       52.507       76.118       42.073     2757.012     5794.018     1770.136        1.232        0.516      119.705       40.365        0.114      349.204       29.459      862.253
07/22/2013  09:18:00        4.021      105.918        5.552       46.273       67.051       33.415     2141.191     4495.806     1116.560        0.951        0.388      105.994       36.131        0.116      349.338       29.693      862.251
07/22/2013  09:19:00       64.353       43.032        9.720       34.819       26.896       22.953     1212.384      723.395      526.835        0.427        0.123       77.414       14.240        0.034      349.317       29.657      862.233
07/22/2013  09:20:00       19.951       22.945       22.186       31.213       25.238       24.014      974.227      636.951      576.677        0.180        0.109       30.406       18.048        0.352      349.654       30.243      862.236
07/22/2013  09:21:00      -43.393       -9.476       -2.464       42.764       26.548       22.209     1828.792      704.807      493.220        0.250        0.151       44.416       13.989        0.099      349.322       29.665      862.224
07/22/2013  09:22:00      -76.507      -11.918       -2.362       16.400       19.871       16.798      268.976      394.837      282.181        0.347        0.047       77.430       11.551        0.022      348.986       29.079      862.230
07/22/2013  09:23:00      -63.730       11.036        3.152       28.167       21.147       15.158      793.360      447.189      229.774        0.283        0.074       64.679       15.797        0.060      349.174       29.407      862.220
07/22/2013  09:24:00      -33.834      -30.882        5.699       28.924       43.067       23.094      836.575     1854.782      533.330        0.268        0.161       45.809       23.845        0.271      349.276       29.585      862.222
07/22/2013  09:25:00      -74.480      -29.533        4.937       76.683       53.735       31.464     5880.290     2887.498      990.007        0.810        0.488       80.121       32.525        0.165      349.056       29.203      862.218
07/22/2013  09:26:00     -123.335      -66.650      -10.606       64.626       49.385       24.594     4176.541     2438.838      604.886        1.349        0.361      140.192       30.412        0.047      348.992       29.091      862.213
07/22/2013  09:27:00      -19.260      -57.803       14.492       33.947       32.846       20.642     1152.383     1078.892      426.108        0.329        0.133       60.927       21.001        0.119      349.133       29.337      862.210
07/22/2013  09:28:00        5.274      -38.837       -1.889       23.043       32.174       15.205      531.003     1035.152      231.205        0.167        0.090       39.194       10.332        0.069      349.199       29.451      862.203
07/22/2013  09:29:00      -18.381      -66.460      -10.359       18.695       28.180       21.381      349.485      794.101      457.153        0.323        0.080       68.955       16.517        0.057      349.021       29.143      862.208
07/22/2013  09:30:00      -12.186        2.870        3.633       28.537       17.918       30.241      814.379      321.044      914.516        0.111        0.102       12.519       22.870        3.337      349.664       30.258      862.196
07/22/2013  09:31:00       20.558       34.707       50.445       36.128       27.543       26.282     1305.265      758.597      690.720        0.346        0.138       40.339       18.060        0.200      349.696       30.314      862.199
07/22/2013  09:32:00       42.456       -5.531       29.760       48.213       36.701       32.545     2324.506     1346.953     1059.181        0.372        0.237       42.815       30.644        0.512      349.086       29.256      862.184
07/22/2013  09:33:00       33.699      -15.191        1.617       49.064       40.206       47.525     2407.321     1616.522     2258.634        0.382        0.314       36.965       30.812        0.695      349.211       29.473      862.180
07/22/2013  09:34:00       20.982      -16.888       32.260       27.644       33.540       34.896      764.211     1124.911     1217.705        0.244        0.155       26.934       21.195        0.619      349.744       30.398      862.171
07/22/2013  09:35:00       -5.933        4.439       27.336       26.160       26.169       25.421      684.330      684.820      646.236        0.141        0.101        7.410       17.777        5.756      350.061       30.949      862.169
07/22/2013  09:36:00      -38.532        7.979       11.988       22.543       16.651       14.773      508.169      277.256      218.251        0.135        0.050       39.349       11.097        0.080      349.464       29.911      862.176
07/22/2013  09:37:00        2.641       -1.162       10.224       25.593        9.645       20.065      655.003       93.024      402.616        0.063        0.058        2.886       20.400       49.975      349.616       30.176      862.180
07/22/2013  09:38:00       40.172       24.645       -2.898       21.120       24.497       22.366      446.053      600.126      500.241        0.189        0.077       47.130       12.919        0.075      349.402       29.803      862.181
07/22/2013  09:39:00        6.468       -5.459        6.905       27.707       22.259       17.702      767.672      495.446      313.357        0.085        0.079        8.464        8.425        0.991      349.725       30.364      862.177
07/22/2013  09:40:00       -6.203       -4.473        1.374       21.748       17.235       12.113      472.986      297.050      146.727        0.049        0.046        7.647        8.057        1.110      349.711       30.339      862.178
07/22/2013  09:41:00      -12.722      -59.150       -5.410       20.650       36.959       16.450      426.439     1366.000      270.601        0.288        0.103       60.503        7.152        0.014      349.287       29.605      862.179
07/22/2013  09:42:00       -7.020      -35.303        2.529       16.494       15.646       13.497      272.052      244.786      182.158        0.100        0.035       35.994        5.340        0.022      349.355       29.722      862.180
07/22/2013  09:43:00      -30.611     -105.712        2.486       28.098       66.092       26.170      789.502     4368.166      684.861        0.898        0.292      110.054       19.859        0.033      349.276       29.585      862.176
07/22/2013  09:44:00      -41.948     -117.015        2.387       51.223       85.430       28.573     2623.752     7298.213      816.416        1.310        0.537      124.307       24.566        0.039      349.345       29.705      862.178
07/22/2013  09:45:00     -118.189      -50.242        7.600       76.923       68.490       34.343     5917.123     4690.857     1179.420        1.417        0.589      128.424       30.771        0.057      349.406       29.809      862.174
07/22/2013  09:46:00     -131.220      -16.068       -5.751       30.055       40.438       23.231      903.326     1635.238      539.680        1.029        0.154      132.200       21.461        0.026      349.398       29.797      862.188
07/22/2013  09:47:00     -116.179      -48.005        6.365       72.745       39.977       30.899     5291.821     1598.172      954.722        1.184        0.392      125.707       32.436        0.067      349.558       30.074      862.186
07/22/2013  09:48:00     -155.559     -123.666        1.371       86.625       62.856       46.668     7503.821     3950.824     2177.877        2.656        0.682      198.726       42.212        0.045      349.288       29.601      862.186
07/22/2013  09:49:00      -67.153      -55.525       14.971       75.057       47.353       32.474     5633.604     2242.271     1054.548        0.837        0.447       87.135       42.220        0.235      349.509       29.989      862.201
07/22/2013  09:50:00      -87.227     -106.516        0.632       80.006       41.687       27.503     6400.913     1737.804      756.423        1.392        0.445      137.674       18.431        0.018      349.265       29.565      862.199
07/22/2013  09:51:00      -67.748      -65.272       15.996       69.188       44.633       33.204     4787.047     1992.131     1102.486        0.849        0.394       94.076       34.845        0.137      349.466       29.913      862.190
07/22/2013  09:52:00      -85.159     -116.959       -0.254       58.571       51.285       34.581     3430.554     2630.174     1195.864        1.409        0.363      144.677       33.064        0.052      349.332       29.681      862.189
07/22/2013  09:53:00      -47.407     -110.218       -1.622       18.673       19.846       14.567      348.671      393.878      212.200        0.768        0.048      119.981        5.485        0.002      349.128       29.330      862.198
07/22/2013  09:54:00      -25.815      -29.519        7.535       28.801       28.028       23.151      829.475      785.557      535.975        0.187        0.108       39.215       13.388        0.117      349.615       30.174      862.174
07/22/2013  09:55:00       11.019        1.047       43.555       54.413       51.413       40.763     2960.742     2643.274     1661.637        0.464        0.363       11.069       27.362        6.111      350.130       31.069      862.163
07/22/2013  09:56:00       27.346       25.124       52.637       38.825       44.220       31.890     1507.419     1955.439     1016.959        0.431        0.224       37.135       24.832        0.447      349.828       30.543      862.156
07/22/2013  09:57:00       -5.735       19.781       45.070       23.931       32.430       23.045      572.699     1051.673      531.089        0.231        0.108       20.596       18.530        0.809      350.223       31.229      862.154
07/22/2013  09:58:00        2.410        1.719       41.132       42.361       41.589       26.031     1794.461     1729.632      677.598        0.295        0.210        2.960       13.032       19.378      350.288       31.343      862.149
07/22/2013  09:59:00       41.629       34.243       32.218       38.891       30.071       28.562     1512.510      904.278      815.793        0.359        0.162       53.904       17.785        0.109      350.318       31.395      862.160
07/22/2013  10:00:00       69.972       81.910        0.518       50.259       24.267       27.979     2526.017      588.903      782.839        0.775        0.195      107.728       19.585        0.033      349.605       30.156      862.168
07/22/2013  10:01:00       38.866       30.503       12.391       22.368       22.561       21.494      500.324      508.999      461.972        0.203        0.074       49.406       17.359        0.123      349.721       30.357      862.165
07/22/2013  10:02:00      -52.886      -14.258       -1.000       29.422       29.040       16.909      865.670      843.317      285.928        0.250        0.100       54.774       15.709        0.082      349.617       30.175      862.160
07/22/2013  10:03:00      -71.501      -14.521       -3.649       50.127       36.770       16.659     2512.683     1352.038      277.526        0.474        0.207       72.960        4.733        0.004      349.611       30.165      862.163
07/22/2013  10:04:00     -105.011       43.411       -2.079      101.302       64.442       47.630    10262.055     4152.830     2268.599        1.480        0.834      113.630       47.768        0.177      350.019       30.875      862.152
07/22/2013  10:05:00       58.040      253.375      -41.560       61.202      134.833       40.405     3745.654    18179.858     1632.536        4.642        1.178      259.938       51.579        0.039      350.000       30.838      862.168
07/22/2013  10:06:00        8.662      205.477      -28.977       43.963       83.949       39.715     1932.781     7047.359     1577.311        2.684        0.528      205.659       42.466        0.043      349.776       30.450      862.166
07/22/2013  10:07:00      -21.455      193.188      -10.049       76.200       84.372       58.081     5806.489     7118.580     3373.459        2.709        0.815      194.375       54.107        0.077      350.054       30.934      862.150
07/22/2013  10:08:00      -70.230      249.164      -13.089       89.666      104.463       63.162     8040.013    10912.511     3989.475        4.506        1.147      258.873       58.133        0.050      350.054       30.934      862.133
07/22/2013  10:09:00      -48.911      329.044      -33.121       79.100       94.194       48.001     6256.798     8872.533     2304.094        6.459        0.872      332.659       32.142        0.009      349.819       30.523      862.121
07/22/2013  10:10:00      -32.108      256.087      -28.222       67.692      117.025       52.533     4582.251    13694.792     2759.733        4.422        1.052      258.092       52.457        0.041      349.896       30.659      862.101
07/22/2013  10:11:00     -108.339      270.767      -20.301      102.832      117.356       58.009    10574.322    13772.437     3365.004        5.658        1.386      291.637       52.971        0.033      349.984       30.810      862.097
07/22/2013  10:12:00     -195.530      110.019      -11.191       97.925      113.309       57.734     9589.386    12838.826     3333.174        3.811        1.288      224.357       54.740        0.060      349.793       30.480      862.096
07/22/2013  10:13:00     -149.634      148.533      -31.339       77.693       91.145       51.633     6036.147     8307.472     2666.007        3.122        0.850      210.837       46.565        0.049      349.793       30.480      862.087
07/22/2013  10:14:00     -102.691       81.693      -11.412       74.509       58.839       49.546     5551.582     3462.051     2454.854        1.441        0.573      131.221       48.727        0.138      350.003       30.845      862.105
07/22/2013  10:15:00     -235.094      176.919      -37.690      103.146       96.844       61.254    10639.044     9378.770     3752.056        5.588        1.188      294.227       51.294        0.030      349.690       30.299      862.081
07/22/2013  10:16:00     -195.615      201.250      -31.163      107.771      122.445       64.022    11614.690    14992.710     4098.813        5.522        1.535      280.654       64.380        0.053      349.831       30.544      862.062
07/22/2013  10:17:00     -175.606      158.756      -13.880       93.680      121.744       71.155     8775.866    14821.482     5063.051        4.244        1.433      236.730       53.195        0.050      349.941       30.736      862.065
07/22/2013  10:18:00     -169.690      188.070      -36.023      135.828      188.065       59.370    18449.111    35368.403     3524.815        6.139        2.867      253.308       48.608        0.037      349.861       30.596      862.058
07/22/2013  10:19:00     -153.212      349.218      -34.442      103.418      128.765       72.694    10695.374    16580.509     5284.354        8.958        1.628      381.349       78.948        0.043      349.810       30.508      862.054
07/22/2013  10:20:00      -51.884      219.532        0.987       81.073      135.313       62.129     6572.833    18309.655     3860.051        3.981        1.437      225.580       66.812        0.088      350.042       30.912      862.078
07/22/2013  10:21:00      -82.135      325.514      -37.647       79.902      106.219       46.658     6384.353    11282.371     2176.976        6.698        0.992      335.716       47.647        0.020      349.728       30.365      862.068
07/22/2013  10:22:00      -87.400      238.103      -16.547       74.164      129.012       55.564     5500.265    16644.120     3087.381        4.491        1.262      253.637       61.474        0.059      349.900       30.665      862.046
07/22/2013  10:23:00      -53.021      249.977      -25.014       87.878      114.176       52.687     7722.526    13036.195     2775.965        4.473        1.177      255.538       46.899        0.034      350.173       31.138      862.061
07/22/2013  10:24:00       -5.551      339.251      -28.011       86.481      141.182       65.673     7479.026    19932.387     4312.979        7.381        1.586      339.296       75.869        0.050      350.041       30.907      862.066
07/22/2013  10:25:00      -35.126      302.783      -15.769      113.442      166.029       70.079    12869.110    27565.731     4911.102        6.924        2.267      304.814       87.697        0.083      349.988       30.818      862.038
07/22/2013  10:26:00      -48.705      315.746      -29.185       99.430      142.350       57.763     9886.292    20263.395     3336.574        6.820        1.674      319.480       50.327        0.025      350.075       30.967      862.041
07/22/2013  10:27:00      -62.564      401.106      -36.898       76.415      144.402       55.320     5839.229    20851.840     3060.248        9.795        1.488      405.956       58.919        0.021      349.866       30.605      862.031
07/22/2013  10:28:00      -71.731      356.669      -27.376       71.882       91.548       50.312     5166.974     8380.969     2531.323        7.459        0.804      363.810       44.295        0.015      350.082       30.981      862.010
07/22/2013  10:29:00      -88.902      340.896      -26.890       77.143      108.701       59.503     5951.008    11815.943     3540.587        7.307        1.065      352.297       53.857        0.023      350.153       31.104      862.016
07/22/2013  10:30:00     -163.153      256.362      -21.072       81.226      105.329       60.280     6597.647    11094.163     3633.679        5.705        1.066      303.875       58.954        0.038      350.100       31.012      862.024
07/22/2013  10:31:00      -23.741      197.364       12.229       80.216      132.001       60.274     6434.665    17424.330     3632.913        3.357        1.375      198.787       52.003        0.068      350.446       31.614      862.026
07/22/2013  10:32:00      -98.046      277.580      -15.986       63.533      112.334       64.950     4036.496    12618.861     4218.486        5.389        1.044      294.387       68.972        0.055      350.257       31.284      862.025
07/22/2013  10:33:00      -93.078      195.804       -6.585       88.934      137.638       66.579     7909.256    18944.204     4432.711        3.916        1.564      216.801       86.310        0.158      350.332       31.418      862.027
07/22/2013  10:34:00     -165.176      326.883      -39.699      101.048      107.575       58.865    10210.696    11572.372     3465.119        8.047        1.262      366.245       44.155        0.015      350.019       30.870      862.007
07/22/2013  10:35:00     -163.010      159.383      -35.921      105.634       79.239       51.095    11158.567     6278.842     2610.711        3.665        1.002      227.981       47.509        0.043      350.106       31.023      862.011
07/22/2013  10:36:00      -70.458      190.416       -5.564       61.183      100.283       47.156     3743.332    10056.684     2223.733        2.864        0.801      203.034       51.710        0.065      350.373       31.487      862.026
07/22/2013  10:37:00        9.516      358.123      -41.354       81.094      120.707       59.011     6576.315    14570.191     3482.275        7.734        1.231      358.249       65.569        0.033      350.134       31.071      862.007
07/22/2013  10:38:00      -17.190      310.130      -39.253       90.831      102.784       56.973     8250.272    10564.503     3245.940        6.003        1.103      310.606       52.858        0.029      350.202       31.189      861.978
07/22/2013  10:39:00      -39.247      294.970      -23.616       79.486      129.604       64.487     6317.975    16797.127     4158.551        5.818        1.364      297.569       56.309        0.036      350.277       31.318      862.007
07/22/2013  10:40:00      -47.174      198.233      -11.576       47.185       66.492       46.744     2226.411     4421.243     2185.043        2.524        0.442      203.769       37.368        0.034      350.210       31.205      862.006
07/22/2013  10:41:00      -36.837      175.280       -6.325       71.205      108.777       50.562     5070.109    11832.327     2556.514        2.579        0.973      179.109       51.931        0.084      350.522       31.746      861.990
07/22/2013  10:42:00     -163.342      -16.848       -4.134      119.756      101.458       54.400    14341.490    10293.714     2959.315        2.728        1.380      164.208       39.088        0.057      350.298       31.357      861.977
07/22/2013  10:43:00      -62.509      151.660      -12.499      112.865      121.599       56.258    12738.615    14786.372     3164.940        2.887        1.534      164.037       58.909        0.129      350.467       31.653      862.014
07/22/2013  10:44:00      -90.115      234.307      -28.196       97.302       91.775       43.626     9467.751     8422.667     1903.262        4.180        0.990      251.039       47.993        0.037      350.147       31.093      862.011
07/22/2013  10:45:00      -23.216      118.073        3.926       58.034       74.457       45.637     3367.926     5543.902     2082.748        1.274        0.550      120.334       42.952        0.127      350.495       31.702      862.002
07/22/2013  10:46:00      -29.682      217.609       -3.736       39.673       78.122       42.141     1573.971     6102.992     1775.861        2.885        0.473      219.624       32.420        0.022      350.457       31.635      861.991
07/22/2013  10:47:00      -34.218      240.704      -16.183       68.073       92.326       47.488     4633.906     8524.047     2255.094        3.739        0.771      243.124       38.402        0.025      350.428       31.584      861.969
07/22/2013  10:48:00      -57.349      207.021      -10.885       69.291      104.286       51.149     4801.209    10875.507     2616.231        3.228        0.915      214.818       51.802        0.058      350.536       31.771      861.979
07/22/2013  10:49:00      -70.741      296.887      -23.538       56.346      148.387       52.662     3174.870    22018.738     2773.337        6.083        1.398      305.199       72.107        0.056      350.134       31.072      861.986
07/22/2013  10:50:00      -68.471      344.961      -32.655       68.750      134.080       48.178     4726.506    17977.432     2321.099        7.488        1.251      351.690       58.309        0.027      350.230       31.239      861.960
07/22/2013  10:51:00      -97.139      313.957      -29.538      103.206      132.750       57.242    10651.491    17622.630     3276.679        7.021        1.578      328.641       67.583        0.042      350.244       31.261      861.960
07/22/2013  10:52:00      -65.504      240.691      -16.755       64.625       81.752       49.715     4176.453     6683.368     2471.550        3.791        0.667      249.445       49.614        0.040      350.312       31.381      861.960
07/22/2013  10:53:00       10.465      200.185       -1.730       68.679      139.780       59.309     4716.743    19538.328     3517.509        3.397        1.389      200.459       66.254        0.109      350.410       31.553      861.953
07/22/2013  10:54:00       20.143      264.098      -21.428       60.565      118.332       55.015     3668.170    14002.361     3026.638        4.565        1.035      264.865       63.344        0.057      350.222       31.225      861.940
07/22/2013  10:55:00       12.544       39.579       30.544       99.703       85.357       59.479     9940.758     7285.736     3537.741        1.171        1.038       41.519       34.409        0.687      350.545       31.788      861.932
07/22/2013  10:56:00      -68.439       22.390       -7.426       57.639       36.674       30.164     3322.209     1344.986      909.875        0.541        0.279       72.008       24.072        0.112      350.553       31.804      861.925
07/22/2013  10:57:00      -54.832      104.072       10.571       78.240       73.864       50.593     6121.545     5455.927     2559.650        1.404        0.707      117.633       54.542        0.215      350.930       32.459      861.927
07/22/2013  10:58:00      -13.705      295.720      -26.372      114.719      130.549       77.388    13160.401    17043.054     5988.957        6.226        1.810      296.038       77.298        0.068      350.556       31.804      861.919
07/22/2013  10:59:00      -53.821      374.769      -35.022       59.749       88.507       45.111     3569.896     7833.424     2035.022        7.900        0.672      378.614       42.340        0.013      350.274       31.315      861.930
07/22/2013  11:00:00      -34.064      340.823      -21.567       79.468      142.435       60.935     6315.219    20287.806     3713.103        7.404        1.516      342.522       66.683        0.038      350.472       31.660      861.940
07/22/2013  11:01:00      -82.229      342.028      -31.308       47.002       75.105       37.518     2209.177     5640.751     1407.606        6.699        0.463      351.774       34.867        0.010      350.132       31.066      861.931
07/22/2013  11:02:00      -34.689      266.575      -24.634       50.884       76.902       36.370     2589.169     5913.945     1322.761        4.135        0.491      268.823       42.940        0.026      350.113       31.034      861.916
07/22/2013  11:03:00       25.767      152.107       -7.867       70.374      106.977       57.266     4952.483    11444.025     3279.360        2.177        0.984      154.274       65.687        0.181      350.689       32.036      861.895
07/22/2013  11:04:00       40.811      242.934      -12.529      106.694      201.909       66.015    11383.619    40767.334     4357.944        5.866        2.825      246.338       90.208        0.134      350.668       32.001      861.895
07/22/2013  11:05:00     -135.674      122.423       -5.630      123.723       96.405       55.633    15307.492     9294.013     3095.032        3.056        1.385      182.742       48.429        0.070      350.609       31.898      861.924
07/22/2013  11:06:00       32.388       80.323       -6.274       96.577       75.791       49.325     9327.186     5744.308     2432.911        1.252        0.875       86.607       49.723        0.330      350.855       32.329      861.912
07/22/2013  11:07:00       -3.873      107.464      -19.179       71.667       73.414       46.476     5136.230     5389.565     2159.991        1.231        0.634      107.534       28.547        0.070      351.007       32.591      861.903
07/22/2013  11:08:00       93.992      131.974       10.044       74.906       70.103       58.916     5610.856     4914.454     3471.117        2.017        0.700      162.024       44.171        0.074      350.697       32.051      861.885
07/22/2013  11:09:00       73.690      151.230       11.882       80.837      106.069       70.964     6534.622    11250.591     5035.940        2.563        1.141      168.228       62.957        0.140      350.787       32.209      861.879
07/22/2013  11:10:00      101.760      125.398       25.369       87.325       76.658       61.894     7625.605     5876.479     3830.862        2.202        0.867      161.492       45.196        0.078      350.852       32.321      861.881
07/22/2013  11:11:00       51.231       76.190       10.376       96.796       75.669       48.900     9369.489     5725.724     2391.196        1.301        0.874       91.813       34.458        0.141      350.918       32.438      861.879
07/22/2013  11:12:00      -29.686      130.730       -1.547       84.437       93.618       56.652     7129.636     8764.399     3209.413        1.853        0.955      134.058       48.800        0.133      350.907       32.418      861.888
07/22/2013  11:13:00      -18.719      229.674       -7.992       46.336       98.956       46.163     2147.062     9792.250     2131.040        3.361        0.704      230.436       47.571        0.043      350.751       32.145      861.892
07/22/2013  11:14:00      -43.313       76.208       19.628       46.078       80.947       37.486     2123.148     6552.452     1405.180        0.907        0.504       87.656       37.912        0.187      351.333       33.162      861.875
07/22/2013  11:15:00       20.663      128.237       -7.474       71.580      138.165       50.933     5123.642    19089.466     2594.136        2.186        1.340      129.891       67.465        0.270      350.965       32.520      861.861
07/22/2013  11:16:00      -13.536      227.110       -8.619       87.492       99.774       60.432     7654.813     9954.930     3651.979        3.654        1.063      227.513       46.047        0.041      351.075       32.709      861.846
07/22/2013  11:17:00      -35.093       57.384      -12.360       33.492      100.083       27.545     1121.746    10016.671      758.710        0.828        0.595       67.264       41.465        0.380      350.464       31.647      861.863
07/22/2013  11:18:00      -10.488       84.642       -0.147       34.989       66.261       32.736     1224.246     4390.572     1071.629        0.698        0.334       85.289       31.561        0.137      351.006       32.593      861.852
07/22/2013  11:19:00       66.621       95.501       52.090       91.808       64.395       65.468     8428.709     4146.690     4286.069        1.656        0.843      116.442       32.671        0.079      351.205       32.937      861.811
07/22/2013  11:20:00      -37.925      197.853      -10.734       69.567      130.699       62.230     4839.563    17082.325     3872.584        3.324        1.290      201.455       63.029        0.098      351.060       32.684      861.821
07/22/2013  11:21:00       29.736      209.765      -14.990       71.089      132.451       61.093     5053.660    17543.147     3732.386        3.571        1.316      211.862       69.156        0.107      350.872       32.356      861.811
07/22/2013  11:22:00      -28.796      364.552      -32.627       96.725      100.058       62.732     9355.748    10011.648     3935.251        7.904        1.165      365.688       52.729        0.021      350.802       32.233      861.780
07/22/2013  11:23:00       -8.202      235.878      -23.573       99.160      123.059       52.745     9832.620    15143.404     2782.008        4.200        1.388      236.021       54.936        0.054      350.977       32.538      861.778
07/22/2013  11:24:00      -14.578      104.329        6.924       63.623       75.960       53.522     4047.909     5769.907     2864.565        1.191        0.634      105.342       48.902        0.215      351.346       33.184      861.793
07/22/2013  11:25:00      -25.762      176.702        5.344      114.711      114.597       69.938    13158.612    13132.555     4891.265        3.154        1.559      178.570       76.364        0.183      350.874       32.359      861.792
07/22/2013  11:26:00      -21.122      255.145      -30.664       79.675       98.621       37.048     6348.178     9726.199     1372.520        4.196        0.872      256.018       35.381        0.019      350.683       32.027      861.780
07/22/2013  11:27:00       28.763      302.924      -21.531       68.234      127.192       61.649     4655.875    16177.679     3800.653        5.884        1.232      304.287       65.263        0.046      350.888       32.382      861.782
07/22/2013  11:28:00        1.161      307.007      -37.199       59.355       88.822       46.217     3523.002     7889.387     2135.981        5.459        0.677      307.009       49.903        0.026      350.769       32.175      861.772
07/22/2013  11:29:00      -16.868      321.797      -25.659       64.281      158.408       55.796     4131.987    25093.004     3113.219        6.841        1.617      322.239       74.194        0.053      350.755       32.152      861.780
07/22/2013  11:30:00       29.508      298.012      -24.485       68.417      112.482       64.365     4680.871    12652.242     4142.818        5.587        1.074      299.469       67.196        0.050      350.838       32.295      861.778
07/22/2013  11:31:00      -11.440      285.925      -18.838       86.096      133.982       66.659     7412.480    17951.080     4443.475        5.602        1.490      286.154       77.567        0.073      350.980       32.544      861.757
07/22/2013  11:32:00       12.533      333.648      -46.120       85.449      100.635       65.934     7301.501    10127.359     4347.285        6.769        1.089      333.883       59.257        0.031      350.619       31.913      861.761
07/22/2013  11:33:00      -61.826      218.437      -18.303       62.043       57.020       34.248     3849.350     3251.234     1172.918        3.007        0.414      227.018       27.271        0.014      350.913       32.426      861.755
07/22/2013  11:34:00     -105.596       83.126       -7.008       78.610       78.727       40.998     6179.545     6197.983     1680.813        1.608        0.703      134.389       29.977        0.050      350.765       32.171      861.741
07/22/2013  11:35:00      -31.844      171.294        0.633      101.480      120.835       62.320    10298.091    14601.091     3883.786        2.956        1.439      174.229       60.208        0.119      350.978       32.540      861.727
07/22/2013  11:36:00     -112.491      132.068      -10.026       89.232       95.546       57.032     7962.288     9129.052     3252.600        2.527        1.017      173.483       72.224        0.173      350.959       32.507      861.744
07/22/2013  11:37:00     -221.962      173.829      -44.115      100.687       78.329       54.410    10137.808     6135.477     2960.489        5.033        0.962      281.929       56.555        0.040      350.597       31.877      861.716
07/22/2013  11:38:00     -138.464      163.511      -29.573       75.742       94.661       46.393     5736.923     8960.768     2152.290        3.181        0.842      214.262       35.602        0.028      350.602       31.884      861.728
07/22/2013  11:39:00     -143.490      139.770      -27.798       73.195       71.349       51.564     5357.467     5090.689     2658.798        2.700        0.655      200.312       42.551        0.045      350.682       32.024      861.739
07/22/2013  11:40:00      -36.261      112.016        3.108       66.252       78.547       48.708     4389.360     6169.665     2372.479        1.340        0.647      117.739       52.401        0.198      350.985       32.554      861.733
07/22/2013  11:41:00     -105.960      134.502       -4.458       88.059       73.423       54.922     7754.388     5390.918     3016.412        2.275        0.808      171.226       35.496        0.043      350.842       32.304      861.721
07/22/2013  11:42:00      -62.926      217.383      -18.978       63.884      100.847       37.740     4081.139    10170.157     1424.284        3.362        0.784      226.307       33.068        0.021      350.616       31.909      861.710
07/22/2013  11:43:00     -141.576      291.778      -36.126      104.803      115.254       46.091    10983.750    13283.474     2124.346        6.643        1.320      324.312       41.976        0.017      350.587       31.859      861.688
07/22/2013  11:44:00      -25.152      113.542        7.501       47.435       71.290       41.687     2250.106     5082.251     1737.829        1.132        0.454      116.294       40.130        0.119      351.217       32.960      861.700
07/22/2013  11:45:00      -23.365      188.222       -4.194       90.756      119.769       59.509     8236.642    14344.678     3541.346        3.105        1.306      189.666       68.421        0.130      351.001       32.580      861.685
07/22/2013  11:46:00       -6.592      203.683       -5.003       51.645       75.820       45.487     2667.188     5748.737     2069.109        2.602        0.524      203.789       39.500        0.038      351.060       32.683      861.673
07/22/2013  11:47:00      -99.089      189.844      -17.489       80.915      105.115       52.240     6547.197    11049.256     2729.015        3.324        1.016      214.148       67.420        0.099      351.176       32.888      861.679
07/22/2013  11:48:00       47.855       28.941       34.112       30.850       39.966       23.230      951.746     1597.311      539.652        0.369        0.154       55.925       16.567        0.088      351.290       33.087      861.663
07/22/2013  11:49:00        4.083      177.299      -16.488       41.726       58.024       34.430     1741.077     3366.807     1185.419        1.901        0.315      177.346       31.357        0.031      351.069       32.700      861.665
07/22/2013  11:50:00      -36.815      101.159       -2.759       63.290       98.162       42.105     4005.654     9635.793     1772.850        1.350        0.771      107.649       41.506        0.149      351.448       33.361      861.648
07/22/2013  11:51:00        9.019       82.466       40.926       63.678       76.738       56.317     4054.851     5888.725     3171.660        1.083        0.656       82.958       35.140        0.179      351.622       33.667      861.625
07/22/2013  11:52:00      -53.604      242.541      -34.023       78.652      168.562       47.206     6186.202    28413.311     2228.399        4.984        1.841      248.394       68.737        0.077      351.065       32.694      861.621
07/22/2013  11:53:00       18.801      179.089      -10.685       54.141      110.939       56.627     2931.235    12307.524     3206.562        2.549        0.922      180.073       67.332        0.140      351.215       32.955      861.628
07/22/2013  11:54:00      122.579      248.956      -17.244      110.987      136.472       82.628    12318.162    18624.694     6827.394        5.753        1.889      277.498       75.406        0.074      351.098       32.749      861.603
07/22/2013  11:55:00      156.767      201.310        2.142      169.118      100.881       71.572    28600.843    10177.065     5122.545        5.449        2.195      255.151       84.245        0.109      351.092       32.738      861.579
07/22/2013  11:56:00      -66.122      157.453      -10.756       83.144       92.332       66.962     6912.882     8525.157     4483.920        2.460        0.996      170.773       49.189        0.083      351.389       33.257      861.589
07/22/2013  11:57:00      -63.600      301.787      -30.862      103.537      133.804       62.027    10719.824    17903.527     3847.384        6.427        1.624      308.416       69.335        0.051      351.155       32.848      861.562
07/22/2013  11:58:00       47.393      169.786       -4.219       58.315      111.282       62.473     3400.694    12383.574     3902.867        2.539        0.984      176.277       70.722        0.161      351.309       33.117      861.574
07/22/2013  11:59:00      102.894      146.581        9.674      114.683       91.627       67.418    13152.207     8395.434     4545.203        2.912        1.305      179.090       52.376        0.086      351.272       33.053      861.540
07/22/2013  12:00:00      108.831       83.428       21.060       59.242       51.978       45.310     3509.641     2701.669     2052.962        1.375        0.413      137.129       40.210        0.086      351.213       32.950      861.528
07/22/2013  12:01:00       46.194      141.111      -11.392       85.987       96.085       54.995     7393.802     9232.258     3024.493        2.091        0.983      148.479       49.128        0.109      351.363       33.213      861.524
07/22/2013  12:02:00        5.944      152.171        0.692       49.746       91.576       42.720     2474.649     8386.252     1825.027        1.794        0.634      152.287       47.296        0.096      351.683       33.772      861.526
07/22/2013  12:03:00        8.051      205.429        2.841      167.451      108.868       84.571    28039.864    11852.303     7152.248        4.465        2.352      205.586       71.987        0.123      351.597       33.620      861.515
07/22/2013  12:04:00      -38.153      332.295      -41.852       89.660      100.470       60.125     8038.912    10094.253     3614.960        6.768        1.087      334.478       63.188        0.036      351.126       32.799      861.533
07/22/2013  12:05:00      -17.591      323.014      -43.398       76.863       97.339       44.970     5907.858     9474.874     2022.316        6.196        0.870      323.493       49.610        0.024      351.075       32.710      861.528
07/22/2013  12:06:00      -28.394      300.753      -31.368       86.954      135.445       54.989     7560.953    18345.454     3023.797        6.058        1.447      302.091       55.703        0.034      351.337       33.166      861.516
07/22/2013  12:07:00      107.111      199.115       17.474      130.596      109.858       95.270    17055.389    12068.715     9076.430        4.481        1.910      226.097       80.807        0.128      351.352       33.192      861.499
07/22/2013  12:08:00      101.668      195.106       -0.792      103.589      141.731       90.894    10730.666    20087.804     8261.629        4.373        1.954      220.006       93.984        0.182      351.310       33.118      861.490
07/22/2013  12:09:00       77.212      286.866      -20.279       84.879      100.827       75.554     7204.427    10166.124     5708.424        5.587        1.154      297.075       66.008        0.049      351.142       32.826      861.492
07/22/2013  12:10:00      108.490      183.305       -3.576      106.151      119.496       80.619    11267.940    14279.253     6499.443        3.871        1.602      213.004       81.947        0.148      351.265       33.041      861.487
07/22/2013  12:11:00       38.997      162.756       -8.373       48.461       74.496       44.911     2348.465     5549.629     2017.039        1.900        0.496      167.363       44.672        0.071      351.174       32.882      861.493
07/22/2013  12:12:00      106.431      156.510        1.397      104.000      119.773       80.798    10815.901    14345.628     6528.392        3.375        1.584      189.269       78.086        0.170      351.340       33.172      861.491
07/22/2013  12:13:00       93.646      118.106        6.067       95.269       62.446       44.827     9076.134     3899.475     2009.491        1.887        0.749      150.727       36.282        0.058      351.199       32.926      861.469
07/22/2013  12:14:00      117.330      168.036        1.738      108.854       98.942       71.664    11849.105     9789.589     5135.771        3.438        1.339      204.944       59.518        0.084      351.411       33.294      861.472
07/22/2013  12:15:00      186.015      148.290        7.937      126.950       98.364       65.322    16116.242     9675.418     4266.941        4.335        1.503      237.890       49.449        0.043      351.389       33.257      861.456
07/22/2013  12:16:00      112.861       90.997       35.435      124.958       70.814       57.273    15614.569     5014.597     3280.221        2.309        1.195      144.976       33.154        0.052      351.624       33.668      861.444
07/22/2013  12:17:00        6.282      221.928      -17.056      116.673      101.306       64.935    13612.515    10262.931     4216.613        3.883        1.405      222.017       60.351        0.074      351.519       33.483      861.460
07/22/2013  12:18:00      -56.915       78.202       12.795       96.332       76.531       52.785     9279.847     5857.040     2786.278        1.372        0.896       96.721       60.713        0.394      351.698       33.797      861.455
07/22/2013  12:19:00      125.414      107.023       46.857      113.546       73.048       63.459    12892.638     5335.954     4027.105        2.581        1.113      164.871       31.658        0.037      351.641       33.697      861.444
07/22/2013  12:20:00      125.611      127.747       26.511      144.617       97.170       70.345    20914.135     9442.062     4948.369        3.405        1.765      179.157       48.222        0.072      351.675       33.756      861.443
07/22/2013  12:21:00      -43.695      206.458      -10.757       86.458      130.590       66.388     7474.951    17053.636     4407.425        3.679        1.447      211.031       69.990        0.110      351.575       33.579      861.437
07/22/2013  12:22:00       97.778      121.813       12.968      152.096       80.257       58.945    23133.172     6441.261     3474.473        2.880        1.652      156.202       52.348        0.112      351.622       33.664      861.453
07/22/2013  12:23:00       58.068      260.627      -23.170       97.926      122.874       78.317     9589.541    15098.054     6133.478        5.132        1.541      267.018       68.285        0.065      351.525       33.493      861.458
07/22/2013  12:24:00       63.242      195.938        1.777      115.526      106.325       71.378    13346.313    11304.909     5094.886        3.606        1.487      205.891       58.949        0.082      351.546       33.530      861.459
07/22/2013  12:25:00       96.545      160.698       -7.285      100.948       84.069       63.883    10190.553     7067.568     4081.060        2.826        1.067      187.470       53.763        0.082      351.476       33.408      861.453
07/22/2013  12:26:00       89.415      156.657       -6.013       91.991      106.696       64.554     8462.376    11383.976     4167.263        2.829        1.201      180.378       43.189        0.057      351.538       33.518      861.451
07/22/2013  12:27:00       11.011      212.203      -17.439       89.656      102.812       55.720     8038.185    10570.387     3104.668        3.358        1.086      212.489       44.437        0.044      351.577       33.585      861.453
07/22/2013  12:28:00       26.080      303.282      -27.140       78.128      107.620       64.048     6103.956    11582.063     4102.164        5.759        1.089      304.401       64.799        0.045      351.540       33.518      861.453
07/22/2013  12:29:00     -143.475      254.304      -23.578       97.982       95.314       58.822     9600.570     9084.703     3460.084        5.397        1.107      291.986       58.909        0.041      351.416       33.301      861.456
07/22/2013  12:30:00      -96.024      330.722      -41.396       96.999      133.006       61.602     9408.815    17690.503     3794.750        7.560        1.545      344.380       63.477        0.034      351.191       32.910      861.459
07/22/2013  12:31:00     -105.862      255.140      -24.924       90.220      120.002       57.994     8139.578    14400.491     3363.297        5.141        1.295      276.230       61.735        0.050      351.201       32.929      861.442
07/22/2013  12:32:00      119.864       65.778       22.947       86.768       77.714       59.097     7528.708     6039.477     3492.463        1.814        0.853      136.727       42.589        0.097      351.427       33.325      861.420
07/22/2013  12:33:00       70.293       73.301       45.630       74.739       50.832       49.645     5585.907     2583.933     2464.634        1.151        0.532      101.559       40.408        0.158      351.757       33.902      861.389
07/22/2013  12:34:00      270.887      163.085        8.312      106.543       91.937       64.787    11351.419     8452.325     4197.367        6.202        1.200      316.191       42.885        0.018      351.443       33.350      861.373
07/22/2013  12:35:00      105.841      205.288      -18.264      156.303      153.913       61.703    24430.519    23689.315     3807.200        5.279        2.596      230.967       63.604        0.076      351.421       33.311      861.344
07/22/2013  12:36:00       17.428      297.057      -13.967       86.388      195.144       79.037     7462.841    38081.341     6246.819        7.026        2.590      297.567      102.545        0.119      351.609       33.640      861.361
07/22/2013  12:37:00      -23.620      422.249      -52.013       54.401       73.278       32.755     2959.481     5369.652     1072.892        9.548        0.470      422.909       36.812        0.008      351.117       32.780      861.368
07/22/2013  12:38:00        8.819      210.464      -10.695       75.978      135.183       65.904     5772.726    18274.431     4343.282        3.643        1.420      210.649       77.021        0.134      351.588       33.602      861.374
07/22/2013  12:39:00       45.544      345.113      -34.048       77.882      100.835       61.140     6065.568    10167.678     3738.104        7.115        0.999      348.106       55.286        0.025      351.326       33.143      861.350
07/22/2013  12:40:00       73.797      205.860       -1.988       89.696       94.032       71.491     8045.284     8841.970     5111.008        3.491        1.100      218.687       63.002        0.083      351.467       33.392      861.340
07/22/2013  12:41:00       50.361      152.029       -3.425       78.932       94.755       59.127     6230.216     8978.483     3495.956        2.218        0.935      160.153       57.564        0.129      351.791       33.960      861.329
07/22/2013  12:42:00       -2.042      326.186      -32.956       52.987      113.740       40.899     2807.625    12936.679     1672.735        6.245        0.871      326.192       45.065        0.019      351.595       33.615      861.318
07/22/2013  12:43:00      -34.699      304.373      -40.326       82.217       87.174       51.854     6759.557     7599.298     2688.883        5.626        0.852      306.345       45.898        0.022      351.512       33.470      861.320
07/22/2013  12:44:00        9.471      101.981        0.101       63.923       73.680       45.636     4086.184     5428.719     2082.614        1.104        0.580      102.420       46.690        0.208      351.964       34.261      861.311
07/22/2013  12:45:00      -32.596      200.138      -18.575       55.120       72.419       43.528     3038.200     5244.457     1894.644        2.582        0.509      202.775       39.242        0.037      351.541       33.521      861.314
07/22/2013  12:46:00     -155.682      124.592      -27.110      100.352       88.048       54.213    10070.616     7752.492     2939.066        3.062        1.038      199.399       51.496        0.067      351.643       33.699      861.307
07/22/2013  12:47:00      -70.851      128.235        3.468       84.671       82.906       58.057     7169.129     6873.485     3370.562        1.944        0.871      146.506       57.655        0.155      352.050       34.413      861.303
07/22/2013  12:48:00      -35.906      267.618      -22.624       73.049      126.968       52.821     5336.109    16120.786     2790.097        4.883        1.212      270.016       59.466        0.049      351.859       34.077      861.310
07/22/2013  12:49:00      -36.757      275.742      -35.269       69.539      108.648       50.656     4835.677    11804.427     2566.047        4.891        0.960      278.181       51.439        0.034      351.789       33.954      861.308
07/22/2013  12:50:00       -2.404      309.309      -29.382       59.115       97.843       46.180     3494.543     9573.196     2132.551        5.587        0.760      309.318       45.285        0.021      351.421       33.311      861.308
07/22/2013  12:51:00       40.713      228.859      -23.300       62.621       78.959       51.680     3921.370     6234.513     2670.782        3.370        0.641      232.452       51.488        0.049      351.554       33.544      861.289
07/22/2013  12:52:00      -21.216      117.524       10.500       52.658       60.874       46.527     2772.860     3705.651     2164.793        1.151        0.432      119.424       40.790        0.117      351.918       34.181      861.288
07/22/2013  12:53:00      -89.920        4.598        3.537       94.951       65.250       47.967     9015.665     4257.504     2300.871        1.184        0.779       90.037       50.255        0.312      351.966       34.266      861.263
07/22/2013  12:54:00      -82.458       59.299        3.658      118.096       45.658       40.969    13946.555     2084.662     1678.484        1.402        0.885      101.566       61.005        0.361      351.799       33.972      861.263
07/22/2013  12:55:00     -203.374       39.606      -24.077       81.990       82.112       41.261     6722.342     6742.374     1702.447        2.934        0.758      207.195       41.373        0.040      351.365       33.213      861.250
07/22/2013  12:56:00     -151.769      127.444      -18.201       81.656      112.615       48.965     6667.631    12682.160     2397.614        3.067        1.087      198.181       55.436        0.078      351.669       33.747      861.259
07/22/2013  12:57:00     -192.482      137.002      -27.492       94.889      111.787       58.713     9003.999    12496.394     3447.178        4.076        1.247      236.260       69.494        0.087      351.426       33.319      861.246
07/22/2013  12:58:00     -134.566       48.983       -9.177       61.437       82.158       38.189     3774.468     6749.932     1458.433        1.628        0.599      143.204       29.321        0.042      351.866       34.090      861.236
07/22/2013  12:59:00      -97.761       75.423        3.020       54.419      122.799       42.626     2961.460    15079.710     1816.940        1.755        0.993      123.474       25.875        0.044      352.142       34.572      861.235
07/22/2013  13:00:00      -29.200       48.040       31.042       92.022      109.044       60.106     8468.130    11890.562     3612.718        1.404        1.199       56.218       61.570        1.199      352.316       34.877      861.227
07/22/2013  13:01:00      -69.904      -19.145       28.417       93.043       62.988       40.373     8656.936     3967.504     1629.978        1.015        0.713       72.479       35.526        0.240      352.134       34.561      861.217
07/22/2013  13:02:00      -53.280       96.290       17.673       61.630       64.384       56.294     3798.283     4145.307     3169.012        1.177        0.556      110.048       49.211        0.200      352.411       35.043      861.226
07/22/2013  13:03:00       -9.542       95.748       18.753       68.651       62.669       44.436     4712.951     3927.395     1974.602        1.011        0.531       96.223       43.030        0.200      352.259       34.778      861.206
07/22/2013  13:04:00     -178.350      135.303      -13.291       86.488      127.254       51.338     7480.157    16193.488     2635.627        3.830        1.315      223.865       48.640        0.047      352.053       34.413      861.210
07/22/2013  13:05:00     -174.335      102.654      -26.754       95.597       78.852       43.705     9138.763     6217.662     1910.129        2.945        0.863      202.313       52.421        0.067      351.794       33.962      861.213
07/22/2013  13:06:00     -220.390      189.783      -65.910       80.342       77.965       45.767     6454.871     6078.580     2094.592        5.178        0.731      290.843       50.073        0.030      351.314       33.124      861.209
07/22/2013  13:07:00      -98.375       70.678       -2.793       69.856       67.465       45.365     4879.895     4551.588     2057.939        1.308        0.574      121.133       44.189        0.133      351.724       33.844      861.195
07/22/2013  13:08:00     -114.492       85.932      -30.290       77.818       62.209       38.636     6055.632     3869.974     1492.778        1.641        0.571      143.153       25.700        0.032      351.592       33.612      861.159
07/22/2013  13:09:00     -167.598       38.067      -20.118      121.693      112.698       48.959    14809.270    12700.865     2396.970        2.992        1.495      171.867       40.184        0.055      351.831       34.027      861.126
07/22/2013  13:10:00     -128.209       26.816        3.644      157.454       97.695       74.332    24791.767     9544.241     5525.235        2.851        1.993      130.983       82.770        0.399      352.028       34.374      861.110
07/22/2013  13:11:00      -48.162      117.632        4.313       48.971       76.995       43.985     2398.133     5928.177     1934.712        1.322        0.513      127.109       37.420        0.087      352.240       34.744      861.126
07/22/2013  13:12:00      -91.539      143.182      -17.109       98.729       91.103       56.599     9747.379     8299.678     3203.442        2.521        1.063      169.943       47.973        0.080      352.024       34.367      861.111
07/22/2013  13:13:00      -10.768       63.236       11.109       64.368       58.438       50.343     4143.274     3415.035     2534.391        0.716        0.505       64.146       42.256        0.434      352.078       34.462      861.079
07/22/2013  13:14:00      -37.650      171.780        0.060       60.302       87.984       46.602     3636.325     7741.197     2171.780        2.223        0.677      175.858       45.527        0.067      351.962       34.258      861.060
07/22/2013  13:15:00       24.738      231.002      -15.363       64.363      132.059       59.639     4142.536    17439.541     3556.755        3.967        1.257      232.322       71.402        0.094      351.901       34.151      861.039
07/22/2013  13:16:00      -37.798      225.301      -24.614       98.837       91.478       48.941     9768.758     8368.146     2395.227        3.666        1.027      228.449       42.026        0.034      351.637       33.689      861.017
07/22/2013  13:17:00      -29.296      320.102      -33.354       48.329       98.009       40.774     2335.690     9605.821     1662.509        5.902        0.680      321.440       46.860        0.021      351.616       33.652      861.013
07/22/2013  13:18:00      -13.043      378.240      -45.301       63.802      148.672       61.014     4070.652    22103.297     3722.659        8.759        1.495      378.465       76.704        0.041      351.690       33.781      861.010
07/22/2013  13:19:00      -37.519      362.947      -33.255       55.633       79.500       39.828     3095.077     6320.234     1586.297        7.262        0.550      364.881       32.922        0.008      351.533       33.506      861.008
07/22/2013  13:20:00        0.580      281.128      -20.185       82.707       80.319       64.120     6840.433     6451.202     4111.401        4.842        0.870      281.129       56.250        0.040      351.889       34.128      860.990
07/22/2013  13:21:00      -53.007      272.075      -23.748       73.819      119.301       59.849     5449.177    14232.772     3581.864        5.033        1.163      277.190       66.873        0.058      351.721       33.836      860.992
07/22/2013  13:22:00       -8.214      178.161      -13.484       54.639       85.150       28.680     2985.447     7250.587      822.540        2.152        0.553      178.350       37.283        0.044      351.352       33.192      860.962
07/22/2013  13:23:00        4.468      110.462       -2.201       60.287       56.205       38.680     3634.562     3159.053     1496.163        1.026        0.414      110.552       37.113        0.113      351.628       33.675      860.929
07/22/2013  13:24:00      -58.522      177.696      -33.966       74.374       76.605       33.646     5531.486     5868.389     1132.077        2.434        0.627      187.085       34.424        0.034      351.561       33.557      860.921
07/22/2013  13:25:00      -77.276      136.451       -7.819       78.734      112.196       49.218     6199.054    12587.870     2422.428        2.293        1.060      156.813       42.350        0.073      351.846       34.055      860.932
07/22/2013  13:26:00     -140.497      170.431      -24.875       76.943      126.336       55.258     5920.298    15960.785     3053.499        3.716        1.247      220.876       55.886        0.064      351.740       33.869      860.941
07/22/2013  13:27:00     -104.786      142.320       -8.644       63.455       75.817       48.513     4026.594     5748.177     2353.549        2.172        0.606      176.735       41.263        0.055      351.820       34.009      860.954
07/22/2013  13:28:00      -18.740      163.169        3.221       59.409       75.869       48.734     3529.435     5756.123     2374.964        1.932        0.583      164.242       42.301        0.066      351.821       34.011      860.939
07/22/2013  13:29:00       -5.733       12.394        9.405       54.738       38.154       35.943     2996.240     1455.700     1291.882        0.301        0.287       13.655       31.880        5.450      351.821       34.013      860.893
07/22/2013  13:30:00     -102.744      148.175      -34.279       77.996       59.724       29.649     6083.308     3567.007      879.034        2.211        0.526      180.311       31.344        0.030      351.619       33.658      860.899
07/22/2013  13:31:00     -145.616      270.701      -44.310       82.913       78.456       45.720     6874.540     6155.317     2090.325        5.578        0.756      307.380       42.882        0.019      351.681       33.764      860.919
07/22/2013  13:32:00     -142.060      216.637      -35.847       78.650       66.797       43.032     6185.872     4461.860     1851.786        4.045        0.625      259.061       45.605        0.031      351.680       33.764      860.927
07/22/2013  13:33:00     -129.645      158.777      -40.747       71.342       63.551       37.879     5089.640     4038.777     1434.847        2.712        0.528      204.983       48.422        0.056      351.597       33.619      860.913
07/22/2013  13:34:00      -55.949       27.762        9.381       38.125       32.986       25.055     1453.546     1088.092      627.773        0.358        0.158       62.458       18.780        0.090      352.343       34.926      860.891
07/22/2013  13:35:00      -18.871       37.676        2.068       34.207       57.292       29.974     1170.129     3282.372      898.428        0.356        0.268       42.138       22.981        0.297      352.395       35.015      860.882
07/22/2013  13:36:00     -123.245      111.143       -8.740      109.945       53.531       44.926    12087.914     2865.570     2018.333        2.229        0.849      165.958       48.278        0.085      351.985       34.298      860.896
07/22/2013  13:37:00     -205.758      105.475      -27.023      113.704       71.088       56.822    12928.695     5053.498     3228.788        3.770        1.061      231.217       67.990        0.086      351.838       34.041      860.888
07/22/2013  13:38:00      -21.453       93.287        4.433       55.803       67.977       37.068     3113.922     4620.929     1374.009        0.914        0.455       95.722       37.736        0.155      352.037       34.391      860.878
07/22/2013  13:39:00     -107.399      -11.337       -5.882       88.949       79.554       46.992     7911.908     6328.891     2208.211        1.407        0.822      107.996       36.364        0.113      351.992       34.310      860.853
07/22/2013  13:40:00     -121.955       30.625       -6.031       90.387      101.662       56.284     8169.822    10335.243     3167.933        1.876        1.084      125.742       57.544        0.209      352.108       34.512      860.840
07/22/2013  13:41:00      -26.204      112.287       14.793       53.651       84.706       45.625     2878.479     7175.183     2081.667        1.282        0.607      115.304       43.586        0.143      352.164       34.612      860.833
07/22/2013  13:42:00      -79.587      198.756       -9.826       65.858       63.179       41.832     4337.313     3991.633     1749.915        2.800        0.504      214.098       30.567        0.020      352.022       34.361      860.829
07/22/2013  13:43:00     -101.256      160.462      -24.964       98.991       75.019       47.424     9799.190     5627.792     2249.005        2.715        0.884      189.739       56.370        0.088      351.823       34.015      860.824
07/22/2013  13:44:00     -138.606      190.545      -28.972       58.392       63.029       41.352     3409.579     3972.613     1709.951        3.272        0.455      235.625       39.795        0.029      351.662       33.732      860.808
07/22/2013  13:45:00     -147.425        0.644      -10.358       67.474       71.184       45.361     4552.679     5067.119     2057.644        1.676        0.584      147.426       36.270        0.061      352.170       34.620      860.774
07/22/2013  13:46:00     -193.249       -4.829      -15.944       57.867       93.424       33.684     3348.606     8728.124     1134.578        2.541        0.661      193.309       29.915        0.024      351.827       34.020      860.768
07/22/2013  13:47:00      -37.386       17.895       26.807       45.394       34.949       35.970     2060.641     1221.412     1293.847        0.351        0.229       41.449       29.149        0.495      352.132       34.558      860.760
07/22/2013  13:48:00      -11.421       -0.003       39.085       25.706       39.519       26.071      660.797     1561.736      679.686        0.228        0.145       11.421       23.615        4.275      352.283       34.821      860.744
07/22/2013  13:49:00       23.246       47.414        3.679       18.321       36.458       22.304      335.646     1329.161      497.469        0.248        0.108       52.806        8.646        0.027      351.774       33.931      860.731
07/22/2013  13:50:00       -2.611      -32.276      -10.840       45.510       39.106       23.351     2071.146     1529.306      545.259        0.266        0.207       32.382       22.377        0.478      351.922       34.188      860.718
07/22/2013  13:51:00       43.602       92.837        8.775       59.374      102.762       35.507     3525.235    10560.103     1260.738        1.297        0.767      102.566       43.267        0.178      351.971       34.273      860.711
07/22/2013  13:52:00       86.977       68.354      -14.184       65.205       50.960       37.433     4251.752     2596.939     1401.231        1.034        0.412      110.622       33.414        0.091      351.927       34.199      860.708
07/22/2013  13:53:00      -15.618      113.945        9.249       51.413       57.112       43.252     2643.309     3261.803     1870.720        1.054        0.389      115.011       21.632        0.035      352.257       34.775      860.694
07/22/2013  13:54:00       -1.415       88.915       -8.515       40.404       71.410       34.793     1632.504     5099.321     1210.552        0.796        0.397       88.926       42.849        0.232      352.369       34.971      860.680
07/22/2013  13:55:00      -88.458       98.180      -15.120       63.718       40.500       38.222     4059.992     1640.224     1460.955        1.243        0.358      132.152       41.430        0.098      352.244       34.750      860.677
07/22/2013  13:56:00     -113.244      154.272       -7.183       56.702       90.142       49.910     3215.147     8125.498     2491.028        2.525        0.692      191.374       39.022        0.042      352.143       34.574      860.696
07/22/2013  13:57:00     -207.711      212.718      -43.277       71.841      112.560       51.661     5161.063    12669.803     2668.875        5.538        1.025      297.309       52.406        0.031      351.847       34.054      860.688
07/22/2013  13:58:00     -226.385       80.350      -25.799      112.842       98.085       46.271    12733.261     9620.609     2140.975        4.143        1.225      240.221       54.534        0.052      351.967       34.265      860.677
07/22/2013  13:59:00     -233.569      -17.031      -15.716       58.532       69.688       40.894     3426.015     4856.351     1672.297        3.252        0.498      234.189       33.086        0.020      352.022       34.360      860.662
07/22/2013  14:00:00      -55.969       69.455        8.313       54.296       90.119       49.519     2948.027     8121.468     2452.177        1.077        0.676       89.200       34.492        0.150      352.471       35.149      860.680
07/22/2013  14:01:00      -54.456       82.226        6.107       51.317       84.462       44.214     2633.444     7133.864     1954.861        1.074        0.586       98.624       48.656        0.243      352.326       34.895      860.670
07/22/2013  14:02:00      -72.490      -11.429        0.370      151.455       48.847       42.594    22938.571     2386.005     1814.209        1.626        1.357       73.385       60.734        0.685      352.240       34.744      860.628
07/22/2013  14:03:00      -82.247       58.304        7.654      109.657       95.574       50.310    12024.635     9134.324     2531.128        1.695        1.185      100.816       62.295        0.382      352.434       35.082      860.632
07/22/2013  14:04:00     -107.712      279.823      -33.372      103.734      120.546       52.357    10760.659    14531.224     2741.272        5.952        1.402      299.838       51.451        0.029      352.069       34.442      860.648
07/22/2013  14:05:00      -63.460       57.961       -3.744       61.438       62.649       48.931     3774.575     3924.836     2394.212        0.875        0.505       85.946       31.562        0.135      352.099       34.499      860.652
07/22/2013  14:06:00      -52.596      -40.255       16.715      101.707       72.116       45.319    10344.225     5200.735     2053.849        1.113        0.880       66.233       56.955        0.739      352.507       35.211      860.629
07/22/2013  14:07:00      -82.126       42.808        9.648       82.337      111.670       48.177     6779.328    12470.220     2321.056        1.512        1.079       92.614       45.809        0.245      352.010       34.341      860.620
07/22/2013  14:08:00        2.573       57.129       15.940       46.851       43.843       40.101     2195.025     1922.166     1608.088        0.462        0.286       57.186       31.344        0.300      351.999       34.324      860.604
07/22/2013  14:09:00     -113.400      -35.900        6.845      139.431       68.448       50.472    19440.932     4685.158     2547.449        2.043        1.334      118.947       62.737        0.278      351.991       34.307      860.580
07/22/2013  14:10:00     -193.914      -68.543       10.269      101.863       96.101       48.193    10376.085     9235.398     2322.611        3.217        1.097      205.672       53.314        0.067      352.034       34.380      860.559
07/22/2013  14:11:00     -134.747      -77.439       -6.802       80.180       86.977       43.446     6428.909     7564.914     1887.516        2.004        0.794      155.414       43.179        0.077      351.982       34.292      860.556
07/22/2013  14:12:00      -98.404      -15.218      -23.964       97.877       68.401       38.135     9579.834     4678.667     1454.289        1.310        0.786       99.574       28.587        0.082      352.045       34.403      860.543
07/22/2013  14:13:00       37.175       80.463       38.421       62.044       64.499       55.920     3849.408     4160.179     3127.011        1.023        0.557       88.636       45.391        0.262      352.331       34.905      860.549
07/22/2013  14:14:00       19.709      201.175      -17.272       94.018      103.762       55.576     8839.370    10766.634     3088.662        3.192        1.135      202.138       57.194        0.080      352.065       34.437      860.547
07/22/2013  14:15:00       60.737      189.978      -14.239       69.393      100.480       60.681     4815.438    10096.322     3682.146        2.928        0.930      199.450       56.163        0.079      351.930       34.200      860.526
07/22/2013  14:16:00       95.579       98.571       -6.897       59.692       46.890       35.889     3563.112     2198.666     1288.006        1.297        0.352      137.301       20.471        0.022      351.884       34.123      860.519
07/22/2013  14:17:00       74.549       60.362       23.078       43.428       26.375       34.374     1886.013      695.662     1181.565        0.675        0.188       95.923       21.312        0.049      352.010       34.342      860.516
07/22/2013  14:18:00      112.154       93.086       33.704       46.388       49.193       47.303     2151.870     2419.904     2237.589        1.459        0.340      145.752       33.575        0.053      351.792       33.962      860.498
07/22/2013  14:19:00       56.999       47.469       36.622       56.803       50.843       51.870     3226.534     2585.017     2690.488        0.767        0.425       74.176       39.516        0.284      351.652       33.718      860.485
07/22/2013  14:20:00      -17.291       94.795       -8.758       29.571       64.150       23.899      874.450     4115.252      571.142        0.746        0.278       96.359       29.904        0.096      351.972       34.277      860.497
07/22/2013  14:21:00      -92.865       90.358      -25.435       40.014       45.665       25.947     1601.152     2085.252      673.250        1.090        0.218      129.571       23.095        0.032      351.936       34.214      860.505
07/22/2013  14:22:00     -101.366      133.405      -19.869       72.008       77.141       47.058     5185.212     5950.787     2214.489        2.091        0.668      167.547       49.866        0.089      352.111       34.517      860.477
07/22/2013  14:23:00     -108.223       77.520      -15.502       51.536       95.440       40.288     2655.970     9108.723     1623.118        1.567        0.669      133.123       38.794        0.085      352.082       34.469      860.464
07/22/2013  14:24:00       19.618      119.271        3.315       57.974       67.828       49.408     3361.030     4600.589     2441.164        1.251        0.520      120.874       43.547        0.130      352.154       34.595      860.453
07/22/2013  14:25:00        5.181       65.599        1.327       48.721       64.357       38.290     2373.724     4141.785     1466.127        0.616        0.399       65.803       35.007        0.283      352.319       34.884      860.438
07/22/2013  14:26:00      -48.718      132.941      -11.830       64.405       81.534       44.374     4148.035     6647.840     1969.068        1.647        0.638      141.586       44.516        0.099      352.245       34.753      860.434
07/22/2013  14:27:00      -36.257      206.901       -7.222       42.490       64.271       44.111     1805.421     4130.745     1945.811        2.603        0.394      210.054       38.441        0.033      352.069       34.443      860.421
07/22/2013  14:28:00       16.540      148.453       -4.118       52.234      103.428       49.145     2728.411    10697.455     2415.208        1.908        0.792      149.372       45.135        0.091      352.280       34.813      860.401
07/22/2013  14:29:00      -51.041       90.894        1.541       40.734       57.431       40.108     1659.247     3298.287     1608.626        0.872        0.328      104.244       28.887        0.077      352.605       35.383      860.378
07/22/2013  14:30:00      -12.503       87.694       12.435       44.055       82.417       42.841     1940.839     6792.555     1835.380        0.928        0.528       88.580       44.417        0.251      352.614       35.398      860.378
07/22/2013  14:31:00        0.354      136.662       -2.922       44.611       84.657       43.440     1990.138     7166.793     1887.035        1.486        0.552      136.662       44.180        0.105      352.466       35.139      860.369
07/22/2013  14:32:00       -1.482      130.793      -12.611       47.988       48.073       34.968     2302.816     2310.987     1222.781        1.155        0.292      130.802       27.957        0.046      352.204       34.683      860.355
07/22/2013  14:33:00       20.469       41.020        9.106       41.248       34.409       32.453     1701.410     1183.981     1053.226        0.306        0.197       45.843       19.486        0.181      352.421       35.062      860.323
07/22/2013  14:34:00       44.998       -2.946       36.954       39.700       33.225       29.347     1576.084     1103.922      861.249        0.347        0.177       45.095       18.888        0.175      352.064       34.438      860.298
07/22/2013  14:35:00       43.864       18.908       31.808       59.465       52.710       37.637     3536.119     2778.307     1416.577        0.551        0.387       47.766       29.792        0.389      352.423       35.066      860.267
07/22/2013  14:36:00       40.226       70.444       18.848       53.472       37.351       42.190     2859.247     1395.095     1780.032        0.648        0.302       81.121       28.176        0.121      352.579       35.338      860.263
07/22/2013  14:37:00      -45.702      -52.281       -3.411       82.758       62.578       29.371     6848.814     3916.014      862.676        0.823        0.581       69.440       32.387        0.218      352.583       35.343      860.243
07/22/2013  14:38:00      -96.372      -26.677       -3.020       41.793       57.945       27.292     1746.663     3357.660      744.871        0.793        0.292       99.996       15.778        0.025      352.714       35.575      860.227
07/22/2013  14:39:00      -73.793      -10.866       -5.777       57.822       38.807       35.502     3343.405     1506.004     1260.362        0.585        0.305       74.589       32.218        0.187      352.528       35.249      860.221
07/22/2013  14:40:00      -75.367       23.703        8.337       59.980       61.010       39.514     3597.649     3722.177     1561.354        0.759        0.444       79.006       35.182        0.198      352.960       36.004      860.207
07/22/2013  14:41:00      108.999       95.903       44.233       98.062       64.367       52.621     9616.157     4143.051     2768.979        1.978        0.826      145.183       49.759        0.117      352.501       35.199      860.205
07/22/2013  14:42:00      163.726       92.055       22.754      123.697       79.743       66.632    15300.878     6358.988     4439.855        3.094        1.305      187.831       51.998        0.077      352.299       34.846      860.190
07/22/2013  14:43:00      116.186      122.350       16.601      102.643       90.888       65.486    10535.493     8260.709     4288.396        2.591        1.154      168.727       51.708        0.094      352.567       35.314      860.185
07/22/2013  14:44:00      170.970      149.223       11.032      123.011       86.979       72.112    15131.661     7565.382     5200.168        3.975        1.395      226.932       47.521        0.044      352.318       34.879      860.171
07/22/2013  14:45:00      199.106      133.027       23.089      104.709       79.400       55.118    10964.063     6304.351     3037.954        3.909        1.015      239.456       41.677        0.030      352.362       34.954      860.176
07/22/2013  14:46:00      106.798      140.497       -8.300      105.472       71.310       52.389    11124.301     5085.048     2744.604        2.508        0.948      176.480       44.013        0.062      352.391       35.007      860.179
07/22/2013  14:47:00       77.269      125.376        2.896       66.308       88.517       68.049     4396.755     7835.284     4630.727        1.928        0.843      147.274       60.734        0.170      352.332       34.904      860.164
07/22/2013  14:48:00      115.970       79.833       27.013      101.573       67.417       53.248    10317.026     4545.116     2835.390        1.912        0.885      140.791       33.202        0.056      352.106       34.510      860.124
07/22/2013  14:49:00      201.132       89.569       47.087       93.492       60.022       58.133     8740.712     3602.631     3379.411        3.321        0.786      220.174       35.286        0.026      352.281       34.814      860.092
07/22/2013  14:50:00       50.240       76.178       71.596       52.062       49.340       46.044     2710.442     2434.393     2120.064        1.036        0.363       91.253       36.932        0.164      352.547       35.282      860.076
07/22/2013  14:51:00       19.604      -59.835       19.589       40.879       50.220       38.735     1671.070     2522.075     1500.430        0.502        0.285       62.965       27.445        0.190      352.102       34.504      860.071
07/22/2013  14:52:00        9.466      -85.696       -4.089       66.285       50.203       33.547     4393.642     2520.361     1125.390        0.774        0.402       86.217       36.791        0.182      352.163       34.611      860.060
07/22/2013  14:53:00       33.053      -91.985        0.254       54.507       49.270       32.195     2970.968     2427.565     1036.541        0.799        0.322       97.743       28.804        0.087      352.668       35.495      860.038
07/22/2013  14:54:00       -1.992      -46.969        6.099       20.356       55.753       29.553      414.386     3108.434      873.361        0.332        0.220       47.011       31.522        0.450      352.996       36.068      860.026
07/22/2013  14:55:00      -58.130      108.679       -2.318       60.250       76.832       43.668     3630.073     5903.182     1906.929        1.332        0.572      123.248       51.607        0.175      352.816       35.751      860.035
07/22/2013  14:56:00       28.495      130.688       -3.061       81.548       89.047       62.323     6650.035     7929.385     3884.122        1.818        0.923      133.758       51.875        0.150      352.781       35.690      860.015
07/22/2013  14:57:00      174.501       88.249       21.352       80.910       71.626       53.875     6546.372     5130.249     2902.500        2.663        0.729      195.547       35.764        0.033      352.887       35.874      859.983
07/22/2013  14:58:00       17.481       54.129        7.637       87.476       90.223       50.933     7652.019     8140.142     2594.166        1.084        0.919       56.882       47.908        0.709      352.938       35.966      859.980
07/22/2013  14:59:00      -43.764      306.276      -32.059       85.686      110.533       55.561     7342.150    12217.611     3086.983        5.969        1.132      309.387       53.486        0.030      352.510       35.212      859.996
07/22/2013  15:00:00        1.235      293.089      -37.328       63.658       64.057       38.286     4052.386     4103.337     1465.800        4.846        0.481      293.091       35.420        0.015      352.307       34.857      859.995
07/22/2013  15:01:00       49.923       54.902        9.831       49.431       51.953       35.740     2443.454     2699.078     1277.344        0.601        0.321       74.206       21.443        0.084      352.847       35.807      859.986
07/22/2013  15:02:00       25.445       27.818       12.449       49.203       27.364       31.945     2420.967      748.816     1020.472        0.288        0.210       37.700       25.271        0.449      352.643       35.450      859.958
07/22/2013  15:03:00       83.115       49.639       22.744       23.200       31.742       39.692      538.246     1007.584     1575.447        0.650        0.156       96.810       20.290        0.044      351.996       34.318      859.938
07/22/2013  15:04:00      107.159       82.455       27.967       83.673       60.585       55.711     7001.166     3670.519     3103.698        1.642        0.689      135.211       24.254        0.032      352.624       35.416      859.924
07/22/2013  15:05:00      248.706      185.349       38.513      102.010       82.317       69.893    10406.080     6776.072     4885.092        5.988        1.103      310.176       52.326        0.028      352.418       35.050      859.901
07/22/2013  15:06:00       84.377       65.272       35.671       95.621       53.568       44.382     9143.383     2869.521     1969.780        1.331        0.699      106.677       41.408        0.151      352.336       34.912      859.906
07/22/2013  15:07:00      103.115       73.301       33.786       54.158       41.536       43.433     2933.108     1725.199     1886.414        1.184        0.327      126.514       20.990        0.028      352.233       34.733      859.906
07/22/2013  15:08:00       45.941       61.975       30.811       56.967       36.275       36.073     3245.235     1315.902     1301.280        0.638        0.293       77.146       21.563        0.078      352.590       35.358      859.890
07/22/2013  15:09:00       95.418      156.751       -8.409       64.053       85.169       62.490     4102.832     7253.837     3904.986        2.450        0.763      183.509       55.006        0.090      352.595       35.362      859.902
07/22/2013  15:10:00       -1.088      219.248      -25.914       55.149       63.627       35.400     3041.450     4048.344     1253.141        2.854        0.417      219.251       35.926        0.027      352.326       34.891      859.900
07/22/2013  15:11:00       -8.352      163.179      -26.906       40.200       46.231       25.721     1616.001     2137.263      661.559        1.592        0.221      163.393       18.752        0.013      352.302       34.853      859.900
07/22/2013  15:12:00      -28.642        5.534      -13.653       35.286       69.762       28.867     1245.122     4866.758      833.291        0.399        0.347       29.171       35.462        1.478      352.231       34.731      859.866
07/22/2013  15:13:00       14.368     -118.685      -20.094       29.951       39.123       27.149      897.081     1530.598      737.053        0.893        0.158      119.551       14.816        0.015      352.151       34.589      859.836
07/22/2013  15:14:00      -10.230      -56.093      -12.131       24.478       40.626       20.523      599.171     1650.477      421.202        0.303        0.134       57.018       14.372        0.064      352.245       34.753      859.777
07/22/2013  15:15:00      -34.888      -27.652        3.526       40.090       39.596       23.511     1607.211     1567.804      552.787        0.286        0.186       44.518       15.218        0.117      352.596       35.367      859.745
07/22/2013  15:16:00       26.845       16.477       29.986       51.649       35.881       34.577     2667.667     1287.422     1195.552        0.352        0.258       31.499       33.864        1.156      352.458       35.128      859.751
07/22/2013  15:17:00       52.252        4.500       23.695       37.122       55.121       34.377     1378.015     3038.284     1181.780        0.445        0.280       52.446       19.626        0.140      352.326       34.895      859.750
07/22/2013  15:18:00       92.604       32.106       49.223       95.679       80.121       52.585     9154.496     6419.382     2765.171        1.518        0.917       98.012       39.188        0.160      352.270       34.796      859.714
07/22/2013  15:19:00      193.249      120.986       21.625      114.550      103.748       71.616    13121.605    10763.577     5128.901        4.073        1.451      227.997       54.332        0.057      352.615       35.398      859.705
07/22/2013  15:20:00       96.288       94.069        9.097       57.675       60.830       50.288     3326.427     3700.251     2528.916        1.388        0.478      134.612       37.144        0.076      352.622       35.413      859.703
07/22/2013  15:21:00      -23.903      199.615      -27.684       86.922      115.932       39.241     7555.493    13440.243     1539.881        3.186        1.127      201.041       58.370        0.084      352.498       35.192      859.703
07/22/2013  15:22:00      -41.442      132.174      -13.762       31.644       52.551       26.080     1001.342     2761.627      680.146        1.191        0.222      138.518       22.917        0.027      352.439       35.092      859.704
07/22/2013  15:23:00      -37.628      134.973       -3.881       38.157       62.351       35.295     1455.950     3887.634     1245.754        1.312        0.329      140.120       33.062        0.056      352.488       35.179      859.697
07/22/2013  15:24:00      -58.344       63.236       -1.187       73.909       44.396       36.598     5462.528     1970.988     1339.392        0.809        0.439       86.040       41.453        0.232      352.649       35.461      859.698
07/22/2013  15:25:00      -32.578      187.166       -5.827       57.670      120.449       55.510     3325.781    14507.995     3081.335        2.852        1.046      189.980       67.840        0.128      352.640       35.442      859.714
07/22/2013  15:26:00      -17.340       69.851        0.387       27.018       60.520       26.555      729.947     3662.705      705.183        0.514        0.255       71.971       23.034        0.102      352.776       35.682      859.696
07/22/2013  15:27:00       53.039       -0.471       13.394       40.599       26.427       29.413     1648.309      698.397      865.136        0.310        0.161       53.042       21.096        0.158      352.152       34.592      859.661
07/22/2013  15:28:00       -2.909       18.286       14.956       19.224       28.230       21.049      369.549      796.910      443.075        0.109        0.080       18.516       14.575        0.620      352.644       35.451      859.658
07/22/2013  15:29:00       16.705       24.376       27.288       27.911       21.109       19.967      779.036      445.602      398.666        0.162        0.081       29.550       15.094        0.261      352.562       35.309      859.650
07/22/2013  15:30:00       -2.799       18.592       32.178       16.199       23.988       19.938      262.400      575.409      397.541        0.131        0.062       18.801       14.489        0.594      352.266       34.789      859.628
07/22/2013  15:31:00      -31.972      -19.013       16.264       77.664       53.014       31.471     6031.682     2810.519      990.418        0.574        0.492       37.199       38.965        1.097      352.605       35.385      859.623
07/22/2013  15:32:00      -24.286        5.742        1.512       51.486       38.033       26.824     2650.793     1446.490      719.552        0.272        0.241       24.955       14.066        0.318      352.342       34.925      859.613
07/22/2013  15:33:00     -127.946      -26.085       -2.124       73.709       89.247       46.452     5433.061     7965.037     2157.821        1.630        0.778      130.578       24.598        0.035      352.929       35.949      859.601
07/22/2013  15:34:00     -112.858      -10.531        2.527       77.194       56.555       42.862     5958.877     3198.433     1837.147        1.192        0.550      113.348       45.575        0.162      352.785       35.698      859.605
07/22/2013  15:35:00     -143.113       42.835      -19.114       51.673       36.087       26.998     2670.098     1302.245      728.916        1.369        0.235      149.386       21.091        0.020      352.505       35.209      859.609
07/22/2013  15:36:00     -125.345       12.000       -9.459       78.034       44.084       22.589     6089.267     1943.382      510.260        1.224        0.427      125.918       26.260        0.043      352.456       35.123      859.591
07/22/2013  15:37:00        0.746       -8.185       18.880       52.843       36.589       39.121     2792.381     1338.758     1530.415        0.304        0.283        8.219       30.569       13.832      352.841       35.796      859.564
07/22/2013  15:38:00       23.831       17.379        9.974       27.117       34.282       26.854      735.340     1175.274      721.164        0.180        0.132       29.495       20.287        0.473      352.860       35.830      859.557
07/22/2013  15:39:00       44.062       59.611        4.029       39.341       53.596       33.541     1547.742     2872.516     1124.980        0.553        0.277       74.127       35.220        0.226      352.607       35.386      859.538
07/22/2013  15:40:00      -31.858        5.060        3.946       85.261       68.751       29.008     7269.435     4726.744      841.460        0.694        0.642       32.257       24.749        0.589      352.780       35.689      859.522
07/22/2013  15:41:00      -33.829       12.539       25.449       54.782       58.685       30.941     3001.037     3443.912      957.346        0.467        0.370       36.078       30.701        0.724      352.604       35.383      859.512
07/22/2013  15:42:00     -170.967       61.937      -25.364      117.586       90.422       44.490    13826.523     8176.150     1979.385        2.884        1.199      181.840       37.281        0.042      352.743       35.622      859.498
07/22/2013  15:43:00     -266.244        0.548      -25.789       70.348       71.767       35.361     4948.891     5150.527     1250.400        4.145        0.567      266.245       22.875        0.007      352.627       35.418      859.489
07/22/2013  15:44:00      -68.982       36.988       -2.317       45.153       35.053       36.338     2038.829     1228.729     1320.467        0.536        0.229       78.273       21.130        0.073      352.563       35.309      859.470
07/22/2013  15:45:00     -118.285      -13.347       -0.513       64.624       49.395       29.715     4176.277     2439.896      882.952        1.083        0.375      119.036       36.302        0.093      352.882       35.868      859.454
07/22/2013  15:46:00      -33.724       -9.846       21.382       64.929       42.643       33.976     4215.772     1818.464     1154.357        0.444        0.359       35.132       39.975        1.295      353.029       36.125      859.441
07/22/2013  15:47:00      -20.521       29.515        1.116       56.681       28.835       25.187     3212.782      831.474      634.405        0.299        0.234       35.948       24.714        0.473      352.928       35.951      859.437
07/22/2013  15:48:00     -114.066       38.156       -8.185       46.439       70.815       31.592     2156.574     5014.825      998.045        1.135        0.408      120.278       27.888        0.054      352.782       35.694      859.429
07/22/2013  15:49:00      -76.373       62.998       -2.909       58.796       39.147       27.072     3456.951     1532.484      732.916        0.777        0.286       99.004       24.372        0.061      352.737       35.616      859.418
07/22/2013  15:50:00     -121.562        8.819       -5.991       51.880       50.806       28.460     2691.521     2581.225      809.955        1.049        0.304      121.881       25.539        0.044      352.662       35.484      859.403
07/22/2013  15:51:00        8.364      144.813       -0.167       64.108       93.386       47.597     4109.792     8720.987     2265.433        1.807        0.755      145.054       47.136        0.106      352.759       35.652      859.383
07/22/2013  15:52:00      -60.397      134.603      -10.175       38.936       44.317       33.508     1516.014     1963.985     1122.782        1.324        0.230      147.533       28.013        0.036      352.674       35.504      859.373
07/22/2013  15:53:00      -32.801       61.860        7.577       34.412       53.782       25.416     1184.191     2892.491      645.963        0.484        0.236       70.019       29.138        0.173      352.894       35.890      859.375
07/22/2013  15:54:00      101.511       85.532       16.515       63.978       57.517       36.128     4093.137     3308.164     1305.259        1.330        0.435      132.741       25.776        0.038      352.754       35.643      859.356
07/22/2013  15:55:00       47.309      192.146      -19.666       95.839       61.530       56.173     9185.157     3785.916     3155.412        2.783        0.806      197.884       43.510        0.048      352.616       35.398      859.336
07/22/2013  15:56:00       34.506       84.291       -3.470       48.956       54.064       37.556     2396.646     2922.935     1410.452        0.752        0.337       91.080       31.584        0.120      352.764       35.660      859.330
07/22/2013  15:57:00       32.739       39.627       -1.726       38.578       34.501       30.196     1488.286     1190.333      911.786        0.312        0.180       51.401       24.035        0.219      352.438       35.090      859.327
07/22/2013  15:58:00      -66.693       99.661      -26.329       60.861       46.718       20.542     3704.113     2182.591      421.985        1.069        0.315      119.918       29.080        0.059      352.767       35.665      859.341
07/22/2013  15:59:00        0.436      145.845        0.272       75.721       92.951       51.972     5733.612     8639.898     2701.101        1.917        0.854      145.846       56.381        0.149      353.042       36.147      859.340
07/22/2013  16:00:00     -207.777      127.326      -49.865      139.545       76.710       45.405    19472.907     5884.464     2061.571        4.464        1.371      243.686       63.729        0.068      352.911       35.915      859.329
07/22/2013  16:01:00     -176.787      185.161      -43.963      103.832       66.208       43.190    10781.124     4383.538     1865.350        4.225        0.852      256.004       51.170        0.040      353.014       36.094      859.350
07/22/2013  16:02:00     -124.696      155.430      -25.188       70.784       75.737       48.420     5010.363     5736.035     2344.518        2.671        0.655      199.267       44.971        0.051      352.954       35.991      859.355
07/22/2013  16:03:00      -71.586      204.432      -14.115       70.772      108.085       40.849     5008.744    11682.320     1668.676        3.273        0.918      216.604       39.556        0.033      352.742       35.621      859.359
07/22/2013  16:04:00      -54.773      233.561      -17.580       43.909       60.912       31.884     1927.960     3710.215     1016.596        3.226        0.333      239.897       28.476        0.014      352.570       35.318      859.357
07/22/2013  16:05:00     -110.708       71.640      -20.576       83.755       68.614       42.312     7014.974     4707.838     1790.291        1.566        0.676      131.866       49.983        0.144      352.655       35.469      859.323
07/22/2013  16:06:00      -71.657       61.792      -16.401       42.305       45.014       25.842     1789.685     2026.305      667.796        0.685        0.224       94.621       19.058        0.041      352.692       35.535      859.301
07/22/2013  16:07:00     -163.246       24.270      -11.050      106.468       88.958       41.510    11335.532     7913.455     1723.103        2.416        1.049      165.041       33.019        0.040      352.899       35.897      859.297
07/22/2013  16:08:00      -76.553       24.235        0.360       88.868       58.195       45.078     7897.590     3386.648     2032.053        0.988        0.666       80.297       38.479        0.230      353.071       36.199      859.282
07/22/2013  16:09:00     -218.116      -79.022       -6.475      101.446       59.581       52.552    10291.376     3549.845     2761.724        3.523        0.830      231.989       54.449        0.055      352.723       35.586      859.275
07/22/2013  16:10:00     -109.925       -6.442        1.746       90.514       52.763       31.398     8192.744     2783.897      985.834        1.204        0.598      110.114       36.198        0.108      352.987       36.052      859.274
07/22/2013  16:11:00      -65.034        4.479       10.246       38.738       50.075       30.433     1500.670     2507.463      926.141        0.464        0.247       65.188       24.020        0.136      353.219       36.460      859.268
07/22/2013  16:12:00     -121.696      -30.163       11.895       99.056       95.207       51.301     9812.050     9064.322     2631.821        1.868        1.075      125.378       31.894        0.065      353.156       36.347      859.249
07/22/2013  16:13:00      -61.706        6.060       -0.648       81.969       64.673       39.515     6718.882     4182.580     1561.449        0.815        0.623       62.003       38.276        0.381      352.984       36.046      859.228
07/22/2013  16:14:00     -174.000      -99.301       -3.898      112.853       82.061       50.261    12735.795     6733.994     2526.155        3.107        1.100      200.341       20.589        0.011      352.742       35.621      859.196
07/22/2013  16:15:00     -146.152       18.554       -2.738      133.501      117.344       62.111    17822.531    13769.538     3857.757        2.857        1.772      147.325       57.081        0.150      352.847       35.804      859.208
07/22/2013  16:16:00      -61.900       67.750      -12.446       59.158       70.699       42.100     3499.701     4998.323     1772.385        0.942        0.514       91.770       28.518        0.097      352.940       35.969      859.202
07/22/2013  16:17:00      -10.360       51.682       19.200       36.954       44.503       33.160     1365.566     1980.546     1099.611        0.380        0.222       52.710       20.909        0.157      352.977       36.033      859.182
07/22/2013  16:18:00      -82.161       -2.365       -7.853       82.142       85.854       42.127     6747.347     7370.985     1774.678        1.135        0.795       82.195       45.362        0.305      352.981       36.041      859.150
07/22/2013  16:19:00     -179.582      -66.144       -6.486      106.168       89.338       50.901    11271.658     7981.342     2590.880        2.925        1.092      191.376       53.588        0.078      352.955       35.993      859.138
07/22/2013  16:20:00     -194.589      -46.920        3.142      111.209       98.431       67.611    12367.468     9688.747     4571.239        3.335        1.331      200.166       66.526        0.110      352.923       35.935      859.124
07/22/2013  16:21:00     -311.703      -29.915      -38.461      124.288       95.285       55.003    15447.609     9079.214     3025.318        6.354        1.378      313.136       41.172        0.017      352.850       35.807      859.117
07/22/2013  16:22:00     -287.510      -63.581      -17.447      128.112      100.766       60.181    16412.761    10153.726     3621.734        5.859        1.509      294.456       58.582        0.040      352.986       36.046      859.084
07/22/2013  16:23:00     -437.855       73.743      -51.703       74.637       85.235       48.128     5570.654     7264.948     2316.257       10.749        0.758      444.022       37.032        0.007      352.723       35.586      859.101
07/22/2013  16:24:00     -126.440       48.738        1.610      120.216       98.454       52.561    14451.951     9693.139     2762.668        2.263        1.345      135.508       50.601        0.139      352.931       35.952      859.096
07/22/2013  16:25:00      -92.319       82.015      -14.074       82.529       93.278       46.719     6811.002     8700.859     2182.682        1.657        0.885      123.488       42.760        0.120      352.984       36.046      859.089
07/22/2013  16:26:00     -218.242        1.864      -15.893      109.980      103.584       53.954    12095.604    10729.711     2911.031        3.681        1.287      218.250       53.878        0.061      353.021       36.108      859.098
07/22/2013  16:27:00     -212.519      -64.713      -12.025      113.390       78.560       49.630    12857.363     6171.748     2463.154        3.549        1.075      222.153       44.549        0.040      353.099       36.245      859.076
07/22/2013  16:28:00     -286.287      -69.260      -20.426      113.367       97.307       60.306    12852.137     9468.574     3636.759        5.656        1.298      294.546       56.874        0.037      352.912       35.917      859.070
07/22/2013  16:29:00      -85.063      -13.147        4.416       94.885       51.617       41.030     9003.145     2664.356     1683.472        1.039        0.668       86.073       38.321        0.198      352.972       36.025      859.051
07/22/2013  16:30:00     -168.222      -77.516       -3.374      106.444       72.185       44.137    11330.382     5210.730     1948.036        2.640        0.924      185.222       50.454        0.074      352.909       35.912      859.022
07/22/2013  16:31:00       -6.021      -15.994       18.337       50.748       37.859       25.800     2575.338     1433.298      665.641        0.265        0.234       17.090        8.064        0.223      352.955       35.996      859.010
07/22/2013  16:32:00        1.259      -67.982       22.983       82.814       64.699       47.602     6858.150     4185.975     2265.944        0.923        0.666       67.994       41.431        0.371      352.767       35.668      858.995
07/22/2013  16:33:00        2.992      -28.913       23.757       25.754       39.860       21.576      663.250     1588.843      465.519        0.206        0.136       29.068       20.923        0.518      352.857       35.825      858.998
07/22/2013  16:34:00       66.485       58.053       16.659       38.430       34.024       28.346     1476.845     1157.642      803.495        0.575        0.172       88.263       18.009        0.042      352.489       35.181      859.005
07/22/2013  16:35:00      -12.458      102.690       -1.959       44.654       42.736       23.283     1993.984     1826.332      542.088        0.753        0.218      103.443       24.111        0.054      352.891       35.885      859.013
07/22/2013  16:36:00       -7.553       82.794      -15.934       26.280       61.254       20.463      690.615     3752.074      418.750        0.601        0.243       83.138       23.056        0.077      352.883       35.869      859.024
07/22/2013  16:37:00      -11.705        6.442       12.606       21.644       15.861       10.288      468.464      251.567      105.847        0.058        0.041       13.360        6.945        0.270      352.879       35.864      859.034
07/22/2013  16:38:00      -26.314       36.082       13.957       33.399       28.860       21.245     1115.467      832.920      451.357        0.229        0.120       44.658       17.774        0.158      352.807       35.738      859.038
07/22/2013  16:39:00      -69.880       -3.778       -3.142       44.663       53.033       26.641     1994.741     2812.458      709.739        0.521        0.276       69.982       19.760        0.080      352.896       35.893      859.034
07/22/2013  16:40:00     -130.951      -27.363      -10.863       33.226       35.367       24.450     1103.992     1250.792      597.824        1.048        0.148      133.779       20.906        0.024      352.955       35.995      859.021
07/22/2013  16:41:00     -252.597       41.908      -15.160      102.028       77.362       45.860    10409.618     5984.827     2103.098        4.214        0.925      256.050       44.055        0.030      352.730       35.599      859.015
07/22/2013  16:42:00     -224.059      -34.726      -16.890      157.210       81.977       49.404    24714.889     6720.206     2440.797        4.278        1.694      226.734       66.225        0.085      352.862       35.830      858.981
07/22/2013  16:43:00     -315.928      -41.859      -24.254      102.733       84.951       57.507    10554.015     7216.588     3307.108        6.161        1.054      318.689       58.477        0.034      352.920       35.930      858.972
07/22/2013  16:44:00     -228.691      -28.624      -21.911      112.175       64.949       46.926    12583.142     4218.397     2202.006        3.630        0.950      230.476       58.882        0.065      352.814       35.744      858.972
07/22/2013  16:45:00     -178.393        9.495      -25.259       55.917       85.147       34.387     3126.733     7250.081     1182.488        2.205        0.578      178.646       22.075        0.015      352.855       35.819      858.952
07/22/2013  16:46:00     -158.926       -3.755      -18.338       81.732       75.450       33.754     6680.091     5692.702     1139.331        1.956        0.676      158.971       42.511        0.072      352.908       35.912      858.937
07/22/2013  16:47:00     -190.050      -37.841      -22.267      105.041      124.940       45.419    11033.634    15610.124     2062.860        3.337        1.435      193.780       23.148        0.014      353.136       36.309      858.922
07/22/2013  16:48:00     -472.203     -124.857      -46.777      106.448      106.948       58.902    11331.176    11437.772     3469.454       13.349        1.312      488.431       53.970        0.012      352.827       35.767      858.919
07/22/2013  16:49:00     -377.340        0.988      -24.299      117.826       93.806       51.585    13883.028     8799.501     2660.988        8.416        1.267      377.342       50.580        0.018      352.893       35.882      858.898
07/22/2013  16:50:00     -303.376      207.186      -52.102       86.065      134.689       63.479     7407.134    18141.030     4029.532        8.362        1.479      367.373       68.338        0.035      352.876       35.850      858.910
07/22/2013  16:51:00      -60.262      190.202      -24.932       76.823      123.254       52.916     5901.764    15191.598     2800.138        3.216        1.195      199.520       55.424        0.077      352.975       36.027      858.897
07/22/2013  16:52:00       30.453      206.622      -27.979       57.139      112.691       43.068     3264.887    12699.267     1854.868        3.111        0.891      208.854       48.546        0.054      353.037       36.137      858.914
07/22/2013  16:53:00      -51.185      297.287      -37.859       76.434       88.354       40.821     5842.156     7806.391     1666.362        5.387        0.766      301.661       40.374        0.018      352.945       35.974      858.896
07/22/2013  16:54:00       -8.409      333.814      -42.427       47.762       83.245       33.286     2281.202     6929.694     1107.931        6.181        0.516      333.920       38.097        0.013      352.770       35.666      858.881
07/22/2013  16:55:00       15.439      210.738      -16.688       45.339       99.001       49.069     2055.637     9801.165     2407.755        2.959        0.713      211.303       62.215        0.087      352.874       35.850      858.871
07/22/2013  16:56:00     -162.780      132.537      -42.289       64.334       55.342       32.251     4138.870     3062.792     1040.132        2.705        0.412      209.913       28.346        0.018      352.746       35.628      858.860
07/22/2013  16:57:00     -156.134      145.197      -37.831       78.139       80.147       43.097     6105.663     6423.613     1857.383        3.064        0.719      213.214       51.645        0.059      352.728       35.594      858.833
07/22/2013  16:58:00      -53.734      121.881       -9.773       68.498       63.174       32.031     4691.935     3990.902     1025.970        1.377        0.485      133.201       34.611        0.068      352.842       35.798      858.830
07/22/2013  16:59:00        0.651      177.753      -25.157       28.090       47.137       23.720      789.060     2221.914      562.632        1.790        0.179      177.754       22.413        0.016      352.860       35.830      858.822
07/22/2013  17:00:00       35.343       37.416        1.963       41.595       38.790       27.586     1730.173     1504.694      760.992        0.332        0.200       51.469        9.951        0.037      352.986       36.050      858.817
07/22/2013  17:01:00       10.781      122.230      -16.936       40.517       30.983       20.201     1641.661      959.918      408.070        0.918        0.150      122.705       15.715        0.016      353.051       36.164      858.807
07/22/2013  17:02:00      -88.377       87.480       -9.827       80.359      103.205       38.023     6457.649    10651.251     1445.760        1.705        0.928      124.351       38.069        0.094      353.172       36.376      858.795
07/22/2013  17:03:00     -174.129      157.213      -40.620       92.016       94.263       43.547     8466.905     8885.517     1896.341        3.796        0.962      234.599       51.797        0.049      353.186       36.398      858.814
07/22/2013  17:04:00      -93.557      188.187      -19.147       65.413       94.236       41.228     4278.887     8880.402     1699.765        2.969        0.743      210.160       39.104        0.035      352.846       35.803      858.819
07/22/2013  17:05:00     -122.131      132.693      -14.581       59.524       75.949       36.810     3543.099     5768.299     1354.985        2.170        0.533      180.343       28.714        0.025      352.913       35.921      858.790
07/22/2013  17:06:00      -82.225       89.867      -11.083       49.553       64.902       33.706     2455.486     4212.290     1136.121        1.138        0.390      121.808       34.172        0.079      353.047       36.158      858.790
07/22/2013  17:07:00       -6.968      142.001       -0.636       45.331       96.839       43.431     2054.894     9377.751     1886.254        1.676        0.666      142.172       50.680        0.127      352.922       35.936      858.786
07/22/2013  17:08:00     -147.399       30.120      -20.416       96.711       49.347       43.825     9352.987     2435.130     1920.637        1.838        0.685      150.445       47.696        0.101      353.122       36.288      858.789
07/22/2013  17:09:00     -242.239       50.041      -44.642       84.149       58.826       46.502     7081.055     3460.455     2162.436        3.794        0.635      247.353       36.189        0.021      352.986       36.046      858.785
07/22/2013  17:10:00      -24.650      -18.221        1.921       85.900       57.254       27.260     7378.733     3277.987      743.123        0.617        0.570       30.653       24.405        0.634      352.881       35.868      858.761
07/22/2013  17:11:00     -106.567      -22.808       -3.902       80.011       68.093       35.674     6401.825     4636.607     1272.608        1.210        0.616      108.980       27.362        0.063      352.884       35.872      858.744
07/22/2013  17:12:00       -8.603      137.013        7.562      112.212      191.239       72.461    12591.603    36572.352     5250.539        3.665        2.721      137.283       82.157        0.358      352.631       35.428      858.725
07/22/2013  17:13:00     -146.213      221.002      -22.436      120.274      153.444       62.447    14465.828    23545.009     3899.639        5.631        2.096      264.990       77.020        0.084      353.013       36.095      858.757
07/22/2013  17:14:00     -191.260      275.226      -45.776       93.895       92.671       48.095     8816.328     8587.887     2313.094        6.707        0.986      335.156       53.086        0.025      352.813       35.741      858.756
07/22/2013  17:15:00     -158.800      160.229      -25.728       99.092       96.606       52.032     9819.138     9332.667     2707.331        3.670        1.093      225.590       56.173        0.062      352.853       35.812      858.760
07/22/2013  17:16:00     -159.589      122.037      -22.056       80.780       65.291       51.101     6525.431     4262.960     2611.324        2.712        0.670      200.902       40.790        0.041      352.968       36.015      858.736
07/22/2013  17:17:00     -256.272       72.286      -20.416      105.881      122.009       50.540    11210.689    14886.104     2554.332        4.998        1.433      266.272       45.086        0.029      353.005       36.079      858.728
07/22/2013  17:18:00     -211.491      -51.377      -13.621      147.933      122.095       58.169    21884.132    14907.126     3383.582        4.386        2.009      217.642       74.847        0.118      352.955       35.993      858.728
07/22/2013  17:19:00     -127.246      -47.128        9.783      119.739      113.813       58.660    14337.391    12953.307     3440.970        2.461        1.537      135.693       66.807        0.242      353.046       36.153      858.707
07/22/2013  17:20:00     -182.839      -97.745        9.249      125.278      103.342       63.094    15694.659    10679.614     3980.912        3.671        1.518      207.326       57.808        0.078      352.915       35.922      858.701
07/22/2013  17:21:00     -231.709      -84.602       -5.452      114.655       81.266       50.418    13145.865     6604.226     2542.017        4.158        1.115      246.671       46.224        0.035      352.886       35.871      858.697
07/22/2013  17:22:00     -284.232      -73.180      -27.206       90.529       81.024       35.585     8195.563     6564.957     1266.281        5.145        0.801      293.502       39.634        0.018      352.844       35.797      858.703
07/22/2013  17:23:00     -156.677      -11.205       -9.595      104.187       85.294       50.627    10854.958     7275.026     2563.137        2.273        1.035      157.077       42.896        0.075      352.919       35.931      858.689
07/22/2013  17:24:00     -208.535      -62.330       -3.736      103.838      104.445       53.136    10782.371    10908.679     2823.438        3.595        1.226      217.651       45.121        0.043      352.911       35.915      858.667
07/22/2013  17:25:00     -217.250      100.245      -41.117       78.872       91.494       48.277     6220.813     8371.112     2330.655        3.793        0.846      239.262       39.424        0.027      352.811       35.741      858.671
07/22/2013  17:26:00     -163.853       52.079      -15.926       69.568       85.527       39.879     4839.639     7314.820     1590.330        2.178        0.687      171.930       26.290        0.023      352.822       35.761      858.653
07/22/2013  17:27:00     -251.948       -5.077      -16.949      145.095       87.648       61.117    21052.687     7682.089     3735.276        4.812        1.624      251.999       70.590        0.078      352.837       35.786      858.630
07/22/2013  17:28:00     -268.130      -57.554      -21.562       92.701       87.464       47.323     8593.482     7649.932     2239.461        4.707        0.924      274.238       30.273        0.012      352.900       35.895      858.628
07/22/2013  17:29:00     -287.005      -26.474      -26.833      107.071      162.496       66.439    11464.141    26404.855     4414.085        6.303        2.114      288.223       47.627        0.027      352.826       35.764      858.620
07/22/2013  17:30:00     -261.968     -100.525      -15.165      104.704       91.884       55.486    10962.959     8442.720     3078.715        5.072        1.124      280.593       39.888        0.020      352.911       35.914      858.612
07/22/2013  17:31:00     -240.354       12.989      -35.640       67.845      130.937       43.457     4602.899    17144.400     1888.511        4.142        1.182      240.704       32.677        0.018      352.749       35.629      858.608
07/22/2013  17:32:00     -204.698       83.696      -26.653       76.987       91.102       48.173     5927.027     8299.595     2320.634        3.308        0.827      221.148       48.437        0.048      352.714       35.571      858.595
07/22/2013  17:33:00     -224.175       39.039      -18.411      187.620       95.473       82.944    35201.181     9115.007     6879.711        5.165        2.560      227.549       97.413        0.183      352.850       35.809      858.588
07/22/2013  17:34:00     -294.059     -116.989       -6.609      129.310      112.256       61.744    16720.992    12601.336     3812.335        6.666        1.657      316.476       68.523        0.047      352.867       35.838      858.585
07/22/2013  17:35:00     -216.189      -15.836      -13.689      132.399       93.834       54.869    17529.465     8804.730     3010.574        3.825        1.467      216.768       68.616        0.100      353.039       36.141      858.572
07/22/2013  17:36:00     -223.096      -12.437      -20.231       95.122      117.412       50.737     9048.217    13785.550     2574.227        3.787        1.270      223.443       32.902        0.022      353.021       36.109      858.545
07/22/2013  17:37:00     -251.871      -67.466      -21.035      180.653       87.750       63.713    32635.544     7699.979     4059.338        5.640        2.220      260.750       76.633        0.086      353.076       36.204      858.537
07/22/2013  17:38:00     -284.186       -1.153      -39.717      129.686      118.719       65.550    16818.585    14094.144     4296.826        5.877        1.760      284.188       59.785        0.044      352.996       36.064      858.552
07/22/2013  17:39:00     -156.427      -21.129      -17.719       63.985       63.169       40.133     4094.062     3990.369     1610.657        1.746        0.485      157.847       31.112        0.039      352.971       36.023      858.541
07/22/2013  17:40:00     -113.076        3.212      -11.582       61.514       42.327       31.054     3783.953     1791.568      964.359        0.973        0.327      113.121       19.812        0.031      353.121       36.285      858.520
07/22/2013  17:41:00     -153.914      -35.296      -12.823       80.373      108.387       42.182     6459.784    11747.649     1779.319        2.254        0.999      157.910       25.847        0.027      352.989       36.053      858.513
07/22/2013  17:42:00     -140.428      190.919      -26.345       78.540       81.423       49.133     6168.605     6629.680     2414.007        3.604        0.761      237.002       45.715        0.037      352.857       35.821      858.529
07/22/2013  17:43:00     -125.310      169.889      -24.396       68.247       81.356       47.996     4657.656     6618.842     2303.573        2.937        0.679      211.104       48.151        0.052      352.756       35.644      858.505
07/22/2013  17:44:00     -148.583       -2.346       -9.855       46.560       66.528       36.947     2167.842     4425.917     1365.111        1.507        0.398      148.602       23.206        0.024      352.989       36.055      858.489
07/22/2013  17:45:00     -111.421      100.179      -16.106       58.027       87.743       40.442     3367.166     7698.864     1635.519        1.770        0.635      149.835       22.515        0.023      352.992       36.060      858.491
07/22/2013  17:46:00     -195.294      -47.279       -2.750       94.509       95.185       50.559     8931.870     9060.103     2556.194        3.046        1.027      200.936       52.061        0.067      353.099       36.246      858.467
07/22/2013  17:47:00     -263.247      -85.572        1.689      142.379      130.353       68.877    20271.682    16991.808     4744.016        5.931        2.100      276.806       75.171        0.074      353.092       36.231      858.453
07/22/2013  17:48:00     -460.304      -60.774      -26.129      229.638      169.937       90.059    52733.759    28878.457     8110.573       15.297        4.486      464.299      104.478        0.051      352.894       35.885      858.467
07/22/2013  17:49:00     -473.605      -18.146      -10.603      254.604      193.038      100.905    64823.155    37263.716    10181.779       16.848        5.613      473.952      112.207        0.056      352.696       35.539      858.434
07/22/2013  17:50:00     -544.034     -155.883       -1.570      261.089      248.082      109.644    68167.231    61544.711    12021.882       23.098        7.087      565.926      119.766        0.045      352.532       35.251      858.402
07/22/2013  17:51:00     -369.338     -159.799      -14.255      216.842      166.005       86.648    47020.593    27557.663     7507.941       12.210        4.104      402.426      102.457        0.065      352.580       35.335      858.439
07/22/2013  17:52:00     -339.918      -75.702       -3.660      201.887      232.169      100.985    40758.330    53902.643    10198.009       11.305        5.243      348.246       96.889        0.077      352.588       35.350      858.455
07/22/2013  17:53:00     -444.106      -39.469      -42.431      231.558      162.478       93.431    53618.935    26399.201     8729.411       14.465        4.437      445.857      111.319        0.062      352.604       35.378      858.449
07/22/2013  17:54:00     -370.340        8.358      -10.685      192.194      185.887       97.976    36938.658    34553.871     9599.319       10.920        4.055      370.434       99.116        0.072      352.633       35.428      858.438
07/22/2013  17:55:00     -332.376      -67.863        1.416      228.612      133.413       80.716    52263.229    17798.993     6515.152        9.581        3.829      339.234       84.163        0.062      352.719       35.580      858.466
07/22/2013  17:56:00     -537.956     -138.183      -28.358      287.956      236.050      104.581    82918.650    55719.558    10937.176       22.941        7.479      555.420      122.901        0.049      352.447       35.101      858.456
07/22/2013  17:57:00     -665.762     -148.045      -30.663      257.446      198.335      114.836    66278.221    39336.852    13187.404       29.242        5.940      682.023      120.420        0.031      352.293       34.833      858.473
07/22/2013  17:58:00     -417.898     -131.073      -18.889      186.998      165.822       78.918    34968.102    27496.787     6228.066       13.042        3.435      437.971       86.252        0.039      352.395       35.011      858.487
07/22/2013  17:59:00     -514.940     -230.310      -26.482      261.526      214.576      108.459    68395.860    46042.688    11763.444       22.253        6.310      564.097      113.420        0.040      352.251       34.759      858.488
07/22/2013  18:00:00     -423.741     -306.602      -15.132      200.661      169.001      103.587    40264.938    28561.378    10730.285       17.666        3.978      523.031      104.321        0.040      352.268       34.789      858.492
07/22/2013  18:01:00     -305.416     -110.075       -5.974      231.446      200.388      103.184    53567.145    40155.278    10647.027       10.488        5.218      324.647      114.864        0.125      352.365       34.958      858.502
07/22/2013  18:02:00     -584.931     -115.004      -40.301      220.962      180.813       89.009    48824.050    32693.408     7922.576       22.320        4.472      596.129       86.079        0.021      352.216       34.698      858.523
07/22/2013  18:03:00     -198.587      -25.936       26.195      141.037      119.130       69.561    19891.502    14192.047     4838.773        3.985        1.946      200.274       61.412        0.094      352.498       35.191      858.544
07/22/2013  18:04:00     -320.813      -96.774       -8.914      165.448      129.375       79.992    27372.944    16737.812     6398.786        8.143        2.525      335.092       66.619        0.040      352.449       35.106      858.558
07/22/2013  18:05:00     -331.551     -234.950       -3.187      233.920      175.475      106.716    54718.345    30791.437    11388.390       13.100        4.845      406.358      120.283        0.088      352.263       34.781      858.585
07/22/2013  18:06:00     -422.213     -110.203      -18.849      239.021      181.412       99.302    57131.004    32910.301     9860.837       14.531        4.995      436.358      101.020        0.054      352.099       34.492      858.607
07/22/2013  18:07:00     -272.967     -155.584       -7.754      122.465      136.276       67.317    14997.608    18571.267     4531.590        6.843        1.905      314.193       57.554        0.034      352.214       34.695      858.616
07/22/2013  18:08:00     -349.309      -48.510        3.718      200.293      125.816       86.341    40117.294    15829.746     7454.838        9.388        3.170      352.662       97.055        0.076      352.358       34.947      858.657
07/22/2013  18:09:00     -359.684      -24.259      -13.359      260.232      119.665       89.828    67720.815    14319.807     8069.009       11.011        4.505      360.501      109.660        0.093      352.208       34.685      858.655
07/22/2013  18:10:00     -347.107      -60.913      -14.128      163.150      132.845       89.398    26617.813    17647.880     7991.915        8.831        2.613      352.411       93.780        0.071      352.172       34.620      858.650
07/22/2013  18:11:00     -184.974      -55.671        7.880      149.864       96.793       66.761    22459.263     9368.955     4456.994        3.682        1.814      193.170       74.363        0.148      352.356       34.945      858.681
07/22/2013  18:12:00     -296.251     -172.704      -16.614      165.744      115.138       69.910    27470.968    13256.852     4887.421        8.173        2.281      342.916       66.449        0.038      352.159       34.599      858.690
07/22/2013  18:13:00     -365.440      -86.873      -22.983      176.540      128.258       77.901    31166.458    16450.042     6068.522        9.764        2.684      375.624       80.817        0.046      352.180       34.635      858.692
07/22/2013  18:14:00     -634.454     -196.956      -22.012      217.909      172.541      108.130    47484.140    29770.394    11692.071       26.536        4.447      664.322      106.641        0.026      351.984       34.292      858.690
07/22/2013  18:15:00     -358.896      -16.410        4.602      206.807      149.164       83.609    42769.184    22249.946     6990.399       10.054        3.600      359.271       89.797        0.062      352.078       34.457      858.712
07/22/2013  18:16:00     -267.741      -31.621       17.248      187.411      149.501       79.267    35122.987    22350.513     6283.234        6.836        3.188      269.602       91.360        0.115      352.095       34.488      858.731
07/22/2013  18:17:00     -377.579      -47.364      -13.734      156.870      116.304       67.142    24608.225    13526.577     4508.064        9.381        2.132      380.538       48.606        0.016      352.114       34.520      858.751
07/22/2013  18:18:00     -474.046     -186.459      -12.893      238.657      218.879      111.353    56957.170    47907.824    12399.482       18.844        5.863      509.398      134.289        0.069      351.932       34.202      858.722
07/22/2013  18:19:00     -498.752     -132.065      -16.676      269.022      211.916      113.241    72372.678    44908.372    12823.520       19.826        6.505      515.941      131.309        0.065      351.894       34.136      858.726
07/22/2013  18:20:00     -436.794     -113.693       -8.013      255.047      205.598       88.376    65048.995    42270.669     7810.350       15.943        5.757      451.348      111.368        0.061      351.833       34.029      858.775
07/22/2013  18:21:00     -183.989      -18.230       17.432      173.047      141.925       90.467    29945.177    20142.754     8184.191        4.637        2.914      184.890       98.949        0.286      351.973       34.275      858.785
07/22/2013  18:22:00     -301.065     -111.182        1.321      203.760      177.708       91.568    41518.179    31580.155     8384.789        9.223        4.074      320.939       97.862        0.093      351.888       34.126      858.806
07/22/2013  18:23:00     -424.061     -203.674      -12.641      184.503      173.104       80.980    34041.422    29964.828     6557.738       14.600        3.528      470.437       81.256        0.030      351.814       33.996      858.858
07/22/2013  18:24:00     -443.029     -121.800       -8.796      336.498      177.194      111.987   113230.796    31397.714    12540.996       18.415        7.858      459.467      146.703        0.102      351.733       33.857      858.857
07/22/2013  18:25:00     -399.846       67.569      -14.685      211.106      144.128       90.514    44565.946    20772.881     8192.751       11.908        3.677      405.515       94.497        0.054      351.800       33.971      858.885
07/22/2013  18:26:00     -342.484        4.731       -6.054      194.008      116.003       68.099    37639.002    13456.653     4637.465        8.653        2.787      342.516       82.266        0.058      351.901       34.146      858.900
07/22/2013  18:27:00     -370.661      -45.502       -7.652      227.657      168.861       85.127    51827.506    28514.085     7246.684       11.354        4.379      373.443      101.942        0.075      351.849       34.056      858.932
07/22/2013  18:28:00     -581.743      -51.733      -30.135      201.844      203.904       93.968    40740.814    41576.995     8829.980       21.656        4.557      584.039      106.041        0.033      351.689       33.778      858.929
07/22/2013  18:29:00     -656.124     -322.783      -32.359      290.873      246.112      111.681    84607.220    60571.163    12472.584       34.666        7.883      731.223      120.732        0.027      351.512       33.470      858.905
07/22/2013  18:30:00     -388.515     -118.093      -17.143      173.427      177.702       66.050    30077.039    31577.885     4362.634       11.559        3.301      406.067       74.095        0.033      351.721       33.835      858.957
07/22/2013  18:31:00     -560.003     -221.141      -17.405      266.812      232.058      104.331    71188.739    53850.700    10884.885       24.934        6.796      602.085      118.486        0.039      351.501       33.451      858.960
07/22/2013  18:32:00     -360.686     -104.735        8.555      290.893      228.852      131.425    84618.769    52373.400    17272.606       14.767        7.713      375.585      151.438        0.163      351.537       33.516      858.961
07/22/2013  18:33:00     -415.647     -274.983        7.887      249.173      208.472      113.787    62087.296    43460.508    12947.483       18.344        5.925      498.376      128.574        0.067      351.472       33.402      858.970
07/22/2013  18:34:00     -493.485      -60.380      -27.306      318.017      198.730       95.964   101134.846    39493.518     9209.094       19.885        7.492      497.165      128.673        0.067      351.544       33.528      859.005
07/22/2013  18:35:00     -356.030     -119.811        9.858      184.337      221.893       94.986    33979.987    49236.461     9022.360       11.671        4.612      375.649      104.679        0.078      351.513       33.471      859.004
07/22/2013  18:36:00     -579.133     -162.240      -10.949      334.462      173.677       99.861   111864.736    30163.586     9972.273       25.689        7.600      601.429      127.038        0.045      351.459       33.378      858.999
07/22/2013  18:37:00     -573.785      -78.518      -16.766      220.887      191.216       97.030    48791.208    36563.373     9414.788       21.520        4.738      579.132       98.418        0.029      351.491       33.436      859.022
07/22/2013  18:38:00     -642.439     -162.855      -17.357      230.790      152.371       91.063    53264.197    23216.785     8292.549       26.215        4.239      662.759       96.635        0.021      351.470       33.398      859.040
07/22/2013  18:39:00     -355.863     -125.605       -1.211      239.569      147.448       77.393    57393.446    21741.039     5989.687       11.375        4.256      377.379       90.788        0.058      351.526       33.496      859.062
07/22/2013  18:40:00     -541.048     -129.467       -8.650      261.205      172.908      103.028    68227.840    29897.076    10614.757       20.913        5.437      556.323      108.897        0.038      351.447       33.357      859.054
07/22/2013  18:41:00     -516.847     -150.790       -2.226      249.927      198.426       89.680    62463.620    39372.679     8042.522       19.985        5.494      538.394      103.351        0.037      351.409       33.291      859.080
07/22/2013  18:42:00     -522.982     -208.507      -29.691      200.976      175.879      105.133    40391.160    30933.293    11052.892       20.011        4.119      563.015      109.157        0.038      351.303       33.104      859.104
07/22/2013  18:43:00     -210.635     -138.578        1.377      165.182      163.855       99.919    27285.121    26848.619     9983.856        6.383        3.206      252.133      109.264        0.188      351.394       33.266      859.086
07/22/2013  18:44:00     -362.907     -156.547      -18.579      219.733      143.916       80.017    48282.585    20711.785     6402.706       11.596        3.770      395.233      100.661        0.065      351.391       33.259      859.121
07/22/2013  18:45:00     -236.911      -23.847       -5.510      162.182      137.114       78.435    26303.110    18800.155     6151.985        5.398        2.563      238.109       82.171        0.119      351.457       33.377      859.139
07/22/2013  18:46:00     -348.189      -65.714      -22.620      197.548      139.857       79.443    39025.334    19559.990     6311.250        9.547        3.245      354.335       78.942        0.050      351.418       33.307      859.098
07/22/2013  18:47:00     -475.079      -84.057       -3.193      335.553      190.062      112.908   112596.052    36123.618    12748.129       19.709        8.073      482.458      159.207        0.109      351.273       33.053      859.116
07/22/2013  18:48:00     -628.711     -117.689      -17.353      296.593      227.367      116.867    87967.491    51695.790    13657.969       28.134        7.666      639.631      143.620        0.050      351.175       32.881      859.118
07/22/2013  18:49:00     -307.258      -67.242      -19.513      281.942      121.002       89.332    79491.471    14641.411     7980.177       10.069        5.106      314.530      109.046        0.120      351.264       33.037      859.143
07/22/2013  18:50:00     -290.919      -43.423       -7.054      169.200      148.118       83.768    28628.790    21938.997     7017.033        7.207        2.879      294.142       87.484        0.088      351.320       33.133      859.153
07/22/2013  18:51:00     -598.235      -91.932      -43.548      229.740      174.667       94.214    52780.638    30508.656     8876.321       23.018        4.608      605.257      100.285        0.027      351.215       32.952      859.165
07/22/2013  18:52:00     -538.929     -107.267      -17.543      224.252      243.342       93.827    50288.853    59215.131     8803.445       21.026        5.915      549.501      103.673        0.036      351.202       32.927      859.159
07/22/2013  18:53:00     -282.485      -36.216        4.710      272.781      162.169       86.617    74409.367    26298.779     7502.423        9.465        5.411      284.797      115.098        0.163      351.290       33.083      859.184
07/22/2013  18:54:00     -471.954     -130.406       -4.716      252.129      198.267       98.753    63568.824    39309.702     9752.219       17.618        5.632      489.639      113.413        0.054      351.240       32.995      859.164
07/22/2013  18:55:00     -569.595      -96.734      -29.111      230.738      184.136       99.942    53239.883    33905.895     9988.445       21.587        4.857      577.750      102.961        0.032      351.173       32.877      859.197
07/22/2013  18:56:00     -338.912     -129.127       -2.577      195.051      171.950       83.644    38044.787    29566.716     6996.294       10.306        3.730      362.678       89.401        0.061      351.211       32.945      859.203
07/22/2013  18:57:00     -327.087     -189.136        2.779      217.419      189.205       98.293    47271.205    35798.382     9661.600       11.773        4.637      377.834      110.694        0.086      351.120       32.786      859.210
07/22/2013  18:58:00     -471.026     -181.060      -18.668      241.071      156.684       90.653    58115.321    24549.859     8217.969       17.292        4.544      504.627       67.314        0.018      351.069       32.696      859.191
07/22/2013  18:59:00     -517.946     -186.475      -12.984      213.363      195.841       96.502    45523.588    38353.799     9312.694       19.818        4.660      550.492      106.970        0.038      351.038       32.641      859.225
07/22/2013  19:00:00     -391.838     -124.869       -1.964      224.149      185.274       97.114    50242.574    34326.359     9431.047       13.155        4.700      411.253      104.209        0.064      351.051       32.665      859.233
07/22/2013  19:01:00     -343.348     -100.181       10.838      275.583      201.626      114.561    75946.000    40653.070    13124.260       12.886        6.486      357.665      132.392        0.137      351.011       32.595      859.207
07/22/2013  19:02:00     -414.006     -151.276        0.460      207.039      180.623      101.155    42865.089    32624.549    10232.326       13.999        4.286      440.778       96.485        0.048      350.998       32.574      859.240
07/22/2013  19:03:00     -495.002       28.127       -9.593      218.909      170.658       89.325    47921.160    29124.155     7978.911       16.545        4.251      495.801       94.679        0.036      350.978       32.540      859.234
07/22/2013  19:04:00     -516.349     -116.423      -12.034      237.601      174.135       89.134    56454.169    30322.966     7944.843       18.750        4.736      529.311      107.279        0.041      350.917       32.433      859.223
07/22/2013  19:05:00     -342.657        5.616      -17.860      182.357      128.410       80.848    33254.169    16489.051     6536.418        8.701        2.814      342.703       89.615        0.068      350.988       32.555      859.261
07/22/2013  19:06:00     -467.130      -84.396      -14.393      160.401      124.452       70.505    25728.391    15488.348     4970.942       13.585        2.309      474.693       67.223        0.020      350.989       32.557      859.265
07/22/2013  19:07:00     -415.973      -66.773       -7.360      236.727      169.553       94.108    56039.549    28748.173     8856.224       13.558        4.682      421.299      107.742        0.065      350.902       32.407      859.256
07/22/2013  19:08:00     -389.810     -154.789      -10.833      260.730      167.062       89.621    67979.904    27909.650     8031.926       13.995        5.196      419.418      110.970        0.070      350.858       32.332      859.253
07/22/2013  19:09:00     -355.281     -213.208      -14.617      202.697      150.898       79.619    41085.951    22770.088     6339.212       12.103        3.510      414.345       88.804        0.046      350.842       32.304      859.267
07/22/2013  19:10:00     -522.676     -182.018      -38.191      213.279      180.414       99.507    45487.824    32549.274     9901.590       19.784        4.397      553.462      108.136        0.038      350.786       32.204      859.261
07/22/2013  19:11:00     -357.449     -123.411       -5.219      179.558      149.925       77.097    32241.236    22477.581     5943.883       10.183        3.033      378.154       59.144        0.024      350.817       32.259      859.291
07/22/2013  19:12:00     -488.044     -160.926      -26.165      248.359      196.834      112.945    61682.253    38743.434    12756.674       18.895        5.659      513.891      107.978        0.044      350.708       32.070      859.315
07/22/2013  19:13:00     -526.624     -100.901      -13.007      282.346      246.140      116.311    79719.460    60584.726    13528.217       22.073        7.692      536.203      119.000        0.049      350.671       32.003      859.306
07/22/2013  19:14:00     -529.927      -64.520       -4.863      335.492      189.324      122.629   112554.976    35843.609    15037.816       22.419        8.172      533.840      159.653        0.089      350.658       31.981      859.287
07/22/2013  19:15:00     -484.177     -196.114      -20.135      174.827      178.778       85.716    30564.574    31961.479     7347.220       17.157        3.494      522.387       80.522        0.024      350.661       31.988      859.358
07/22/2013  19:16:00     -524.423      -94.624      -31.000      383.763      208.427      102.812   147273.725    43441.923    10570.313       24.307       10.064      532.891      146.669        0.076      350.625       31.923      859.396
07/22/2013  19:17:00     -674.290     -105.005      -30.142      319.458      187.565      107.210   102053.406    35180.667    11493.941       30.764        7.436      682.417      131.788        0.037      350.524       31.748      859.391
07/22/2013  19:18:00     -345.293     -155.694      -26.721      256.305      173.354       85.637    65692.197    30051.559     7333.658       12.361        5.154      378.771       99.455        0.069      350.582       31.849      859.398
07/22/2013  19:19:00     -560.037      -61.171      -28.615      210.506      139.717       83.366    44312.861    19520.894     6949.869       19.448        3.539      563.367       77.965        0.019      350.539       31.773      859.418
07/22/2013  19:20:00     -405.085      -50.742       -9.945      168.523      152.241       79.971    28400.009    23177.465     6395.328       11.236        2.899      408.250       85.534        0.044      350.532       31.761      859.429
07/22/2013  19:21:00     -417.668      -56.000      -17.047      191.069      164.147       80.612    36507.331    26944.134     6498.308       12.390        3.497      421.406       90.379        0.046      350.511       31.725      859.425
07/22/2013  19:22:00     -421.569     -119.742       -2.294      264.189      229.895      114.793    69795.762    52851.784    13177.322       16.392        6.791      438.244      127.529        0.085      350.419       31.568      859.406
07/22/2013  19:23:00     -562.387     -172.255      -32.031      270.611      185.607      112.575    73230.046    34449.947    12673.100       23.364        6.018      588.176      117.446        0.040      350.389       31.515      859.403
07/22/2013  19:24:00     -559.794     -175.325      -25.776      257.681      253.937      109.409    66399.416    64483.950    11970.434       24.378        7.143      586.608      135.652        0.053      350.376       31.493      859.430
07/22/2013  19:25:00     -316.435      -85.887        2.620      288.831      144.610      107.353    83423.458    20912.172    11524.637       11.166        5.793      327.883      136.870        0.174      350.364       31.471      859.463
07/22/2013  19:26:00     -359.540      -36.705       -0.306      267.920      163.385       95.644    71781.295    26694.686     9147.776       11.910        5.381      361.409      114.086        0.100      350.323       31.400      859.467
07/22/2013  19:27:00     -398.952      -36.278      -14.962      269.770      229.784      100.397    72775.965    52800.501    10079.551       14.815        6.783      400.598      116.005        0.084      350.292       31.348      859.477
07/22/2013  19:28:00     -407.923     -100.147      -13.470      234.087      231.676      103.682    54796.577    53673.597    10750.009       14.789        5.961      420.037      117.471        0.078      350.264       31.298      859.529
07/22/2013  19:29:00     -394.246      -57.609      -17.925      206.651      150.694       90.560    42704.789    22708.662     8201.084       11.633        3.681      398.433      102.225        0.066      350.256       31.283      859.532
07/22/2013  19:30:00     -394.810     -113.465        2.431      241.189      189.283      104.465    58172.251    35828.075    10912.943       13.681        5.246      410.791      128.570        0.098      350.221       31.221      859.530
07/22/2013  19:31:00     -440.217     -113.365      -11.038      264.211      204.982      103.378    69807.634    42017.643    10687.011       16.461        6.126      454.579      125.415        0.076      350.197       31.181      859.516
07/22/2013  19:32:00     -312.202     -106.463       -7.244      200.849      137.821       72.281    40340.438    18994.572     5224.592        8.670        3.228      329.855       92.357        0.078      350.179       31.151      859.571
07/22/2013  19:33:00     -415.971      -98.398       -7.110      274.047      196.459      115.471    75101.827    38596.220    13333.439       15.487        6.352      427.451      124.158        0.084      350.158       31.113      859.574
07/22/2013  19:34:00     -619.118     -143.710      -28.292      259.853      184.418      105.030    67523.506    34009.951    11031.324       25.864        5.628      635.578      131.512        0.043      350.122       31.049      859.593
07/22/2013  19:35:00     -305.869      -79.529        1.929      195.486      155.814       91.301    38214.697    24277.942     8335.874        8.534        3.541      316.039       97.917        0.096      350.131       31.066      859.612
07/22/2013  19:36:00     -319.715        7.583      -15.918      183.709      136.813       65.660    33749.136    18717.884     4311.299        7.964        2.839      319.805       76.270        0.057      350.106       31.020      859.614
07/22/2013  19:37:00     -340.144      -81.976      -19.301      234.640      223.071       94.475    55055.734    49760.535     8925.498       11.824        5.687      349.883       91.982        0.069      350.112       31.033      859.597
07/22/2013  19:38:00     -416.650     -181.315      -11.790      191.709      194.994      103.488    36752.413    38022.780    10709.824       14.603        4.274      454.392       97.792        0.046      350.110       31.028      859.626
07/22/2013  19:39:00     -572.952     -180.003      -20.944      277.487      184.796       97.764    76999.301    34149.639     9557.744       24.089        6.035      600.562      108.865        0.033      350.042       30.910      859.632
07/22/2013  19:40:00     -338.402     -106.124        2.113      209.916      159.025       94.388    44064.909    25288.996     8909.145       10.201        3.913      354.652      100.868        0.081      350.041       30.908      859.658
07/22/2013  19:41:00     -433.331      -35.955      -51.545      271.502      190.998       88.127    73713.080    36480.059     7766.361       15.482        5.898      434.820      105.461        0.059      350.036       30.901      859.678
07/22/2013  19:42:00     -655.003      -34.300      -53.444      219.615      226.680      106.392    48230.784    51383.962    11319.322       27.198        5.547      655.900      105.273        0.026      349.979       30.803      859.679
07/22/2013  19:43:00     -751.126     -219.695      -34.395      289.845      235.057      113.445    84010.026    55251.604    12869.720       38.285        7.607      782.595      126.457        0.026      349.938       30.730      859.676
07/22/2013  19:44:00     -498.266     -161.478       -9.837      255.709      203.510      108.367    65387.345    41416.125    11743.426       19.647        5.927      523.779      129.934        0.062      349.920       30.701      859.663
07/22/2013  19:45:00     -456.750     -174.749       -6.026      295.447      181.977      105.777    87288.781    33115.764    11188.766       18.537        6.580      489.038      132.914        0.074      349.906       30.675      859.677
07/22/2013  19:46:00     -393.186     -142.857       -4.096      237.644      185.146      110.483    56474.814    34279.114    12206.556       13.897        5.148      418.334      121.667        0.085      349.904       30.671      859.690
07/22/2013  19:47:00     -376.507     -119.224      -13.775      264.209      177.419      105.600    69806.370    31477.338    11151.291       13.428        5.622      394.933      128.426        0.106      349.895       30.655      859.693
07/22/2013  19:48:00     -598.299     -112.202      -32.132      239.600      175.275      106.191    57408.282    30721.200    11276.618       23.547        4.970      608.729      117.787        0.037      349.849       30.577      859.715
07/22/2013  19:49:00     -518.913     -158.298      -17.147      258.557      176.746      104.403    66851.560    31239.258    10900.071       20.179        5.450      542.521      130.453        0.058      349.844       30.566      859.728
07/22/2013  19:50:00     -200.514      -83.198        5.465      185.532      189.202       81.639    34422.052    35797.319     6664.875        6.201        3.844      217.089       95.711        0.194      349.844       30.568      859.732
07/22/2013  19:51:00     -329.274     -131.541       16.544      240.678      159.267      101.202    57925.725    25366.117    10241.875       10.975        4.677      354.576      121.010        0.116      349.826       30.536      859.728
07/22/2013  19:52:00     -375.379     -159.544      -15.828      223.179      194.739      107.103    49808.992    37923.391    11471.057       13.289        4.960      407.877      116.074        0.081      349.800       30.492      859.731
07/22/2013  19:53:00     -469.164      -68.264      -27.353      243.890      198.978      113.470    59482.160    39592.104    12875.347       16.871        5.597      474.105      126.765        0.071      349.771       30.440      859.738
07/22/2013  19:54:00     -409.377      -76.431      -10.594      216.092      169.854       91.108    46695.589    28850.301     8300.639       12.868        4.192      416.450      107.150        0.066      349.779       30.454      859.758
07/22/2013  19:55:00     -316.352     -106.382       -0.156      178.235      161.841       90.661    31767.816    26192.381     8219.502        8.877        3.309      333.760       91.699        0.075      349.765       30.429      859.774
07/22/2013  19:56:00     -264.094      -53.077       16.718      162.267      156.526       84.524    26330.617    24500.514     7144.245        6.540        2.899      269.374       89.510        0.110      349.769       30.437      859.752
07/22/2013  19:57:00     -619.203      -28.223      -38.436      285.697      170.383      107.579    81622.531    29030.529    11573.285       25.393        6.111      619.846      130.327        0.044      349.712       30.337      859.750
07/22/2013  19:58:00     -465.024     -112.408      -24.413      259.783      175.956      102.788    67487.021    30960.468    10565.304       16.922        5.451      478.418      110.527        0.053      349.741       30.387      859.785
07/22/2013  19:59:00     -334.199     -181.803      -12.646      200.552      126.627       89.409    40220.991    16034.361     7993.912       10.456        3.212      380.449      106.727        0.079      349.747       30.397      859.799
07/22/2013  20:00:00     -395.013     -110.533      -16.908      156.666      122.468       70.783    24544.310    14998.331     5010.186       10.654        2.228      410.186       68.615        0.028      349.713       30.337      859.814
07/22/2013  20:01:00     -485.342      -94.488      -24.694      257.972      158.410       99.690    66549.790    25093.671     9938.097       17.332        5.079      494.454      105.358        0.045      349.685       30.289      859.771
07/22/2013  20:02:00     -359.952      -98.557      -18.542      257.305      159.368       99.035    66205.765    25398.157     9807.864       12.050        5.071      373.201      125.321        0.113      349.682       30.285      859.790
07/22/2013  20:03:00     -447.770     -124.747      -15.792      267.155      238.961      119.710    71371.781    57102.199    14330.473       17.953        7.140      464.822      130.211        0.078      349.683       30.287      859.783
07/22/2013  20:04:00     -507.082      -88.785       -7.024      268.191      207.427      122.432    71926.356    43025.759    14989.516       19.748        6.497      514.796      134.145        0.068      349.654       30.236      859.810
07/22/2013  20:05:00     -443.686     -162.289       -0.719      265.731      236.725      103.058    70612.908    56038.843    10620.890       18.021        6.864      472.435      128.366        0.074      349.619       30.177      859.838
07/22/2013  20:06:00     -305.692      -86.971       -4.927      192.797      148.974       79.411    37170.871    22193.177     6306.035        8.334        3.284      317.824       76.100        0.057      349.627       30.191      859.853
07/22/2013  20:07:00     -328.280      -53.412      -11.708      199.507      106.348       71.872    39803.203    11309.850     5165.611        8.351        2.814      332.597       81.117        0.059      349.554       30.065      859.848
07/22/2013  20:08:00     -578.807     -260.658      -27.378      255.655      216.640      110.037    65359.334    46932.964    12108.063       26.403        6.220      634.792      113.619        0.032      349.557       30.069      859.809
07/22/2013  20:09:00     -436.740     -167.687       -9.472      227.542      159.118       92.103    51775.510    25318.569     8482.876       15.225        4.279      467.826      110.807        0.056      349.555       30.067      859.877
07/22/2013  20:10:00     -399.974     -219.901       -3.804      234.686      163.672       99.838    55077.462    26788.655     9967.598       15.007        4.592      456.438      104.905        0.053      349.547       30.051      859.865
07/22/2013  20:11:00     -285.404     -131.042      -10.298      198.118      153.132       87.036    39250.759    23449.348     7575.246        8.449        3.514      314.051       94.136        0.090      349.559       30.073      859.851
07/22/2013  20:12:00     -630.546      -40.996      -37.901      269.131      208.409       88.844    72431.764    43434.181     7893.186       26.221        6.188      631.877      104.357        0.027      349.510       29.987      859.875
07/22/2013  20:13:00     -315.508     -158.825        2.911      221.796      142.995       81.735    49193.334    20447.537     6680.534       10.054        3.816      353.229       94.703        0.072      349.510       29.988      859.882
07/22/2013  20:14:00     -505.789      -77.813      -22.459      197.400      163.024      101.766    38966.627    26576.749    10356.348       16.913        3.795      511.740      108.729        0.045      349.468       29.915      859.861
07/22/2013  20:15:00     -410.687     -234.564        2.302      256.998      201.375      110.798    66048.051    40551.909    12276.181       17.126        5.944      472.953      130.232        0.076      349.470       29.917      859.857
07/22/2013  20:16:00     -603.302     -201.539      -31.265      245.851      255.219      120.324    60442.959    65136.789    14477.766       27.278        7.003      636.075      128.834        0.041      349.443       29.869      859.846
07/22/2013  20:17:00     -445.915     -204.680        5.561      245.063      193.879      103.819    60055.906    37589.025    10778.321       17.457        5.421      490.646      108.198        0.049      349.425       29.840      859.853
07/22/2013  20:18:00     -633.247      -98.083      -41.176      282.563      160.877      104.733    79842.016    25881.264    10969.013       26.448        5.835      640.798      128.282        0.040      349.419       29.828      859.871
07/22/2013  20:19:00     -450.173     -125.613      -18.080      199.022      194.553       90.971    39609.787    37851.010     8275.810       15.223        4.287      467.370       93.346        0.040      349.404       29.803      859.892
07/22/2013  20:20:00     -300.020      -66.334       23.853      175.816      146.119       74.942    30911.333    21350.810     5616.291        7.642        2.894      307.265       80.653        0.069      349.416       29.824      859.877
07/22/2013  20:21:00     -227.609       -7.076       -2.966      135.973      108.576       64.001    18488.557    11788.679     4096.110        4.311        1.719      227.719       50.188        0.049      349.444       29.872      859.880
07/22/2013  20:22:00     -360.697     -213.752       -5.230      279.554      185.468      100.048    78150.401    34398.370    10009.615       14.916        6.128      419.276      116.299        0.077      349.383       29.767      859.882
07/22/2013  20:23:00     -413.553     -200.869       -7.142      265.207      219.843      118.221    70334.785    48330.825    13976.308       17.201        6.632      459.755      108.422        0.056      349.390       29.777      859.860
07/22/2013  20:24:00     -300.189      -47.245        8.519      279.183      197.035      106.721    77943.172    38822.783    11389.451       11.026        6.408      303.885      105.111        0.120      349.356       29.720      859.872
07/22/2013  20:25:00     -377.913      -67.227       -8.880      160.007      115.043       64.287    25602.352    13234.935     4132.765        9.518        2.149      383.846       52.144        0.018      349.350       29.708      859.899
07/22/2013  20:26:00     -504.321     -184.744      -33.103      197.382      194.043       96.929    38959.811    37652.597     9395.304       18.777        4.300      537.094       91.506        0.029      349.313       29.646      859.878
07/22/2013  20:27:00     -470.776      -25.153       -7.247      245.495      187.154       94.360    60267.926    35026.797     8903.842       16.324        5.210      471.448      103.016        0.048      349.287       29.603      859.929
07/22/2013  20:28:00     -413.772      -10.290      -14.862      203.113      153.676       92.456    41254.901    23616.375     8548.162       12.246        3.671      413.900      102.991        0.062      349.279       29.587      859.936
07/22/2013  20:29:00     -407.521      -40.707       -6.387      162.428      157.653       76.881    26382.813    24854.337     5910.668       11.245        2.857      409.549       79.902        0.038      349.267       29.566      859.915
07/22/2013  20:30:00     -442.490      -78.657       -6.595      259.177      236.337      112.836    67172.483    55855.061    12732.061       16.887        6.788      449.427      137.981        0.094      349.232       29.504      859.938
07/22/2013  20:31:00     -351.767     -121.899        1.098      235.261      160.127       93.363    55347.792    25640.660     8716.591       11.413        4.485      372.289      113.615        0.093      349.258       29.553      859.928
07/22/2013  20:32:00     -269.803      -64.739      -14.119      149.090      151.780       73.925    22227.693    23037.132     5464.976        6.395        2.536      277.461       70.860        0.065      349.243       29.525      859.923
07/22/2013  20:33:00     -347.210     -106.769        2.123      260.306      167.363      120.435    67759.190    28010.535    14504.596       12.109        5.514      363.255      148.650        0.167      349.251       29.538      859.941
07/22/2013  20:34:00     -460.753      -35.141      -14.689      239.429      211.217      109.965    57326.478    44612.544    12092.212       16.386        5.702      462.091      123.177        0.071      349.247       29.533      859.949
07/22/2013  20:35:00     -610.774      -78.045      -30.453      204.452      166.367       92.616    41800.583    27677.945     8577.682       22.904        3.903      615.740       97.520        0.025      349.230       29.503      859.977
07/22/2013  20:36:00     -152.789      -81.722       -1.468      216.766      129.942       87.753    46987.330    16884.949     7700.539        5.078        3.579      173.271      102.177        0.348      349.232       29.506      859.954
07/22/2013  20:37:00     -533.424     -125.518      -33.606      231.043      215.548      104.837    53380.943    46461.091    10990.723       20.611        5.542      547.992      105.715        0.037      349.187       29.428      859.992
07/22/2013  20:38:00     -500.390      -19.918      -28.714      236.882      173.746       89.323    56112.943    30187.778     7978.577       17.293        4.714      500.786      105.693        0.045      349.165       29.388      860.009
07/22/2013  20:39:00     -286.630      -30.998        6.003      189.446      160.391       80.976    35889.722    25725.282     6557.185        7.565        3.409      288.302      100.091        0.121      349.126       29.323      859.988
07/22/2013  20:40:00     -719.123     -132.059      -33.871      329.228      218.094      100.335   108391.219    47565.055    10067.126       35.084        8.301      731.148      142.044        0.038      349.117       29.305      860.004
07/22/2013  20:41:00     -428.717     -146.638       -1.785      226.948      182.962       80.717    51505.444    33474.991     6515.311       14.838        4.575      453.101       94.684        0.044      349.098       29.272      860.060
07/22/2013  20:42:00     -341.913      -59.972      -11.095      187.528      145.064       74.607    35166.704    21043.457     5566.237        9.119        3.089      347.133       88.008        0.064      349.061       29.208      860.063
07/22/2013  20:43:00     -300.108      -40.721        0.630      198.068      185.669       94.441    39230.765    34473.029     8919.194        8.716        4.131      302.858      104.248        0.118      349.036       29.165      860.054
07/22/2013  20:44:00     -414.764       -9.091      -18.454      266.568      202.882       89.718    71058.442    41161.130     8049.395       14.634        6.013      414.864      101.833        0.060      349.007       29.117      860.078
07/22/2013  20:45:00     -678.799      -77.822      -45.436      217.516      197.165       95.332    47313.362    38874.159     9088.136       28.206        4.764      683.246       96.476        0.020      349.005       29.112      860.104
07/22/2013  20:46:00     -467.539      -86.255      -20.233      217.730      181.413       90.478    47406.304    32910.669     8186.179       15.745        4.425      475.429       91.601        0.037      348.998       29.101      860.149
07/22/2013  20:47:00     -478.828     -165.409       -7.935      220.876      197.167      101.946    48786.289    38874.671    10392.940       17.736        4.903      506.593      120.330        0.056      348.986       29.079      860.144
07/22/2013  20:48:00     -328.112     -101.723      -14.573      217.125      141.977       88.597    47143.298    20157.473     7849.505        9.667        3.758      343.519      105.176        0.094      348.997       29.100      860.212
07/22/2013  20:49:00     -383.189      -11.342       -8.906      193.633      148.374       92.449    37493.900    22014.707     8546.776       10.753        3.403      383.356       94.533        0.061      348.978       29.068      860.245
07/22/2013  20:50:00     -370.250       -7.521      -24.170      149.358      124.239       67.864    22307.911    15435.312     4605.584        9.003        2.117      370.327       66.625        0.032      348.942       29.004      860.244
07/22/2013  20:51:00     -403.680      -81.858        1.367      251.695      171.147       98.283    63350.255    29291.314     9659.499       13.596        5.115      411.896      117.439        0.081      348.919       28.963      860.245
07/22/2013  20:52:00     -460.519     -126.454      -18.012      208.189      187.531       84.240    43342.526    35167.840     7096.372       15.698        4.280      477.565      103.267        0.047      348.915       28.955      860.319
07/22/2013  20:53:00     -423.616      -46.828      -32.524      133.069      115.071       61.975    17707.443    13241.251     3840.856       10.874        1.739      426.197       61.733        0.021      348.911       28.950      860.355
07/22/2013  20:54:00     -475.370     -162.762        5.077      234.146      228.424      116.869    54824.118    52177.512    13658.265       18.655        6.033      502.462      134.356        0.071      348.892       28.917      860.332
07/22/2013  20:55:00     -419.167      -11.823      -21.572      231.079      162.507       87.436    53397.582    26408.459     7644.969       13.186        4.373      419.333       93.734        0.050      348.912       28.951      860.362
07/22/2013  20:56:00     -519.369      -38.778      -25.946      226.810      155.892       90.260    51442.640    24302.394     8146.913       17.789        4.195      520.815       99.814        0.037      348.886       28.906      860.405
07/22/2013  20:57:00     -547.730     -141.179      -53.322      287.923      145.701       89.114    82899.643    21228.785     7941.383       21.740        5.603      565.632      111.252        0.039      348.875       28.887      860.442
07/22/2013  20:58:00     -557.203      -87.435      -16.408      298.633      205.784       85.409    89181.924    42347.160     7294.690       22.858        6.941      564.021      104.067        0.034      348.832       28.810      860.404
07/22/2013  20:59:00     -408.229     -170.777      -15.260      204.255      177.571      101.588    41720.045    31531.386    10320.082       13.979        4.179      442.511       77.916        0.031      348.841       28.828      860.466
07/22/2013  21:00:00     -442.883     -135.970       -2.626      242.760      158.617       99.836    58932.637    25159.232     9967.227       15.433        4.703      463.285      118.869        0.066      348.826       28.801      860.469
07/22/2013  21:01:00     -596.657     -111.800      -34.323      216.207      177.991      103.938    46745.362    31680.648    10803.024       22.943        4.461      607.041      103.562        0.029      348.852       28.846      860.573
07/22/2013  21:02:00     -566.646      -83.214      -16.917      242.315      232.218      110.426    58716.349    53925.329    12193.800       22.654        6.242      572.724      111.849        0.038      348.847       28.838      860.523
07/22/2013  21:03:00     -580.090     -102.792      -31.707      185.384      145.975       94.509    34367.204    21308.696     8931.873       20.633        3.230      589.127       91.358        0.024      348.863       28.867      860.605
07/22/2013  21:04:00     -560.425      -30.466      -44.647      190.824      154.677       88.461    36413.913    23925.051     7825.402       19.257        3.408      561.252       91.176        0.026      348.856       28.853      860.640
07/22/2013  21:05:00     -557.091      -76.663      -39.554      269.130      164.967       93.677    72430.998    27214.191     8775.376       21.308        5.421      562.341      112.412        0.040      348.836       28.817      860.616
07/22/2013  21:06:00     -405.801       18.905      -36.456      210.239      182.166       77.215    44200.400    33184.288     5962.158       12.484        4.167      406.241       76.627        0.036      348.864       28.866      860.653
07/22/2013  21:07:00     -259.563      -89.508      -21.384      106.797      103.824       59.278    11405.492    10779.466     3513.933        5.077        1.285      274.563       49.165        0.032      348.893       28.916      860.622
07/22/2013  21:08:00     -345.430      -85.000      -16.307      191.812      181.352       89.153    36791.958    32888.589     7948.285       10.221        3.881      355.734       98.908        0.077      348.828       28.805      860.653
07/22/2013  21:09:00     -518.866      -61.543      -28.947      273.899      147.507       71.907    75020.844    21758.373     5170.546       18.788        5.097      522.503      104.385        0.040      348.785       28.731      860.657
07/22/2013  21:10:00     -651.014        7.865      -43.725      248.901      207.227       91.401    61951.543    42943.024     8354.209       26.950        5.662      651.062      104.268        0.026      348.765       28.695      860.670
07/22/2013  21:11:00     -517.716     -139.527      -14.120      286.779      204.526      101.480    82241.933    41830.806    10298.222       21.101        6.719      536.188      110.587        0.043      348.763       28.691      860.657
07/22/2013  21:12:00     -614.609      -61.797      -51.083      252.442      193.014       94.423    63726.811    37254.435     8915.757       24.701        5.495      617.708       98.455        0.025      348.732       28.640      860.649
07/22/2013  21:13:00     -434.903        3.093      -23.222      200.136      152.195       96.055    40054.284    23163.402     9226.558       13.105        3.622      434.914       97.258        0.050      348.720       28.619      860.635
07/22/2013  21:14:00     -152.724      -88.473       45.905      211.681      178.710       99.496    44808.783    31937.409     9899.469        5.993        4.332      176.499      100.000        0.321      348.722       28.625      860.676
07/22/2013  21:15:00     -270.897     -106.452      -16.557      221.249      168.553       76.320    48950.965    28410.165     5824.805        8.407        4.159      291.062       91.814        0.100      348.719       28.620      860.658
07/22/2013  21:16:00     -417.026      -59.141      -19.939      209.844      149.645       88.825    44034.399    22393.635     7889.810       12.605        3.716      421.199       93.808        0.050      348.679       28.548      860.749
07/22/2013  21:17:00     -339.098     -138.868       -1.287      208.463      182.803       95.264    43456.866    33416.977     9075.283       11.009        4.297      366.431      111.539        0.093      348.659       28.512      860.737
07/22/2013  21:18:00     -557.910      -76.369      -27.667      278.274      214.811      122.653    77436.473    46143.890    15043.798       22.821        6.931      563.112      147.404        0.069      348.640       28.479      860.679
07/22/2013  21:19:00     -526.987      -15.498      -10.782      213.485      158.236      102.906    45575.914    25038.626    10589.558       17.962        4.060      527.215      107.345        0.041      348.635       28.471      860.708
07/22/2013  21:20:00     -411.841     -111.412      -31.166      182.025      176.717       69.582    33133.221    31229.062     4841.600       12.609        3.460      426.644       72.718        0.029      348.634       28.470      860.754
07/22/2013  21:21:00     -394.311      -84.262      -18.594      282.524      137.485       90.509    79820.087    18902.105     8191.833       13.490        5.346      403.214      112.034        0.077      348.621       28.449      860.776
07/22/2013  21:22:00     -292.327      -23.596        0.338      162.249      153.622       72.648    26324.759    23599.763     5277.780        7.060        2.760      293.277       69.172        0.056      348.605       28.420      860.835
07/22/2013  21:23:00     -375.171        1.375      -34.376      144.982      131.057       66.636    21019.796    17175.916     4440.292        9.228        2.132      375.173       60.966        0.026      348.604       28.418      860.833
07/22/2013  21:24:00     -486.461     -186.663       -8.933      166.049      173.482       94.088    27572.184    30095.967     8852.603       16.903        3.326      521.044       95.677        0.034      348.582       28.380      860.811
07/22/2013  21:25:00     -527.234     -133.180      -47.305      204.648      191.597      106.491    41880.852    36709.465    11340.253       19.392        4.497      543.795      100.067        0.034      348.567       28.354      860.844
07/22/2013  21:26:00     -401.994      -21.221      -24.240      130.926      111.097       68.329    17141.710    12342.578     4668.810        9.839        1.708      402.554       65.170        0.026      348.550       28.323      860.892
07/22/2013  21:27:00     -211.123       17.137        4.271      128.767       88.147       67.775    16580.845     7769.844     4593.409        3.691        1.447      211.817       53.179        0.063      348.543       28.312      860.855
07/22/2013  21:28:00     -431.155     -101.718      -16.963      265.982      152.097       79.525    70746.614    23133.536     6324.239       14.835        5.010      442.991       85.523        0.037      348.539       28.304      860.898
07/22/2013  21:29:00     -330.424      -50.300       12.679      238.837      162.032       83.608    57043.203    26254.241     6990.276       10.106        4.514      334.230      103.473        0.096      348.515       28.264      860.966
07/22/2013  21:30:00     -476.309     -113.212      -26.164      211.557      167.744       80.367    44756.302    28138.075     6458.816       15.985        3.968      489.579       87.281        0.032      348.515       28.265      860.969
07/22/2013  21:31:00     -421.614     -104.884      -26.307      161.400      146.233       72.860    26049.838    21384.184     5308.611       12.109        2.637      434.464       63.696        0.021      348.497       28.233      861.017
07/22/2013  21:32:00     -251.377      -52.706       11.365      203.703      113.523       68.855    41494.719    12887.494     4741.028        6.260        2.956      256.843       78.520        0.093      348.489       28.219      861.048
07/22/2013  21:33:00     -394.090      -10.069      -33.523      217.946      144.992       71.192    47500.593    21022.713     5068.263       11.505        3.680      394.219       80.764        0.042      348.485       28.213      861.024
07/22/2013  21:34:00     -460.286     -170.056      -27.191      257.843      206.078       97.131    66482.917    42468.284     9434.402       17.993        5.919      490.696      127.186        0.067      348.517       28.267      861.017
07/22/2013  21:35:00     -504.409     -214.533      -28.377      214.218      213.784      106.373    45889.463    45703.527    11315.260       20.206        5.145      548.136      127.828        0.054      348.542       28.310      861.037
07/22/2013  21:36:00     -361.525     -128.548      -12.061      174.968      145.157       87.101    30613.811    21070.469     7586.534       10.331        2.964      383.699       82.241        0.046      348.528       28.286      861.049
07/22/2013  21:37:00     -377.839      -97.285      -23.662      128.606      129.379       70.086    16539.396    16739.043     4912.010        9.548        1.910      390.163       56.776        0.021      348.518       28.268      861.120
07/22/2013  21:38:00     -225.532      -83.918       -9.637       97.284       73.963       45.079     9464.268     5470.543     2032.105        3.748        0.848      240.638       35.919        0.022      348.471       28.188      861.081
07/22/2013  21:39:00     -473.481      -99.101      -38.693      188.730      126.336       78.579    35618.941    15960.759     6174.693       14.662        2.888      483.741       70.359        0.021      348.442       28.139      861.122
07/22/2013  21:40:00     -570.528       29.666      -50.927      203.044      123.811       75.218    41226.804    15329.181     5657.750       19.558        3.111      571.299       79.660        0.019      348.500       28.239      861.152
07/22/2013  21:41:00     -516.905      -95.043      -32.071      150.486      135.462       77.399    22645.910    18350.014     5990.633       16.211        2.349      525.570       78.837        0.023      348.480       28.204      861.111
07/22/2013  21:42:00     -628.523     -233.476       -9.314      228.713      183.717       98.564    52309.690    33751.906     9714.855       27.269        4.789      670.486      101.093        0.023      348.470       28.188      861.126
07/22/2013  21:43:00     -331.528     -116.551      -22.560      189.003      133.188       64.505    35722.189    17739.003     4160.836        9.080        2.881      351.419       70.045        0.040      348.470       28.188      861.189
07/22/2013  21:44:00     -404.976     -115.718        6.042      244.336      173.813      102.853    59700.269    30210.888    10578.750       13.894        5.024      421.184      116.896        0.077      348.472       28.189      861.197
07/22/2013  21:45:00     -532.423     -122.057      -17.294      237.281      161.525       88.807    56302.499    26090.236     7886.666       19.446        4.514      546.234      105.965        0.038      348.462       28.171      861.243
07/22/2013  21:46:00     -325.210      -58.841      -12.665      228.493      105.084       76.281    52209.063    11042.611     5818.850        8.921        3.454      330.490       94.922        0.082      348.467       28.182      861.286
07/22/2013  21:47:00     -374.264       -0.993       -9.873      214.098      164.281       85.277    45837.992    26988.320     7272.162       11.012        4.005      374.266      107.171        0.082      348.450       28.153      861.249
07/22/2013  21:48:00     -576.332     -185.453      -21.662      195.914      141.484      102.113    38382.158    20017.855    10427.121       21.791        3.441      605.435      101.572        0.028      348.415       28.090      861.328
07/22/2013  21:49:00     -502.951     -127.787      -11.441      210.961      180.399       98.181    44504.459    32543.648     9639.595       17.804        4.334      518.931      109.388        0.044      348.411       28.084      861.365
07/22/2013  21:50:00     -431.193     -109.485      -11.220      180.689      127.587       77.318    32648.433    16278.325     5978.045       12.646        2.745      444.875       76.696        0.030      348.415       28.091      861.366
07/22/2013  21:51:00     -201.643      -24.303       -6.966       93.180       98.399       51.287     8682.494     9682.355     2630.396        3.114        1.050      203.102       48.956        0.058      348.448       28.151      861.371
07/22/2013  21:52:00     -106.147        6.446        3.554       91.869       65.109       47.459     8439.866     4239.171     2252.323        1.312        0.747      106.342       44.200        0.173      348.398       28.065      861.345
07/22/2013  21:53:00     -190.959       39.103        7.608      187.596       98.983       65.410    35192.179     9797.551     4278.475        4.365        2.463      194.921       85.309        0.192      348.345       27.970      861.359
07/22/2013  21:54:00     -487.646     -146.318      -16.847      229.222      179.056       88.563    52542.547    32061.145     7843.363       17.595        4.622      509.124      105.121        0.043      348.349       27.977      861.373
07/22/2013  21:55:00     -478.479     -118.253        1.605      217.870      159.608       94.482    47467.429    25474.839     8926.811       16.238        4.093      492.876      110.798        0.051      348.364       28.002      861.333
07/22/2013  21:56:00     -309.888      -45.039      -18.858      141.736      132.694       64.712    20089.157    17607.700     4187.688        7.014        2.094      313.144       67.949        0.047      348.366       28.005      861.335
07/22/2013  21:57:00     -252.114      -86.767       -2.698      157.086      143.656       85.360    24675.857    20637.029     7286.245        6.184        2.630      266.627       90.725        0.116      348.367       28.008      861.323
07/22/2013  21:58:00     -397.001      -43.924      -22.867      278.117      138.712       90.880    77349.321    19241.072     8259.172       13.243        5.242      399.424      124.879        0.098      348.389       28.046      861.398
07/22/2013  21:59:00     -453.086      -11.293      -25.206      199.827      146.652       77.061    39930.752    21506.809     5938.461       13.670        3.369      453.226       74.225        0.027      348.338       27.958      861.437
07/22/2013  22:00:00     -259.868      -78.632        3.689      182.812      146.165       82.968    33420.322    21364.193     6883.759        6.769        3.083      271.504       87.402        0.104      348.313       27.913      861.399
07/22/2013  22:01:00     -445.794      -79.732      -16.110      208.635      125.730       75.337    43528.413    15808.119     5675.715       13.517        3.251      452.868       65.529        0.021      348.315       27.916      861.438
07/22/2013  22:02:00     -586.331     -125.143      -44.713      269.117      161.986       93.450    72423.923    26239.302     8732.865       23.440        5.370      599.538      102.471        0.029      348.330       27.943      861.483
07/22/2013  22:03:00     -352.170      -73.566      -34.323      200.074      138.190       74.180    40029.445    19096.521     5502.631        9.761        3.231      359.772       76.649        0.045      348.318       27.922      861.498
07/22/2013  22:04:00     -502.388      -39.386      -21.702      189.053      165.685       92.040    35741.122    27451.509     8471.299       16.303        3.583      503.929      106.199        0.044      348.281       27.857      861.464
07/22/2013  22:05:00     -409.127      -76.722      -14.598      251.697      177.408       91.177    63351.548    31473.561     8313.226       13.829        5.157      416.259       94.219        0.051      348.309       27.906      861.476
07/22/2013  22:06:00     -329.881        3.537      -27.243      118.769       93.957       54.050    14105.976     8827.999     2921.453        6.771        1.293      329.900       55.104        0.028      348.299       27.887      861.455
07/22/2013  22:07:00     -498.416     -128.337      -17.082      215.283      171.886       75.675    46346.750    29544.914     5726.644       17.338        4.081      514.674       70.530        0.019      348.295       27.882      861.473
07/22/2013  22:08:00     -521.721      -67.717      -36.184      202.746      147.557       83.208    41105.856    21772.941     6923.571       17.393        3.490      526.097       89.123        0.029      348.311       27.909      861.454
07/22/2013  22:09:00     -460.992     -182.456      -19.381      177.833      141.716       96.949    31624.659    20083.479     9399.167       15.363        3.055      495.786       90.577        0.033      348.316       27.916      861.473
07/22/2013  22:10:00     -451.422     -141.227      -23.840      240.258      161.681       91.937    57724.042    26140.777     8452.387       15.829        4.616      472.998      113.915        0.058      348.330       27.943      861.477
07/22/2013  22:11:00     -245.429     -149.479       11.226      184.069      154.426      108.877    33881.424    23847.473    11854.179        7.613        3.479      287.366      118.873        0.171      348.333       27.948      861.488
07/22/2013  22:12:00     -307.112      -70.225      -16.717      161.803      121.882       74.883    26180.286    14855.275     5607.447        7.308        2.332      315.039       77.390        0.060      348.333       27.949      861.527
07/22/2013  22:13:00     -435.437     -146.192      -18.615      165.714      150.990       85.197    27461.016    22797.988     7258.536       13.441        2.876      459.323       80.141        0.030      348.293       27.880      861.544
07/22/2013  22:14:00     -590.395      -68.209      -25.661      205.172      188.456       83.207    42095.371    35515.693     6923.398       21.919        4.227      594.322       92.527        0.024      348.282       27.860      861.554
07/22/2013  22:15:00     -327.853     -130.266       -6.221      230.165      190.646       92.849    52975.828    36346.014     8620.948       11.120        4.897      352.784      103.872        0.087      348.279       27.854      861.573
07/22/2013  22:16:00     -313.654      -76.216       -4.271      198.216      138.737       90.187    39289.716    19247.865     8133.673        8.543        3.334      322.781      108.148        0.112      348.281       27.857      861.561
07/22/2013  22:17:00     -497.104      -99.340       -6.067      222.959      174.373       88.289    49710.936    30406.004     7795.003       17.245        4.396      506.933       88.659        0.031      348.268       27.834      861.557
07/22/2013  22:18:00     -472.297     -135.076      -33.036      176.560      192.174       90.424    31173.405    36930.903     8176.455       15.933        3.814      491.233       85.213        0.030      348.271       27.841      861.579
07/22/2013  22:19:00     -441.054     -158.515      -16.966      267.483      216.246      123.164    71547.198    46762.346    15169.462       17.668        6.674      468.675      150.183        0.103      348.253       27.809      861.581
07/22/2013  22:20:00     -418.182     -147.273       -5.883      230.055      173.379       97.700    52925.136    30060.144     9545.265       14.455        4.627      443.357      116.038        0.069      348.245       27.796      861.585
07/22/2013  22:21:00     -280.958     -139.012      -12.046      214.026      121.158       87.410    45807.285    14679.313     7640.435        8.325        3.406      313.468      107.787        0.118      348.253       27.810      861.596
07/22/2013  22:22:00     -297.698     -135.460        1.028      162.936      184.139       90.451    26548.171    33907.067     8181.329        8.779        3.432      327.068       81.360        0.062      348.232       27.775      861.621
07/22/2013  22:23:00     -305.215      -71.258        8.970      211.401      181.687      104.700    44690.267    33010.049    10962.142        9.347        4.433      313.423      111.241        0.126      348.223       27.760      861.654
07/22/2013  22:24:00     -316.148      -72.644       -9.816      160.390      164.071       69.282    25725.057    26919.132     4800.021        8.137        2.872      324.387       72.517        0.050      348.205       27.728      861.685
07/22/2013  22:25:00     -338.649       -8.034       -7.905      205.928      220.724       86.454    42406.366    48718.872     7474.211       10.669        4.930      338.744       98.752        0.085      348.223       27.759      861.682
07/22/2013  22:26:00     -428.227      -17.853      -23.639      187.739      149.279       75.490    35245.924    22284.160     5698.743       12.373        3.161      428.599       86.502        0.041      348.190       27.701      861.694
07/22/2013  22:27:00     -515.551      -91.490      -22.543      236.797      127.987       88.893    56072.889    16380.771     7901.923       17.750        4.018      523.606      107.351        0.042      348.168       27.665      861.705
07/22/2013  22:28:00     -500.795     -142.006      -10.565      258.980      162.820      105.848    67070.727    26510.229    11203.806       18.791        5.239      520.540      130.059        0.062      348.178       27.682      861.736
07/22/2013  22:29:00     -338.353      -52.804        3.076      222.314      144.593       88.423    49423.335    20907.085     7818.653        9.770        3.907      342.449      102.362        0.089      348.174       27.676      861.764
07/22/2013  22:30:00     -160.483      -56.489       16.408      133.258      120.059       80.245    17757.608    14414.063     6439.219        3.391        1.931      170.135       80.149        0.222      348.173       27.673      861.779
07/22/2013  22:31:00     -354.916     -125.020        0.278      179.412      188.906       77.559    32188.692    35685.300     6015.337       10.773        3.694      376.291       86.771        0.053      348.160       27.650      861.812
07/22/2013  22:32:00     -285.048     -177.462        9.760      249.803      193.309       89.665    62401.339    37368.197     8039.784       11.030        5.390      335.775      102.910        0.094      348.158       27.648      861.805
07/22/2013  22:33:00     -338.030     -164.747      -16.722      150.465      110.303       79.798    22639.770    12166.861     6367.728        9.142        2.059      376.040       79.443        0.045      348.178       27.682      861.817
07/22/2013  22:34:00     -511.159     -130.990      -36.824      183.831      182.425       75.824    33793.717    33279.022     5749.268       17.630        3.641      527.676       68.597        0.017      348.174       27.673      861.855
07/22/2013  22:35:00     -268.340      -20.541        5.114      149.097      130.023       71.488    22229.922    16906.055     5110.487        5.834        2.212      269.125       63.036        0.055      348.148       27.628      861.889
07/22/2013  22:36:00     -348.798       23.215        3.212      181.544      149.028       78.299    32958.397    22209.429     6130.667        9.174        3.065      349.570       80.660        0.053      348.155       27.642      861.946
07/22/2013  22:37:00     -247.132      -80.465       -5.181      150.674      111.431       63.188    22702.657    12416.955     3992.708        5.334        1.956      259.902       59.400        0.052      348.159       27.648      861.987
07/22/2013  22:38:00     -232.872      -92.247       15.967      199.021      155.800       90.506    39609.458    24273.559     8191.418        6.752        3.604      250.477      102.798        0.168      348.145       27.625      861.996
07/22/2013  22:39:00     -353.332     -106.323      -17.956      217.974      162.016       73.341    47512.539    26249.295     5378.843       10.779        3.957      368.983       81.605        0.049      348.140       27.615      862.057
07/22/2013  22:40:00     -405.026      -90.594      -16.917      196.184      185.408       76.112    38488.025    34376.043     5792.993       12.558        3.933      415.034       73.695        0.032      348.152       27.635      862.116
07/22/2013  22:41:00     -405.083       -5.257      -35.039      173.233      127.816       66.576    30009.568    16336.854     4432.400       10.805        2.539      405.117       69.438        0.029      348.127       27.594      862.171
07/22/2013  22:42:00     -269.292       24.303      -13.178      106.015       97.326       51.113    11239.180     9472.266     2612.583        4.830        1.166      270.387       42.154        0.024      348.124       27.588      862.162
07/22/2013  22:43:00     -123.781      -47.864       12.244      104.090       68.389       45.741    10834.770     4677.060     2092.281        1.768        0.880      132.713       51.195        0.149      348.112       27.569      862.196
07/22/2013  22:44:00      -82.110      -21.659       17.243       91.400       63.077       46.591     8353.924     3978.667     2170.764        1.100        0.725       84.919       47.679        0.315      348.116       27.578      862.249
07/22/2013  22:45:00     -236.399      -94.336       -9.011      176.906      106.602       60.090    31295.801    11363.891     3610.757        5.556        2.314      254.527       73.936        0.084      348.128       27.596      862.290
07/22/2013  22:46:00     -415.719     -210.507      -27.237      164.253      170.158       81.283    26979.080    28953.647     6606.850       14.020        3.127      465.978       81.504        0.031      348.130       27.598      862.325
07/22/2013  22:47:00     -228.871      -81.039        9.959      125.911      111.623       66.282    15853.658    12459.716     4393.338        4.587        1.635      242.795       71.308        0.086      348.106       27.556      862.387
07/22/2013  22:48:00     -230.735       15.971       -8.576      169.736       95.647       57.647    28810.405     9148.396     3323.127        4.742        2.064      231.287       66.439        0.083      348.107       27.558      862.442
07/22/2013  22:49:00     -162.964      -85.160        9.447      103.701      106.216       56.263    10753.836    11281.756     3165.558        2.954        1.260      183.873       37.627        0.042      348.082       27.517      862.483
07/22/2013  22:50:00     -319.928      -99.758       -1.830      142.971      101.511       62.110    20440.707    10304.459     3857.612        7.345        1.730      335.120       64.087        0.037      348.052       27.463      862.524
07/22/2013  22:51:00     -353.714      -54.781       -7.558      153.983      127.083       77.964    23710.675    16150.006     6078.457        8.705        2.297      357.931       86.976        0.059      348.071       27.494      862.581
07/22/2013  22:52:00     -319.193       -3.340      -22.029      177.592      112.103       53.146    31538.877    12567.103     2824.535        7.465        2.347      319.210       58.327        0.033      348.055       27.467      862.619
07/22/2013  22:53:00     -261.102      -17.774      -16.193      117.965       80.454       55.277    13915.642     6472.775     3055.533        4.609        1.172      261.706       57.140        0.048      348.038       27.439      862.644
07/22/2013  22:54:00     -162.077      -65.711        5.812       81.649       95.943       55.509     6666.501     9205.136     3081.277        2.478        0.948      174.891       48.322        0.076      348.060       27.477      862.660
07/22/2013  22:55:00     -221.526       50.992       17.006      165.531       74.745       65.339    27400.583     5586.832     4269.205        4.460        1.863      227.319       84.804        0.139      348.081       27.513      862.673
07/22/2013  22:56:00     -396.868      -86.567      -25.257      132.499      114.630       57.467    17555.862    13140.136     3302.454        9.981        1.700      406.199       50.307        0.015      348.075       27.502      862.677
07/22/2013  22:57:00     -338.105      -45.822      -28.325      121.640      105.936       64.312    14796.387    11222.418     4136.040        7.368        1.508      341.195       57.601        0.029      348.112       27.566      862.672
07/22/2013  22:58:00     -316.215      -99.705       -5.982      129.561      101.460       57.727    16785.974    10294.205     3332.460        7.018        1.521      331.562       64.237        0.038      348.091       27.531      862.664
07/22/2013  22:59:00     -252.107      -26.140      -11.391      104.603       94.803       49.322    10941.856     8987.700     2432.640        4.336        1.118      253.459       47.683        0.035      348.073       27.498      862.675
07/22/2013  23:00:00     -368.603     -131.085      -15.353      138.881      109.160       56.504    19287.808    11915.956     3192.687        9.383        1.720      391.218       47.804        0.015      348.089       27.526      862.669
07/22/2013  23:01:00     -248.022      -73.447       -0.622      154.605      103.757       57.267    23902.683    10765.575     3279.492        5.242        1.897      258.669       79.075        0.093      348.097       27.541      862.660
07/22/2013  23:02:00     -310.822      -24.085      -21.717      143.052      121.357       65.337    20464.008    14727.482     4268.941        6.855        1.973      311.754       51.139        0.027      348.093       27.533      862.643
07/22/2013  23:03:00     -281.182      -67.805        1.797      136.314      120.149       68.838    18581.373    14435.679     4738.699        6.070        1.888      289.242       68.070        0.055      348.075       27.504      862.633
07/22/2013  23:04:00     -312.350      -77.988       -1.251      148.074      125.839       54.049    21926.036    15835.543     2921.242        7.216        2.034      321.939       59.218        0.034      348.080       27.510      862.632
07/22/2013  23:05:00     -416.415      -90.645      -21.697      169.216      108.506       69.803    28634.065    11773.521     4872.469       11.368        2.264      426.166       78.943        0.034      348.081       27.512      862.627
07/22/2013  23:06:00     -294.864      -47.108      -16.512      124.509      102.790       58.009    15502.495    10565.877     3365.035        5.943        1.472      298.603       62.754        0.044      348.048       27.458      862.620
07/22/2013  23:07:00     -280.995      -86.227       -1.382      112.763      102.886       54.087    12715.504    10585.582     2925.418        5.631        1.311      293.927       60.561        0.042      348.064       27.483      862.620
07/22/2013  23:08:00     -360.091      -92.832      -13.501      127.374      100.105       62.559    16224.257    10020.943     3913.621        8.431        1.508      371.865       60.833        0.027      348.061       27.478      862.630
07/22/2013  23:09:00     -273.591      -99.231       -1.076      154.191       98.147       61.084    23774.987     9632.833     3731.235        6.091        1.857      291.030       60.617        0.043      348.045       27.451      862.622
07/22/2013  23:10:00     -270.801      -36.604       -0.187      161.334      108.068       69.890    26028.687    11678.742     4884.548        5.862        2.130      273.263       71.424        0.068      348.024       27.415      862.622
07/22/2013  23:11:00     -333.896      -94.581       -9.056      148.008      101.122       65.167    21906.462    10225.722     4246.776        7.844        1.819      347.033       73.632        0.045      348.041       27.444      862.620
07/22/2013  23:12:00     -360.091      -38.631      -16.229      123.550      109.364       56.093    15264.718    11960.440     3146.408        8.089        1.519      362.157       55.866        0.024      348.036       27.436      862.611
07/22/2013  23:13:00     -362.089      -68.289      -12.633      149.781      102.242       67.188    22434.449    10453.414     4514.253        8.666        1.870      368.473       79.799        0.047      348.007       27.386      862.607
07/22/2013  23:14:00     -402.309      -61.527      -17.204      169.031      111.356       68.329    28571.644    12400.229     4668.796       10.578        2.282      406.986       78.944        0.038      348.002       27.378      862.612
07/22/2013  23:15:00     -302.581     -114.510      -12.596      158.147      117.690       64.527    25010.522    13851.030     4163.733        7.392        2.151      323.524       64.167        0.039      347.981       27.341      862.633
07/22/2013  23:16:00     -364.288      -83.643       -3.844      139.106      128.251       73.038    19350.392    16448.371     5334.567        9.042        2.057      373.767       70.228        0.035      347.964       27.312      862.643
07/22/2013  23:17:00     -382.190      -38.854       -6.132      173.810      102.277       69.633    30209.821    10460.607     4848.774        9.656        2.276      384.160       74.731        0.038      347.961       27.307      862.653
07/22/2013  23:18:00     -335.226      -57.006       -7.278      151.772      128.814       73.694    23034.873    16593.174     5430.792        8.036        2.253      340.039       77.607        0.052      347.972       27.326      862.661
07/22/2013  23:19:00     -443.288     -138.468       -9.964      168.187      141.704       75.281    28286.795    20079.928     5667.302       13.489        2.702      464.411       72.432        0.024      348.027       27.421      862.639
07/22/2013  23:20:00     -327.371     -107.195       -4.416      155.954      126.580       70.523    24321.651    16022.413     4973.467        8.199        2.266      344.475       71.196        0.043      348.037       27.437      862.673
07/22/2013  23:21:00     -400.651      -41.216      -11.941      136.705      133.363       67.296    18688.348    17785.650     4528.776       10.167        2.050      402.766       69.111        0.029      348.029       27.424      862.702
07/22/2013  23:22:00     -314.764      -33.146       -8.382      154.899      115.518       63.266    23993.567    13344.509     4002.629        7.078        2.067      316.505       69.053        0.048      347.982       27.342      862.717
07/22/2013  23:23:00     -371.063      -42.484      -20.617      145.503      126.585       68.083    21171.047    16023.707     4635.299        9.087        2.092      373.487       77.861        0.043      347.965       27.313      862.727
07/22/2013  23:24:00     -284.807       -9.684      -17.007      127.549       85.578       54.843    16268.697     7323.599     3007.779        5.404        1.330      284.972       58.778        0.043      347.953       27.293      862.740
07/22/2013  23:25:00     -494.144      -86.176      -40.294      148.949      138.719       70.057    22185.663    19243.068     4907.969       14.977        2.317      501.602       60.697        0.015      347.970       27.323      862.732
07/22/2013  23:26:00     -324.539      -37.820       -2.305      147.317       97.097       65.546    21702.378     9427.812     4296.340        7.109        1.771      326.736       72.780        0.050      347.978       27.337      862.746
07/22/2013  23:27:00     -307.247     -109.169      -11.748      145.330      126.256       63.510    21120.923    15940.649     4033.555        7.377        2.055      326.065       70.308        0.046      347.989       27.356      862.757
07/22/2013  23:28:00     -273.083      -50.372       -8.018      125.503      113.011       63.380    15750.897    12771.532     4017.039        5.485        1.627      277.690       60.198        0.047      347.973       27.328      862.750
07/22/2013  23:29:00     -442.967     -128.545      -12.973      121.463      104.208       63.366    14753.168    10859.281     4015.211       12.126        1.481      461.242       63.065        0.019      347.990       27.356      862.729
07/22/2013  23:30:00     -326.823      -53.963      -18.220      156.361      123.676       63.456    24448.806    15295.671     4026.607        7.691        2.189      331.248       70.939        0.046      347.971       27.324      862.725
07/22/2013  23:31:00     -247.466      -21.407       -2.277      133.831       98.023       58.299    17910.689     9608.590     3398.824        4.630        1.546      248.390       62.032        0.062      347.987       27.352      862.730
07/22/2013  23:32:00     -354.011      -81.321      -19.299      127.761       94.193       55.532    16322.835     8872.236     3083.858        8.029        1.414      363.231       60.953        0.028      348.044       27.448      862.720
07/22/2013  23:33:00     -424.288      -87.084      -14.216      158.128      145.770       87.343    25004.508    21248.780     7628.773       12.083        2.694      433.133       85.189        0.039      348.069       27.493      862.699
07/22/2013  23:34:00     -404.021      -69.964      -31.617      104.120      104.719       56.287    10841.007    10965.980     3168.237        9.705        1.249      410.034       38.745        0.009      348.090       27.529      862.695
07/22/2013  23:35:00     -258.787     -102.876       -7.624      131.860       91.921       56.733    17387.049     8449.406     3218.657        5.333        1.453      278.485       69.111        0.062      348.049       27.458      862.696
07/22/2013  23:36:00      -36.472      -15.460       18.467       70.770       90.866       44.755     5008.335     8256.718     2003.030        0.859        0.763       39.613       38.692        0.954      348.053       27.467      862.667
07/22/2013  23:37:00     -266.148     -125.959       -0.187      221.535      120.938       54.203    49077.800    14625.966     2937.919        7.666        3.332      294.449       71.895        0.060      348.111       27.566      862.654
07/22/2013  23:38:00     -131.655      -92.896       15.403      173.141      148.570       76.584    29977.911    22073.125     5865.135        4.205        2.896      161.130       89.197        0.306      348.181       27.688      862.637
07/22/2013  23:39:00     -306.592       67.134      -14.414      173.988      132.413       65.483    30271.894    17533.153     4288.059        7.539        2.605      313.856       65.938        0.044      348.143       27.623      862.639
07/22/2013  23:40:00     -228.148      -37.837       -4.304      134.368       95.808       56.104    18054.730     9179.165     3147.663        4.194        1.519      231.264       65.580        0.080      348.118       27.579      862.622
07/22/2013  23:41:00     -186.286       -3.563       15.946      132.809       94.047       65.580    17638.339     8844.817     4300.764        3.287        1.539      186.320       60.999        0.107      348.124       27.590      862.618
07/22/2013  23:42:00     -264.045     -115.560      -12.644      154.656      106.585       68.767    23918.596    11360.392     4728.864        6.161        2.000      288.225       81.652        0.080      348.128       27.597      862.592
07/22/2013  23:43:00     -338.515     -116.244       -8.996      129.003      109.138       65.464    16641.755    11911.150     4285.541        8.051        1.642      357.917       61.505        0.030      348.136       27.609      862.558
07/22/2013  23:44:00     -491.416      -77.030      -51.723      141.275      133.522       62.595    19958.738    17828.121     3918.157       14.589        2.085      497.417       37.953        0.006      348.207       27.731      862.559
07/22/2013  23:45:00     -247.471     -116.043        1.764      126.292       85.896       54.042    15949.662     7378.163     2920.530        5.047        1.312      273.327       49.042        0.032      348.241       27.789      862.588
07/22/2013  23:46:00     -337.860      -55.017      -22.262      137.041      120.186       56.481    18780.286    14444.571     3190.089        7.704        1.821      342.310       60.960        0.032      348.170       27.668      862.586
07/22/2013  23:47:00     -401.381     -147.015      -16.539      141.479      114.877       62.516    20016.213    13196.730     3908.262       11.005        1.856      427.458       51.588        0.015      348.154       27.640      862.602
07/22/2013  23:48:00     -289.633      -83.119      -16.986      143.433      119.483       67.216    20572.979    14276.194     4517.927        6.522        1.968      301.324       66.294        0.048      348.126       27.590      862.608
07/22/2013  23:49:00     -299.257      -20.428      -21.179       88.794      132.617       59.148     7884.380    17587.392     3498.457        5.969        1.449      299.954       48.611        0.026      348.128       27.595      862.638
07/22/2013  23:50:00     -183.963       -9.245        1.241      124.927       84.769       57.198    15606.831     7185.857     3271.667        2.999        1.303      184.195       65.763        0.127      348.117       27.578      862.624
07/22/2013  23:51:00     -248.917      -80.795      -24.891      161.793      120.588       70.839    26176.953    14541.530     5018.196        5.741        2.287      261.702       87.515        0.112      348.112       27.567      862.618
07/22/2013  23:52:00     -317.222        4.345      -24.610      198.169       96.699       57.479    39271.146     9350.628     3303.816        7.658        2.596      317.252       74.977        0.056      348.111       27.566      862.617
07/22/2013  23:53:00     -355.289       71.837      -23.338      158.431      133.710       61.041    25100.324    17878.322     3725.989        8.931        2.335      362.479       64.099        0.031      348.115       27.573      862.598
07/22/2013  23:54:00     -264.692      -73.861       -4.303      104.628      102.717       63.477    10946.922    10550.688     4029.330        5.053        1.276      274.804       59.631        0.047      348.093       27.534      862.588
07/22/2013  23:55:00     -392.056     -112.582      -15.706      186.604      147.732       65.633    34821.177    21824.711     4307.726       11.378        3.048      407.900       65.053        0.025      348.118       27.577      862.594
07/22/2013  23:56:00     -357.203       45.117      -31.092      166.624       98.788       55.389    27763.439     9759.091     3067.929        8.559        2.030      360.041       62.895        0.031      348.168       27.664      862.608
07/22/2013  23:57:00     -276.510       25.871       -1.867      140.275      121.501       70.995    19677.107    14762.375     5040.355        5.830        1.974      277.718       71.457        0.066      348.125       27.590      862.612
07/22/2013  23:58:00     -510.934       81.523      -39.794      206.230      151.332       78.042    42530.701    22901.423     6090.588       17.039        3.576      517.397       76.519        0.022      348.109       27.562      862.587
07/22/2013  23:59:00     -428.594        1.383       -7.055      278.905      162.573       95.651    77788.062    26429.944     9149.062       14.853        5.668      428.596      127.072        0.088      348.094       27.535      862.610
